[[{"header":{"parameterUnit":"m.s-1","parameterCategory":1,"la1":31.0,"la2":29.5877,"lo1":-88.7671,"lo2":-86.6584,"dy":0.0162,"dx":0.0185,"nx":115,"ny":88,"refTime":"2023-04-16T18:00:00:Z","depth":0,"parameterNumber":2,"parameterNumberName":"U-component_of_WINDS"},"data":[0.0,0.0,0.0,0.0,0.0,0.0,0.0,0.0,0.0,0.0,0.0,0.0,0.0,0.0,0.0,0.0,0.0,0.0,0.0,0.0,0.0,0.0,0.0,0.0,0.0,0.0,0.0,0.0,0.0,0.0,0.0,0.0,0.0,0.0,0.0,0.0,0.0,0.0,0.0,0.0,0.0,0.0,0.0,0.0,0.0,0.0,0.0,0.0,0.0,0.0,0.0,0.0,0.0,0.0,0.0,0.0,0.0,0.0,0.0,0.0,0.0,0.0,0.0,0.0,0.0,0.0,0.0,0.0,0.0,0.0,0.0,0.0,0.0,0.0,0.0,0.0,0.0,0.0,0.0,0.0,0.0,0.0,0.0,0.0,0.0,0.0,0.0,0.0,0.0,0.0,0.0,0.0,0.0,0.0,0.0,0.0,0.0,0.0,0.0,0.0,0.0,0.0,0.0,0.0,0.0,0.0,0.0,0.0,0.0,0.0,0.0,0.0,0.0,0.0,0.0,0.0,0.0,0.0,0.0,0.0,0.0,0.0,0.0,0.0,0.0,0.0,0.0,0.0,0.0,0.0,0.0,0.0,0.0,0.0,0.0,0.0,0.0,0.0,0.0,0.0,0.0,0.0,0.0,0.0,0.0,0.0,0.0,0.0,0.0,0.0,0.0,0.0,0.0,0.0,0.0,0.0,0.0,0.0,0.0,0.0,0.0,0.0,0.0,0.0,0.0,0.0,0.0,0.0,0.0,0.0,0.0,0.0,0.0,0.0,0.0,0.0,0.0,0.0,0.0,0.0,0.0,0.0,0.0,0.0,0.0,0.0,0.0,0.0,0.0,0.0,0.0,0.0,0.0,0.0,0.0,0.0,0.0,0.0,0.0,0.0,0.0,0.0,0.0,0.0,0.0,0.0,0.0,0.0,0.0,0.0,0.0,0.0,0.0,0.0,0.0,0.0,0.0,0.0,0.0,0.0,0.0,0.0,0.0,0.0,0.0,0.0,0.0,0.0,0.0,0.0,0.0,0.0,0.0,0.0,0.0,0.0,0.0,0.0,0.0,0.0,0.0,0.0,0.0,0.0,0.0,0.0,0.0,0.0,0.0,0.0,0.0,0.0,0.0,0.0,0.0,0.0,0.0,0.0,0.0,0.0,0.0,0.0,0.0,0.0,0.0,0.0,0.0,0.0,0.0,0.0,0.0,0.0,0.0,0.0,0.0,0.0,0.0,0.0,0.0,0.0,0.0,0.0,0.0,0.0,0.0,0.0,0.0,0.0,0.0,0.0,0.0,0.0,0.0,0.0,0.0,0.0,0.0,0.0,0.0,0.0,0.0,0.0,0.0,0.0,0.0,0.0,0.0,0.0,0.0,0.0,0.0,0.0,0.0,0.0,0.0,0.0,0.0,0.0,0.0,0.0,0.0,0.0,0.0,0.0,0.0,0.0,0.0,0.0,0.0,0.0,0.0,0.0,0.0,0.0,0.0,0.0,0.0,0.0,0.0,0.0,0.0,0.0,0.0,0.0,0.0,0.0,0.0,0.0,0.0,0.0,0.0,0.0,0.0,0.0,0.0,0.0,0.0,0.0,0.0,0.0,0.0,0.0,0.0,0.0,0.0,0.0,0.0,0.0,0.0,0.0,0.0,0.0,0.0,0.0,0.0,0.0,0.0,0.0,0.0,0.0,0.0,0.0,0.0,0.0,0.0,0.0,0.0,0.0,0.0,0.0,0.0,0.0,0.0,0.0,0.0,0.0,0.0,0.0,0.0,0.0,0.0,0.0,0.0,0.0,0.0,0.0,0.0,0.0,0.0,0.0,0.0,0.0,0.0,0.0,0.0,0.0,0.0,0.0,0.0,0.0,0.0,0.0,0.0,0.0,0.0,0.0,0.0,0.0,0.0,0.0,0.0,0.0,0.0,0.0,0.0,0.0,0.0,0.0,0.0,0.0,0.0,0.0,0.0,0.0,0.0,0.0,0.0,0.0,0.0,0.0,0.0,0.0,0.0,0.0,0.0,0.0,0.0,0.0,0.0,0.0,0.0,0.0,0.0,0.0,0.0,0.0,0.0,0.0,0.0,0.0,0.0,0.0,0.0,0.0,0.0,0.0,0.0,0.0,0.0,0.0,0.0,0.0,0.0,0.0,0.0,0.0,0.0,0.0,0.0,0.0,0.0,0.0,0.0,0.0,0.0,0.0,0.0,0.0,0.0,0.0,0.0,0.0,0.0,0.0,0.0,0.0,0.0,0.0,0.0,0.0,0.0,0.0,0.0,0.0,0.0,0.0,0.0,0.0,0.0,0.0,0.0,0.0,0.0,0.0,0.0,0.0,0.0,0.0,0.0,0.0,0.0,0.0,0.0,0.0,0.0,0.0,0.0,0.0,0.0,0.0,0.0,0.0,0.0,0.0,0.0,0.0,0.0,0.0,0.0,0.0,0.0,0.0,0.0,0.0,0.0,0.0,0.0,0.0,0.0,0.0,0.0,0.0,0.0,0.0,0.0,0.0,0.0,0.0,0.0,0.0,0.0,0.0,0.0,0.0,0.0,0.0,0.0,0.0,0.0,0.0,0.0,0.0,0.0,0.0,0.0,0.0,0.0,0.0,0.0,0.0,0.0,0.0,0.0,0.0,0.0,0.0,0.0,0.0,0.0,0.0,0.0,0.0,0.0,0.0,0.0,0.0,0.0,0.0,0.0,0.0,0.0,0.0,0.0,0.0,0.0,0.0,0.0,0.0,0.0,0.0,0.0,0.0,0.0,0.0,0.0,0.0,0.0,0.0,0.0,0.0,0.0,0.0,0.0,0.0,0.0,0.0,0.0,0.0,0.0,0.0,0.0,0.0,0.0,0.0,0.0,0.0,0.0,0.0,0.0,0.0,0.0,0.0,0.0,0.0,0.0,0.0,0.0,0.0,0.0,0.0,0.0,0.0,0.0,0.0,0.0,0.0,0.0,0.0,0.0,0.0,0.0,0.0,0.0,0.0,0.0,0.0,0.0,0.0,0.0,0.0,0.0,0.0,0.0,0.0,0.0,0.0,0.0,0.0,0.0,0.0,0.0,0.0,0.0,0.0,0.0,0.0,0.0,0.0,0.0,0.0,0.0,0.0,0.0,0.0,0.0,0.0,0.0,0.0,0.0,0.0,0.0,0.0,0.0,0.0,0.0,0.0,0.0,0.0,0.0,0.0,0.0,0.0,0.0,0.0,0.0,0.0,0.0,0.0,0.0,0.0,0.0,0.0,0.0,0.0,0.0,0.0,0.0,0.0,0.0,0.0,0.0,0.0,0.0,0.0,0.0,0.0,0.0,0.0,0.0,0.0,0.0,0.0,0.0,0.0,0.0,0.0,0.0,0.0,0.0,0.0,0.0,0.0,0.0,0.0,0.0,0.0,0.0,0.0,0.0,0.0,0.0,0.0,0.0,0.0,0.0,0.0,0.0,0.0,0.0,0.0,0.0,0.0,0.0,0.0,0.0,0.0,0.0,0.0,0.0,0.0,0.0,0.0,0.0,0.0,0.0,0.0,0.0,0.0,0.0,0.0,0.0,0.0,0.0,0.0,0.0,0.0,0.0,0.0,0.0,0.0,0.0,0.0,0.0,0.0,0.0,0.0,0.0,0.0,0.0,0.0,0.0,0.0,0.0,0.0,0.0,0.0,0.0,0.0,0.0,0.0,0.0,0.0,0.0,0.0,0.0,0.0,0.0,0.0,0.0,0.0,0.0,0.0,0.0,0.0,0.0,0.0,0.0,0.0,0.0,0.0,0.0,0.0,0.0,0.0,0.0,0.0,0.0,0.0,0.0,0.0,0.0,0.0,0.0,0.0,0.0,0.0,0.0,0.0,0.0,0.0,0.0,0.0,0.0,0.0,0.0,0.0,0.0,0.0,0.0,0.0,0.0,0.0,0.0,0.0,0.0,0.0,0.0,0.0,0.0,0.0,0.0,0.0,0.0,0.0,0.0,0.0,0.0,0.0,0.0,0.0,0.0,0.0,0.0,0.0,0.0,0.0,0.0,0.0,0.0,0.0,0.0,0.0,0.0,0.0,0.0,0.0,0.0,0.0,0.0,0.0,0.0,0.0,0.0,0.0,0.0,0.0,0.0,0.0,0.0,0.0,0.0,0.0,0.0,0.0,0.0,0.0,0.0,0.0,0.0,0.0,0.0,0.0,0.0,0.0,0.0,0.0,0.0,0.0,0.0,0.0,0.0,0.0,0.0,0.0,0.0,0.0,0.0,0.0,0.0,0.0,0.0,0.0,0.0,0.0,0.0,0.0,-2.5466,0.0,0.0,0.0,0.0,0.0,0.0,0.0,0.0,0.0,0.0,0.0,0.0,0.0,0.0,0.0,0.0,0.0,0.0,0.0,0.0,0.0,0.0,0.0,0.0,0.0,0.0,0.0,0.0,0.0,0.0,0.0,0.0,0.0,0.0,0.0,0.0,0.0,0.0,0.0,0.0,0.0,0.0,0.0,0.0,0.0,0.0,0.0,0.0,0.0,0.0,0.0,0.0,0.0,0.0,0.0,0.0,0.0,0.0,0.0,0.0,0.0,0.0,0.0,0.0,0.0,0.0,0.0,0.0,0.0,0.0,0.0,0.0,0.0,0.0,0.0,0.0,0.0,0.0,0.0,0.0,0.0,0.0,0.0,0.0,0.0,0.0,0.0,0.0,0.0,0.0,0.0,0.0,0.0,0.0,0.0,0.0,0.0,0.0,0.0,0.0,0.0,0.0,0.0,0.0,0.0,0.0,0.0,0.0,0.0,0.0,-2.7629,-2.6751,-2.7474,-2.7311,-2.6111,0.0,0.0,0.0,0.0,0.0,0.0,0.0,0.0,0.0,0.0,0.0,0.0,0.0,0.0,0.0,0.0,0.0,0.0,0.0,0.0,0.0,0.0,0.0,0.0,0.0,0.0,0.0,0.0,0.0,0.0,0.0,0.0,0.0,0.0,0.0,0.0,0.0,0.0,0.0,0.0,0.0,0.0,0.0,0.0,0.0,0.0,0.0,0.0,0.0,0.0,0.0,0.0,0.0,0.0,0.0,0.0,0.0,0.0,0.0,0.0,0.0,0.0,0.0,0.0,0.0,0.0,0.0,0.0,0.0,0.0,0.0,0.0,0.0,0.0,0.0,0.0,0.0,0.0,0.0,0.0,0.0,0.0,0.0,0.0,0.0,0.0,0.0,0.0,0.0,0.0,0.0,0.0,0.0,0.0,0.0,0.0,0.0,0.0,0.0,0.0,0.0,0.0,0.0,0.0,0.0,0.0,0.0,0.0,0.0,0.0,0.0,0.0,-2.8536,-2.8265,-2.7175,0.0,0.0,0.0,0.0,0.0,0.0,0.0,0.0,0.0,0.0,0.0,0.0,0.0,0.0,0.0,0.0,0.0,0.0,0.0,0.0,0.0,0.0,0.0,0.0,0.0,0.0,0.0,0.0,0.0,0.0,0.0,0.0,0.0,0.0,0.0,0.0,0.0,0.0,0.0,0.0,0.0,0.0,0.0,0.0,0.0,0.0,0.0,0.0,0.0,0.0,0.0,0.0,0.0,0.0,0.0,0.0,0.0,0.0,0.0,0.0,0.0,0.0,0.0,0.0,0.0,0.0,0.0,0.0,0.0,0.0,0.0,0.0,0.0,0.0,0.0,0.0,0.0,0.0,0.0,0.0,0.0,0.0,0.0,0.0,0.0,0.0,0.0,0.0,0.0,0.0,0.0,0.0,0.0,0.0,0.0,0.0,0.0,0.0,0.0,0.0,0.0,0.0,0.0,0.0,0.0,0.0,0.0,0.0,0.0,0.0,-2.944,-3.2411,-3.1736,0.0,-2.8879,0.0,0.0,0.0,0.0,0.0,0.0,0.0,0.0,0.0,0.0,0.0,0.0,0.0,0.0,0.0,0.0,0.0,0.0,0.0,0.0,0.0,0.0,0.0,0.0,0.0,0.0,0.0,0.0,0.0,0.0,0.0,0.0,0.0,0.0,0.0,0.0,0.0,0.0,0.0,0.0,0.0,0.0,0.0,0.0,0.0,0.0,0.0,0.0,0.0,0.0,0.0,0.0,0.0,0.0,0.0,0.0,0.0,0.0,0.0,0.0,0.0,0.0,0.0,0.0,0.0,0.0,0.0,0.0,0.0,0.0,0.0,0.0,0.0,0.0,0.0,0.0,0.0,0.0,0.0,0.0,0.0,0.0,0.0,0.0,0.0,0.0,0.0,0.0,0.0,0.0,0.0,0.0,0.0,0.0,0.0,0.0,0.0,0.0,0.0,0.0,0.0,0.0,0.0,0.0,0.0,0.0,0.0,0.0,0.0,0.0,-2.9696,-3.153,-3.1149,-3.01,0.0,0.0,0.0,0.0,0.0,0.0,0.0,0.0,0.0,0.0,0.0,0.0,0.0,0.0,0.0,0.0,0.0,0.0,0.0,0.0,0.0,0.0,0.0,0.0,0.0,0.0,0.0,0.0,0.0,0.0,0.0,0.0,0.0,0.0,0.0,0.0,0.0,0.0,0.0,0.0,0.0,0.0,0.0,0.0,0.0,0.0,0.0,0.0,0.0,0.0,0.0,0.0,0.0,0.0,0.0,0.0,0.0,0.0,0.0,0.0,0.0,0.0,0.0,0.0,0.0,0.0,0.0,0.0,0.0,0.0,0.0,0.0,0.0,0.0,0.0,0.0,0.0,0.0,0.0,0.0,0.0,0.0,0.0,0.0,0.0,0.0,0.0,0.0,0.0,0.0,0.0,0.0,0.0,0.0,0.0,0.0,0.0,0.0,0.0,0.0,0.0,0.0,0.0,0.0,0.0,0.0,0.0,0.0,0.0,0.0,-2.9752,-3.0423,-3.1794,-3.1389,-3.0287,-2.8541,0.0,0.0,0.0,0.0,0.0,0.0,0.0,0.0,0.0,0.0,0.0,0.0,0.0,0.0,0.0,0.0,0.0,0.0,0.0,0.0,0.0,0.0,0.0,0.0,0.0,0.0,0.0,0.0,0.0,0.0,0.0,0.0,0.0,0.0,0.0,0.0,0.0,0.0,0.0,0.0,0.0,0.0,0.0,0.0,0.0,0.0,0.0,0.0,0.0,0.0,0.0,0.0,0.0,0.0,0.0,0.0,0.0,0.0,0.0,0.0,0.0,0.0,0.0,0.0,0.0,0.0,0.0,0.0,0.0,0.0,0.0,0.0,0.0,0.0,0.0,0.0,0.0,0.0,0.0,0.0,0.0,0.0,0.0,0.0,0.0,0.0,0.0,0.0,0.0,0.0,0.0,0.0,0.0,0.0,0.0,0.0,0.0,0.0,0.0,0.0,0.0,0.0,0.0,0.0,0.0,0.0,0.0,0.0,-3.3727,-3.1748,-3.2082,-3.5121,-3.3753,-3.2036,0.0,0.0,0.0,0.0,0.0,0.0,0.0,0.0,0.0,0.0,0.0,0.0,0.0,0.0,0.0,0.0,0.0,0.0,0.0,0.0,0.0,0.0,0.0,0.0,0.0,0.0,0.0,0.0,0.0,0.0,0.0,0.0,0.0,0.0,0.0,0.0,0.0,0.0,0.0,0.0,0.0,0.0,0.0,0.0,0.0,0.0,0.0,0.0,0.0,0.0,0.0,0.0,0.0,0.0,0.0,0.0,0.0,0.0,0.0,0.0,0.0,0.0,0.0,0.0,0.0,0.0,0.0,0.0,0.0,0.0,0.0,0.0,0.0,0.0,0.0,0.0,0.0,0.0,0.0,0.0,0.0,0.0,0.0,0.0,0.0,0.0,0.0,0.0,0.0,0.0,0.0,0.0,0.0,0.0,0.0,0.0,0.0,0.0,0.0,0.0,0.0,0.0,0.0,0.0,0.0,0.0,0.0,0.0,0.0,-3.0307,-3.0994,-3.2733,-3.5351,-3.2843,-3.1262,0.0,0.0,0.0,0.0,0.0,0.0,0.0,0.0,0.0,0.0,0.0,0.0,0.0,0.0,0.0,0.0,0.0,0.0,0.0,0.0,0.0,0.0,0.0,0.0,0.0,0.0,0.0,0.0,0.0,0.0,0.0,0.0,0.0,0.0,0.0,0.0,0.0,0.0,0.0,0.0,0.0,0.0,0.0,0.0,0.0,0.0,0.0,0.0,0.0,0.0,0.0,0.0,0.0,0.0,0.0,0.0,0.0,0.0,0.0,0.0,0.0,0.0,0.0,0.0,0.0,0.0,0.0,0.0,0.0,0.0,0.0,0.0,0.0,0.0,0.0,0.0,0.0,0.0,0.0,0.0,0.0,0.0,0.0,0.0,0.0,0.0,0.0,0.0,0.0,0.0,0.0,0.0,0.0,0.0,0.0,0.0,0.0,0.0,0.0,0.0,0.0,0.0,0.0,0.0,0.0,0.0,0.0,0.0,0.0,-2.9776,0.0,-3.4323,-3.501,-3.2636,-3.0845,0.0,0.0,0.0,0.0,0.0,0.0,0.0,0.0,0.0,0.0,0.0,0.0,0.0,0.0,0.0,0.0,0.0,0.0,0.0,0.0,0.0,0.0,0.0,0.0,0.0,0.0,0.0,0.0,0.0,0.0,0.0,0.0,0.0,0.0,0.0,0.0,0.0,0.0,0.0,0.0,0.0,0.0,0.0,0.0,0.0,0.0,0.0,0.0,0.0,0.0,0.0,0.0,0.0,0.0,0.0,0.0,0.0,0.0,0.0,0.0,0.0,0.0,0.0,0.0,0.0,0.0,0.0,0.0,0.0,0.0,0.0,0.0,0.0,0.0,0.0,0.0,0.0,0.0,0.0,0.0,0.0,0.0,0.0,0.0,0.0,0.0,0.0,0.0,0.0,0.0,0.0,0.0,0.0,0.0,0.0,0.0,0.0,0.0,0.0,0.0,0.0,0.0,0.0,0.0,0.0,0.0,0.0,0.0,-2.9842,-3.3024,-3.6318,-3.6842,-3.4477,-3.3398,-3.0956,0.0,0.0,0.0,0.0,0.0,0.0,0.0,0.0,0.0,0.0,0.0,0.0,0.0,0.0,0.0,0.0,0.0,0.0,0.0,0.0,0.0,0.0,0.0,0.0,0.0,0.0,0.0,0.0,0.0,0.0,0.0,0.0,0.0,0.0,0.0,0.0,0.0,0.0,0.0,0.0,0.0,0.0,0.0,0.0,0.0,0.0,0.0,0.0,0.0,0.0,0.0,0.0,0.0,0.0,0.0,0.0,0.0,0.0,0.0,0.0,0.0,0.0,0.0,0.0,0.0,0.0,0.0,0.0,0.0,0.0,0.0,0.0,0.0,0.0,0.0,0.0,0.0,0.0,0.0,0.0,0.0,0.0,0.0,0.0,0.0,0.0,0.0,0.0,0.0,0.0,0.0,0.0,0.0,0.0,0.0,0.0,0.0,0.0,0.0,0.0,0.0,0.0,0.0,0.0,0.0,0.0,0.0,0.0,0.0,-3.0621,-3.442,-3.6681,-3.6841,-3.3274,-3.1474,0.0,0.0,0.0,0.0,0.0,0.0,0.0,0.0,0.0,0.0,0.0,0.0,0.0,0.0,0.0,0.0,0.0,0.0,0.0,0.0,0.0,0.0,0.0,0.0,0.0,0.0,0.0,0.0,0.0,0.0,0.0,0.0,0.0,0.0,0.0,0.0,0.0,0.0,0.0,0.0,0.0,0.0,0.0,0.0,0.0,0.0,0.0,0.0,0.0,0.0,0.0,0.0,0.0,0.0,0.0,0.0,0.0,0.0,0.0,0.0,0.0,0.0,0.0,0.0,0.0,0.0,0.0,0.0,0.0,0.0,0.0,0.0,0.0,0.0,0.0,0.0,0.0,0.0,0.0,0.0,0.0,0.0,0.0,0.0,0.0,0.0,0.0,0.0,0.0,0.0,0.0,0.0,0.0,0.0,0.0,0.0,0.0,0.0,0.0,0.0,0.0,0.0,0.0,0.0,0.0,0.0,0.0,0.0,0.0,-3.3281,-3.6653,-3.8405,-3.8143,-3.4704,-3.2528,-3.186,0.0,0.0,0.0,0.0,0.0,0.0,0.0,0.0,0.0,0.0,0.0,0.0,0.0,0.0,0.0,0.0,0.0,0.0,0.0,0.0,0.0,0.0,0.0,0.0,0.0,0.0,0.0,0.0,0.0,0.0,0.0,0.0,0.0,0.0,0.0,0.0,0.0,0.0,0.0,0.0,0.0,0.0,0.0,0.0,0.0,0.0,0.0,0.0,0.0,0.0,0.0,0.0,0.0,0.0,0.0,0.0,0.0,0.0,0.0,0.0,0.0,0.0,0.0,0.0,0.0,0.0,0.0,0.0,0.0,0.0,0.0,0.0,0.0,0.0,0.0,0.0,0.0,0.0,0.0,0.0,0.0,0.0,0.0,0.0,0.0,0.0,0.0,0.0,0.0,0.0,0.0,0.0,0.0,0.0,0.0,0.0,0.0,0.0,0.0,0.0,0.0,0.0,0.0,0.0,0.0,0.0,0.0,0.0,-3.9735,-4.2354,-4.2105,-3.88,-3.7475,-3.4173,0.0,0.0,0.0,0.0,0.0,0.0,0.0,0.0,0.0,0.0,0.0,0.0,0.0,0.0,0.0,0.0,0.0,0.0,0.0,0.0,0.0,0.0,0.0,0.0,0.0,0.0,0.0,0.0,0.0,0.0,0.0,0.0,0.0,0.0,0.0,0.0,0.0,0.0,0.0,0.0,0.0,0.0,0.0,0.0,0.0,0.0,0.0,0.0,0.0,0.0,0.0,0.0,0.0,0.0,0.0,0.0,0.0,0.0,0.0,0.0,0.0,0.0,0.0,0.0,0.0,0.0,0.0,0.0,0.0,0.0,0.0,0.0,0.0,0.0,0.0,0.0,0.0,0.0,0.0,0.0,0.0,0.0,0.0,0.0,0.0,0.0,0.0,0.0,0.0,0.0,0.0,0.0,0.0,0.0,0.0,0.0,0.0,0.0,0.0,0.0,0.0,0.0,0.0,0.0,0.0,0.0,0.0,0.0,0.0,-4.3214,-4.6944,-4.7554,-4.4681,-4.0186,-3.6434,0.0,0.0,0.0,0.0,0.0,0.0,0.0,0.0,0.0,0.0,0.0,0.0,0.0,0.0,0.0,0.0,0.0,0.0,0.0,0.0,0.0,0.0,0.0,0.0,0.0,0.0,0.0,0.0,0.0,0.0,0.0,0.0,0.0,0.0,0.0,0.0,0.0,0.0,0.0,0.0,0.0,0.0,0.0,0.0,0.0,0.0,0.0,0.0,0.0,0.0,0.0,0.0,0.0,0.0,0.0,0.0,0.0,0.0,0.0,0.0,0.0,0.0,0.0,0.0,0.0,0.0,0.0,0.0,0.0,0.0,0.0,0.0,0.0,0.0,0.0,0.0,0.0,0.0,0.0,0.0,0.0,0.0,0.0,0.0,0.0,0.0,0.0,0.0,0.0,0.0,0.0,0.0,0.0,0.0,0.0,0.0,0.0,0.0,0.0,0.0,0.0,0.0,0.0,0.0,0.0,0.0,0.0,0.0,-4.1695,-4.6172,-5.0012,-5.1241,-4.9669,-4.4201,-3.9252,0.0,0.0,0.0,0.0,0.0,0.0,0.0,0.0,0.0,0.0,0.0,0.0,0.0,0.0,0.0,0.0,0.0,0.0,0.0,0.0,0.0,0.0,0.0,0.0,0.0,0.0,0.0,0.0,0.0,0.0,0.0,0.0,0.0,0.0,0.0,0.0,0.0,0.0,0.0,0.0,0.0,0.0,0.0,0.0,0.0,0.0,0.0,0.0,0.0,0.0,0.0,0.0,0.0,0.0,0.0,0.0,0.0,0.0,0.0,0.0,0.0,0.0,0.0,0.0,0.0,0.0,0.0,0.0,0.0,0.0,0.0,0.0,0.0,0.0,0.0,0.0,0.0,0.0,0.0,0.0,0.0,0.0,0.0,0.0,0.0,0.0,0.0,0.0,0.0,0.0,0.0,0.0,0.0,0.0,0.0,0.0,0.0,0.0,0.0,0.0,0.0,0.0,0.0,0.0,0.0,0.0,0.0,0.0,-4.3533,-4.84,-5.1767,-5.3444,-5.3167,-4.8219,-4.2005,0.0,0.0,0.0,0.0,0.0,0.0,0.0,0.0,0.0,0.0,0.0,0.0,0.0,0.0,0.0,0.0,0.0,0.0,0.0,0.0,0.0,0.0,0.0,0.0,0.0,0.0,0.0,0.0,0.0,0.0,0.0,0.0,0.0,0.0,0.0,0.0,0.0,0.0,0.0,0.0,0.0,0.0,0.0,0.0,0.0,0.0,0.0,0.0,0.0,0.0,0.0,0.0,0.0,0.0,0.0,0.0,0.0,0.0,0.0,0.0,0.0,0.0,0.0,0.0,0.0,0.0,0.0,0.0,0.0,0.0,0.0,0.0,0.0,0.0,0.0,0.0,0.0,0.0,0.0,0.0,0.0,0.0,0.0,0.0,0.0,0.0,0.0,0.0,0.0,0.0,0.0,0.0,0.0,0.0,0.0,0.0,0.0,0.0,0.0,0.0,0.0,0.0,0.0,0.0,0.0,0.0,0.0,0.0,-4.4132,-4.8502,-5.18,-5.3472,-5.3358,-4.7659,-4.1931,0.0,0.0,0.0,0.0,0.0,0.0,0.0,0.0,0.0,0.0,0.0,0.0,0.0,0.0,0.0,0.0,0.0,0.0,0.0,0.0,0.0,0.0,0.0,0.0,0.0,0.0,0.0,0.0,0.0,0.0,0.0,0.0,0.0,0.0,0.0,0.0,0.0,0.0,0.0,0.0,0.0,0.0,0.0,0.0,0.0,0.0,0.0,0.0,-3.0168,0.0,0.0,0.0,0.0,0.0,0.0,0.0,0.0,0.0,0.0,0.0,0.0,0.0,0.0,0.0,0.0,0.0,0.0,0.0,0.0,0.0,0.0,0.0,0.0,0.0,0.0,0.0,0.0,0.0,0.0,0.0,0.0,0.0,0.0,0.0,0.0,0.0,0.0,0.0,0.0,0.0,0.0,0.0,0.0,0.0,0.0,0.0,0.0,0.0,0.0,0.0,0.0,0.0,0.0,0.0,0.0,0.0,0.0,0.0,-4.3774,-4.7892,-5.0864,-5.2337,-5.2061,-4.7501,-4.2744,0.0,0.0,0.0,0.0,0.0,0.0,0.0,0.0,0.0,0.0,0.0,0.0,0.0,0.0,0.0,0.0,0.0,0.0,0.0,0.0,0.0,0.0,0.0,0.0,0.0,0.0,0.0,0.0,0.0,0.0,0.0,0.0,0.0,0.0,0.0,0.0,0.0,0.0,0.0,0.0,0.0,0.0,0.0,0.0,0.0,0.0,0.0,0.0,0.0,0.0,0.0,0.0,0.0,0.0,0.0,0.0,0.0,0.0,0.0,0.0,0.0,0.0,0.0,0.0,0.0,0.0,0.0,0.0,0.0,0.0,0.0,0.0,0.0,0.0,0.0,0.0,0.0,0.0,0.0,0.0,0.0,0.0,0.0,0.0,0.0,0.0,0.0,0.0,0.0,0.0,0.0,0.0,0.0,0.0,0.0,0.0,0.0,0.0,0.0,0.0,0.0,0.0,0.0,0.0,0.0,0.0,0.0,-3.9525,-4.2999,-4.7194,-4.9534,-5.0662,-5.0465,-4.7143,-4.337,-3.928,0.0,0.0,0.0,0.0,0.0,0.0,0.0,0.0,0.0,0.0,0.0,0.0,0.0,0.0,0.0,0.0,0.0,0.0,0.0,0.0,0.0,0.0,0.0,0.0,0.0,0.0,0.0,0.0,0.0,0.0,0.0,0.0,0.0,0.0,0.0,0.0,0.0,0.0,-3.0583,-3.0528,0.0,0.0,0.0,0.0,0.0,0.0,0.0,0.0,-2.9954,0.0,0.0,0.0,0.0,0.0,0.0,0.0,0.0,0.0,0.0,0.0,0.0,0.0,0.0,0.0,0.0,0.0,0.0,0.0,0.0,0.0,0.0,0.0,0.0,0.0,0.0,0.0,0.0,0.0,0.0,0.0,0.0,0.0,0.0,0.0,0.0,0.0,0.0,0.0,0.0,0.0,0.0,0.0,0.0,0.0,0.0,0.0,0.0,0.0,0.0,0.0,0.0,0.0,0.0,0.0,0.0,-4.0134,-4.0153,-4.2487,-4.7335,-4.8477,-4.8954,-4.871,-4.5479,-4.2,-3.8399,0.0,0.0,0.0,0.0,0.0,0.0,0.0,0.0,0.0,0.0,0.0,0.0,0.0,0.0,0.0,0.0,0.0,0.0,0.0,0.0,0.0,0.0,0.0,0.0,0.0,0.0,0.0,0.0,0.0,0.0,0.0,0.0,0.0,0.0,0.0,0.0,0.0,0.0,0.0,-3.143,-3.1385,0.0,0.0,0.0,0.0,0.0,0.0,0.0,0.0,-3.0459,0.0,0.0,0.0,0.0,0.0,0.0,0.0,0.0,0.0,0.0,0.0,0.0,0.0,0.0,0.0,0.0,0.0,0.0,0.0,0.0,0.0,0.0,0.0,0.0,0.0,0.0,0.0,0.0,0.0,0.0,0.0,0.0,0.0,0.0,0.0,0.0,0.0,0.0,0.0,0.0,0.0,0.0,0.0,0.0,0.0,0.0,0.0,0.0,0.0,0.0,0.0,0.0,0.0,0.0,0.0,-3.8846,-4.0487,-4.302,-4.6688,-4.7621,-4.7751,-4.7107,-4.3801,-4.0587,0.0,0.0,0.0,0.0,0.0,0.0,0.0,0.0,0.0,0.0,0.0,0.0,0.0,0.0,0.0,0.0,0.0,0.0,0.0,0.0,0.0,0.0,0.0,0.0,0.0,0.0,0.0,0.0,0.0,0.0,0.0,0.0,0.0,0.0,0.0,0.0,0.0,0.0,0.0,0.0,-3.1943,-3.212,-3.2076,0.0,0.0,0.0,0.0,0.0,0.0,-3.066,-3.0373,0.0,0.0,0.0,0.0,0.0,0.0,0.0,0.0,0.0,0.0,0.0,0.0,0.0,0.0,0.0,0.0,0.0,0.0,0.0,0.0,0.0,0.0,0.0,0.0,0.0,0.0,0.0,0.0,0.0,0.0,0.0,0.0,0.0,0.0,0.0,0.0,0.0,0.0,0.0,0.0,0.0,0.0,0.0,0.0,0.0,0.0,0.0,0.0,0.0,0.0,0.0,0.0,0.0,0.0,0.0,-3.7245,-4.0312,-4.3296,-4.6096,-4.6887,-4.6691,-4.552,-4.2328,-3.9194,0.0,0.0,0.0,0.0,0.0,0.0,0.0,0.0,0.0,0.0,0.0,0.0,0.0,0.0,0.0,0.0,0.0,0.0,0.0,0.0,0.0,0.0,0.0,0.0,0.0,0.0,0.0,0.0,0.0,0.0,0.0,0.0,0.0,0.0,0.0,0.0,0.0,0.0,0.0,0.0,0.0,-3.2786,-3.2649,-3.2531,0.0,0.0,0.0,0.0,-3.0858,-3.1177,0.0,0.0,0.0,0.0,0.0,0.0,0.0,0.0,0.0,0.0,0.0,0.0,0.0,0.0,0.0,0.0,0.0,0.0,0.0,0.0,0.0,0.0,0.0,0.0,0.0,0.0,0.0,0.0,0.0,0.0,0.0,0.0,0.0,0.0,0.0,0.0,0.0,0.0,0.0,0.0,0.0,0.0,0.0,0.0,0.0,0.0,0.0,0.0,0.0,0.0,0.0,0.0,0.0,0.0,0.0,0.0,-3.7168,-3.9199,-4.2167,-4.6054,-4.6334,-4.5553,-4.3921,-4.1253,-3.7859,0.0,0.0,0.0,0.0,0.0,0.0,0.0,0.0,0.0,0.0,0.0,0.0,0.0,0.0,0.0,0.0,0.0,0.0,0.0,0.0,0.0,0.0,0.0,0.0,0.0,0.0,0.0,0.0,0.0,0.0,0.0,0.0,0.0,0.0,0.0,0.0,0.0,0.0,0.0,0.0,0.0,-3.3354,-3.2543,-3.2959,-3.2708,0.0,0.0,0.0,-3.1975,-3.4103,0.0,0.0,0.0,0.0,0.0,0.0,0.0,0.0,0.0,0.0,0.0,0.0,0.0,0.0,0.0,0.0,0.0,0.0,0.0,0.0,0.0,0.0,0.0,0.0,0.0,0.0,0.0,0.0,0.0,0.0,0.0,0.0,0.0,0.0,0.0,0.0,0.0,0.0,0.0,0.0,0.0,0.0,0.0,0.0,0.0,0.0,0.0,0.0,0.0,0.0,0.0,0.0,0.0,0.0,0.0,-3.2617,-3.5801,-3.8965,-4.1973,-4.4707,-4.4802,-4.3954,-4.222,-3.9201,-3.6007,0.0,0.0,0.0,0.0,0.0,0.0,0.0,0.0,0.0,0.0,0.0,0.0,0.0,0.0,0.0,0.0,0.0,0.0,0.0,0.0,0.0,0.0,0.0,0.0,0.0,0.0,0.0,0.0,0.0,0.0,0.0,0.0,0.0,0.0,0.0,0.0,0.0,0.0,0.0,0.0,0.0,0.0,-3.2541,-3.3333,0.0,0.0,0.0,-3.3396,-3.2631,0.0,0.0,0.0,0.0,0.0,0.0,0.0,0.0,0.0,0.0,0.0,0.0,0.0,0.0,0.0,0.0,0.0,0.0,0.0,0.0,0.0,0.0,0.0,0.0,0.0,0.0,0.0,0.0,0.0,0.0,0.0,0.0,0.0,0.0,0.0,0.0,0.0,0.0,0.0,0.0,0.0,0.0,0.0,0.0,0.0,0.0,0.0,0.0,0.0,0.0,0.0,0.0,0.0,0.0,0.0,0.0,0.0,-3.4413,-3.8182,-4.119,-4.3281,-4.3164,-4.2245,-4.0495,-3.7568,0.0,0.0,0.0,0.0,0.0,0.0,0.0,0.0,0.0,0.0,0.0,0.0,0.0,0.0,0.0,0.0,0.0,0.0,0.0,0.0,0.0,0.0,0.0,0.0,0.0,0.0,0.0,0.0,0.0,0.0,0.0,0.0,0.0,0.0,0.0,0.0,0.0,0.0,0.0,0.0,0.0,0.0,-3.4319,-3.2798,-3.3652,-3.4334,0.0,0.0,-3.341,-3.3391,-3.4179,-3.3965,0.0,0.0,0.0,0.0,0.0,0.0,0.0,0.0,0.0,0.0,0.0,0.0,0.0,0.0,0.0,0.0,0.0,0.0,0.0,0.0,0.0,0.0,0.0,0.0,0.0,0.0,0.0,0.0,0.0,0.0,0.0,0.0,0.0,0.0,0.0,0.0,0.0,0.0,0.0,0.0,0.0,0.0,0.0,0.0,0.0,0.0,0.0,0.0,0.0,0.0,0.0,0.0,0.0,0.0,0.0,-3.3473,-3.6168,-3.9157,-4.2323,-4.1757,-4.0527,-3.8808,-3.697,-3.3997,0.0,0.0,0.0,0.0,0.0,0.0,0.0,0.0,0.0,0.0,0.0,0.0,0.0,0.0,0.0,0.0,0.0,0.0,0.0,0.0,0.0,0.0,0.0,0.0,0.0,0.0,0.0,0.0,0.0,0.0,0.0,0.0,0.0,0.0,0.0,0.0,0.0,0.0,0.0,0.0,0.0,-3.4437,-3.3474,-3.3941,-3.4703,0.0,0.0,-3.4344,-3.4379,-3.608,-3.6053,-3.1971,0.0,0.0,0.0,0.0,0.0,0.0,0.0,0.0,0.0,0.0,0.0,0.0,0.0,0.0,0.0,0.0,0.0,0.0,0.0,0.0,0.0,0.0,0.0,0.0,0.0,0.0,0.0,0.0,0.0,0.0,0.0,0.0,0.0,0.0,0.0,0.0,0.0,0.0,0.0,0.0,0.0,0.0,0.0,0.0,0.0,0.0,0.0,0.0,0.0,0.0,0.0,0.0,0.0,-3.059,-3.2587,-3.5166,-3.765,-3.9919,-3.9743,-3.8768,-3.7031,-3.582,-3.3417,0.0,0.0,0.0,0.0,0.0,0.0,0.0,0.0,0.0,0.0,0.0,0.0,0.0,0.0,0.0,0.0,0.0,0.0,0.0,0.0,0.0,0.0,0.0,0.0,0.0,0.0,0.0,0.0,-2.9132,-2.9487,-2.9974,0.0,0.0,0.0,0.0,0.0,0.0,0.0,0.0,0.0,0.0,-3.4149,-3.2223,-3.3865,0.0,0.0,-3.4379,-3.4446,-3.4377,-3.4909,-3.4386,-3.1561,-3.0602,0.0,0.0,0.0,0.0,0.0,0.0,0.0,0.0,0.0,0.0,0.0,0.0,0.0,0.0,0.0,0.0,0.0,0.0,0.0,0.0,0.0,0.0,0.0,0.0,0.0,0.0,0.0,0.0,0.0,0.0,0.0,0.0,0.0,0.0,0.0,0.0,0.0,0.0,0.0,0.0,0.0,0.0,0.0,0.0,0.0,0.0,0.0,0.0,0.0,0.0,0.0,0.0,-3.0111,-3.2054,-3.4134,-3.6171,-3.811,-3.794,-3.7104,-3.5681,-3.4765,-3.2832,0.0,0.0,0.0,0.0,0.0,0.0,0.0,0.0,0.0,0.0,0.0,0.0,0.0,0.0,0.0,0.0,0.0,0.0,0.0,0.0,0.0,0.0,0.0,0.0,0.0,0.0,0.0,0.0,-2.9724,-2.9818,-3.011,0.0,0.0,0.0,0.0,0.0,0.0,0.0,0.0,0.0,0.0,-3.3525,-3.1675,-3.3314,-3.4462,-3.3713,-3.3437,-3.3456,-3.3855,-3.3407,-3.2483,-3.0927,0.0,0.0,0.0,0.0,0.0,0.0,0.0,0.0,0.0,0.0,0.0,0.0,0.0,0.0,0.0,0.0,0.0,0.0,0.0,0.0,0.0,0.0,0.0,0.0,0.0,0.0,0.0,0.0,0.0,0.0,0.0,0.0,0.0,0.0,0.0,0.0,0.0,0.0,0.0,0.0,0.0,0.0,0.0,0.0,0.0,0.0,0.0,0.0,0.0,0.0,0.0,0.0,0.0,0.0,-3.1949,-3.2927,-3.4601,-3.6989,-3.642,-3.5634,-3.474,-3.3881,-3.2223,-2.9666,0.0,0.0,0.0,0.0,0.0,0.0,0.0,0.0,0.0,0.0,0.0,0.0,0.0,0.0,0.0,0.0,0.0,0.0,0.0,0.0,0.0,0.0,0.0,0.0,0.0,0.0,-3.0428,-3.0559,-3.023,0.0,0.0,0.0,0.0,0.0,0.0,0.0,0.0,0.0,0.0,-3.1471,-3.2501,-3.2251,-3.2181,-3.2703,-3.4053,-3.2236,-3.1192,-3.2762,-3.1911,-3.081,0.0,0.0,0.0,0.0,0.0,0.0,0.0,0.0,0.0,0.0,0.0,0.0,0.0,0.0,0.0,0.0,0.0,0.0,0.0,0.0,0.0,0.0,0.0,0.0,0.0,0.0,0.0,0.0,-2.6126,0.0,0.0,0.0,0.0,0.0,0.0,0.0,0.0,0.0,0.0,0.0,-2.7542,-2.805,0.0,0.0,0.0,0.0,0.0,0.0,0.0,0.0,0.0,0.0,0.0,0.0,-2.8819,-3.0273,-3.2224,-3.3946,-3.5318,-3.5123,-3.4575,-3.3729,-3.2902,-3.1288,-2.8825,0.0,0.0,0.0,0.0,0.0,0.0,0.0,0.0,0.0,0.0,0.0,0.0,0.0,0.0,0.0,0.0,0.0,0.0,0.0,0.0,0.0,0.0,0.0,0.0,0.0,-2.8818,0.0,0.0,0.0,0.0,0.0,0.0,0.0,0.0,0.0,0.0,0.0,-3.0285,-3.0793,-3.176,-3.1984,-3.0743,-3.1899,-3.2662,0.0,0.0,0.0,0.0,0.0,0.0,0.0,0.0,0.0,0.0,0.0,0.0,0.0,0.0,-2.6624,-2.6222,-2.5791,-2.5466,-2.543,0.0,0.0,0.0,0.0,0.0,0.0,0.0,0.0,0.0,0.0,0.0,0.0,0.0,0.0,0.0,0.0,-2.7317,0.0,0.0,0.0,0.0,0.0,0.0,0.0,0.0,-2.7938,-2.869,-2.901,-2.952,-2.9504,0.0,-2.9002,-2.8059,0.0,0.0,0.0,0.0,0.0,0.0,0.0,0.0,-2.8636,-2.9808,-3.1716,-3.3121,-3.396,-3.4031,-3.3642,-3.2771,-3.1938,-3.0479,-2.8306,-2.7696,-2.6866,0.0,0.0,0.0,0.0,0.0,0.0,0.0,0.0,0.0,0.0,0.0,0.0,0.0,0.0,0.0,0.0,0.0,0.0,0.0,0.0,0.0,0.0,0.0,-2.8725,0.0,0.0,0.0,0.0,0.0,0.0,0.0,0.0,0.0,-3.0955,-3.0742,-3.0628,-3.0831,-3.1301,-3.113,-2.984,0.0,0.0,0.0,0.0,0.0,0.0,0.0,-2.9393,-2.8544,-2.8313,-2.8219,-2.8182,-2.8025,-2.773,-2.723,0.0,0.0,-2.6222,-2.6007,-2.5881,-2.5844,-2.5343,-2.4899,-2.4895,-2.4171,-2.3478,0.0,0.0,0.0,0.0,0.0,0.0,0.0,0.0,-2.7943,-2.8106,0.0,-2.8231,0.0,0.0,0.0,0.0,0.0,0.0,0.0,0.0,-3.0329,-3.1036,-3.0421,-3.0487,-3.048,-3.0374,-2.9882,-2.9139,-2.8175,-2.7961,0.0,0.0,0.0,0.0,0.0,0.0,-2.8811,-3.0394,-3.1342,-3.2213,-3.302,-3.3098,-3.2737,-3.1875,-3.1059,-2.9836,-2.8223,-2.8155,-2.739,-2.5687,-2.5655,0.0,0.0,0.0,0.0,0.0,0.0,0.0,0.0,0.0,0.0,0.0,0.0,0.0,0.0,0.0,0.0,0.0,0.0,0.0,0.0,-2.8264,0.0,0.0,0.0,0.0,0.0,0.0,0.0,0.0,0.0,0.0,-3.0151,-3.0826,-3.102,-3.0166,0.0,0.0,0.0,0.0,-2.9701,-2.9376,-2.9262,-2.9175,-2.8964,-2.8822,-2.873,-2.86,0.0,0.0,-2.8309,-2.8191,-2.7908,-2.7322,-2.7166,-2.6874,-2.6137,-2.5972,-2.5881,-2.5756,-2.5307,-2.4922,-2.4895,-2.441,-2.3937,-3.4412,0.0,0.0,0.0,0.0,-3.161,-3.187,-3.2304,-3.1572,-3.0772,-2.9914,-2.921,0.0,0.0,0.0,0.0,0.0,0.0,-2.8555,-2.9683,-3.0906,-3.1624,-3.1947,-3.2561,-3.1918,-3.0294,-3.0817,-3.0081,-2.8229,-2.8778,-2.8139,-2.6339,0.0,0.0,0.0,0.0,-2.8409,-2.9511,-3.091,-3.1788,-3.2017,-3.2039,-3.1699,-3.091,-3.0677,-2.9753,-2.8178,-2.8106,-2.7329,-2.5632,-2.555,0.0,0.0,0.0,0.0,0.0,0.0,0.0,0.0,0.0,0.0,0.0,0.0,0.0,0.0,0.0,0.0,0.0,0.0,0.0,-2.5946,-2.7454,-2.8194,0.0,0.0,0.0,0.0,0.0,0.0,0.0,0.0,0.0,-3.028,-3.0352,-3.0567,0.0,0.0,-2.9761,-2.9608,-2.9626,-2.9645,-2.9504,0.0,0.0,0.0,-2.9112,-2.8932,-2.8582,-2.8505,-2.8466,-2.838,-2.8327,-2.8119,-2.753,-2.7301,-2.7019,-2.6366,-2.6169,-2.6097,-2.6007,-2.5422,-2.5096,-2.5442,-2.4631,-2.3853,-3.7119,-3.4916,-3.3582,-3.3015,-3.2998,-3.2998,-3.3194,-3.3547,-3.3191,-3.2481,-3.1577,-3.1103,-2.9855,-2.8088,-2.7294,0.0,0.0,0.0,-2.9384,-3.1201,-3.1379,-3.1881,-3.2583,-3.2779,-3.21,-3.0736,-3.1053,-3.0417,-2.8933,-2.9034,-2.8376,-2.6994,0.0,0.0,-2.6966,-2.7856,-2.8545,-2.909,-3.0382,-3.1079,-3.1092,-3.1079,-3.07,-2.9943,-2.989,-2.9144,-2.7542,-2.7497,-2.6861,-2.5495,-2.5444,-2.5096,0.0,0.0,0.0,0.0,0.0,0.0,0.0,0.0,0.0,0.0,0.0,-2.5312,0.0,0.0,0.0,0.0,-2.6002,-2.6164,-2.6121,-2.735,0.0,0.0,0.0,0.0,0.0,0.0,0.0,-3.0433,-3.0904,-3.1012,-3.0369,-3.024,-3.0336,-3.0714,-3.0235,-2.9822,-2.9728,0.0,-2.9736,-2.9681,-2.9699,-2.9608,-2.9345,-2.9241,-2.9056,-2.8657,-2.8562,-2.8536,-2.8484,-2.8471,-2.8264,-2.7739,-2.747,-2.7177,-2.6521,-2.6329,-2.6222,-2.6185,-2.5511,-2.5065,-2.5451,-2.4491,-2.367,-3.9365,-3.8496,-3.5318,-3.3875,-3.3624,-3.3624,-3.3442,-3.3114,-3.3345,-3.335,-3.3193,-3.313,-3.2238,-3.0716,-2.8899,0.0,0.0,-2.9552,-3.0404,-3.2533,-3.1757,-3.1757,-3.2436,-3.1751,-3.1292,-3.1085,-3.069,-3.0253,-2.9719,-2.8746,-2.8156,-2.8004,-2.8363,-2.821,-2.7559,-2.8403,-2.8893,-2.9002,-2.9775,-3.0222,-3.0286,-3.0216,-2.9813,-2.9033,-2.8937,-2.8151,-2.6603,-2.6564,-2.6188,-2.5359,-2.5341,-2.5033,-2.4248,0.0,0.0,0.0,0.0,0.0,0.0,0.0,0.0,0.0,0.0,0.0,0.0,0.0,0.0,0.0,-2.6364,0.0,-2.6887,-2.7619,0.0,0.0,0.0,-2.9412,-2.9392,-3.017,-3.0678,-3.0618,0.0,0.0,0.0,0.0,-3.0267,-3.0123,-3.0094,-3.0042,-2.991,-2.9959,-2.9948,-2.9823,-2.9789,-2.9626,-2.9199,-2.8971,-2.8703,-2.8379,-2.8505,-2.8455,-2.8478,-2.8569,-2.8326,-2.7677,-2.7502,-2.7176,-2.6539,-2.6167,-2.6111,-2.5973,-2.5435,-2.4946,-2.482,-2.4148,-2.3381,-4.0319,-3.9939,-3.8608,-3.7482,-3.6527,-3.6492,-3.5794,-3.4611,-3.414,-3.326,-3.2117,-3.1551,-3.0915,-3.0183,-2.9553,-3.014,-3.1537,-3.0374,-3.0784,-3.2359,-3.161,-3.1362,-3.1602,-3.14,-3.0393,-2.8796,-2.9754,-2.8982,-2.6688,-2.7461,-2.7624,-2.7081,-2.7279,-2.7368,-2.7328,-2.7004,-2.7485,-2.8831,-2.9107,-2.9568,-3.0182,-2.9628,-2.9206,-2.8995,-2.84,-2.7595,-2.6546,-2.651,-2.6142,-2.5273,-2.524,-2.4894,-2.4164,-2.4115,0.0,0.0,0.0,0.0,0.0,0.0,0.0,0.0,0.0,-2.5482,-2.5703,0.0,-2.5703,0.0,-2.5875,-2.6228,-2.6835,-2.7085,0.0,0.0,-2.8853,-2.9444,-2.9413,-3.018,-3.0678,-3.0605,-3.0642,-3.0651,-3.0554,-3.0496,-3.0419,-3.0344,-3.0142,-2.9988,-2.9916,-3.0007,-3.0057,-2.9983,-2.9973,-2.9709,-2.8671,-2.7684,-2.7079,-2.6888,-2.738,-2.7743,-2.7707,-2.8201,-2.8234,-2.7137,-2.6838,-2.6338,-2.5185,-2.4875,-2.4811,-2.468,-2.4991,-2.508,-2.4315,-2.3725,-2.3082,-4.0558,-4.0441,-3.9754,-3.8814,-3.7801,-3.7475,-3.6878,-3.6061,-3.4981,-3.3864,-3.275,-3.1826,-3.134,-3.1145,-3.0719,-3.1145,-3.2102,-3.0772,-3.0677,-3.1592,-3.0826,-3.0155,-2.9649,-2.9655,-2.8802,-2.7244,-2.8086,-2.7592,-2.5981,-2.675,-2.6962,-2.6573,-2.6321,-2.6284,-2.6465,-2.6572,-2.7135,-2.8176,-2.8629,-2.9248,-3.0011,-2.9339,-2.8766,-2.8371,-2.7605,-2.6762,-2.5903,-2.5537,-2.5122,-2.4654,-2.4271,-2.3904,-2.3505,-2.3129,-2.2727,0.0,0.0,0.0,0.0,0.0,0.0,0.0,0.0,0.0,0.0,0.0,-2.5855,0.0,-2.659,0.0,-2.7441,-2.748,-2.7539,-2.7666,-2.8099,-2.853,-2.8866,-2.9671,-3.0191,-3.0116,-3.0146,-3.0,-2.9574,-2.9455,-2.9412,-2.9308,-2.9152,-2.9306,-2.987,-2.9782,-2.9675,-3.0022,-2.9532,-2.8801,-2.7887,-2.7021,-2.6443,-2.6417,-2.67,-2.6962,-2.6909,-2.7248,-2.7209,-2.629,-2.6065,-2.5746,-2.4686,-2.4417,-2.4371,-2.4344,-2.4563,-2.4476,-2.361,-2.3082,-2.2504,-4.0461,-4.0392,-3.9658,-3.8975,-3.8246,-3.7416,-3.704,-3.6894,-3.5458,-3.4438,-3.3714,-3.2665,-3.2318,-3.2501,-3.1666,-3.1634,-3.2169,-3.0627,-3.0054,-3.0266,-2.9506,-2.8502,-2.7354,-2.7366,-2.6977,-2.6224,-2.633,-2.6286,-2.6104,-2.6195,-2.6213,-2.6078,-2.5411,-2.5116,-2.5303,-2.6334,-2.7056,-2.7373,-2.8195,-2.8989,-2.9699,-2.8972,-2.8196,-2.7439,-2.6638,-2.5875,-2.5114,-2.4419,-2.4052,-2.4017,-2.3282,-2.29,-2.2993,-2.2271,-2.2191,0.0,-2.2407,0.0,0.0,0.0,0.0,0.0,0.0,0.0,0.0,-2.5693,-2.602,-2.6773,-2.7466,-2.7913,-2.8024,-2.8024,-2.7792,-2.7226,-2.7166,-2.7454,-2.8248,-2.8987,-2.9412,-2.9356,-2.9336,-2.901,-2.8325,-2.8121,-2.8067,-2.8081,-2.8044,-2.8459,-2.9487,-2.9206,-2.8994,-2.9772,-2.8529,-2.7426,-2.6983,-2.6534,-2.6141,-2.6143,-2.6166,-2.6125,-2.5957,-2.6039,-2.5865,-2.5158,-2.4879,-2.4683,-2.4217,-2.3988,-2.3979,-2.3982,-2.3892,-2.3621,-2.2976,-2.2473,-2.1807,-4.0288,-4.012,-3.9506,-3.9091,-3.8739,-3.7401,-3.6281,-3.5301,-3.4339,-3.3214,-3.2002,-3.1734,-3.1671,-3.1642,-3.0542,-3.0434,-3.0994,-2.9119,-2.8299,-2.8325,-2.7519,-2.6707,-2.5933,-2.6104,-2.5817,-2.5172,-2.5979,-2.5739,-2.448,-2.5126,-2.5111,-2.4559,-2.4395,-2.4351,0.0,0.0,0.0,0.0,-2.7516,-2.8043,-2.8758,-2.7437,-2.6659,-2.6529,-2.5652,0.0,-2.5031,-2.4911,-2.4878,-2.4847,-2.4106,0.0,0.0,0.0,0.0,0.0,0.0,0.0,0.0,0.0,0.0,0.0,-2.4635,-2.4518,-2.5581,-2.5688,-2.5747,-2.5935,-2.609,-2.6455,-2.7085,-2.7201,-2.7426,-2.7916,-2.8007,-2.8123,-2.8297,-2.8446,-2.8556,-2.8534,-2.8533,-2.8452,-2.821,-2.8221,-2.8089,-2.7907,-2.7974,-2.802,-2.8217,-2.8053,-2.8001,-2.8071,-2.714,-2.6418,-2.6145,-2.5359,-2.4718,-2.4657,-2.5116,-2.5147,-2.4621,-2.4925,-2.4635,-2.3302,-2.2705,-2.2508,-2.2151,-2.1942,-2.2096,-2.2517,-2.2622,-2.2562,-2.2557,-2.2186,-2.1565,-4.0163,0.0,-3.8977,-3.8512,0.0,-3.6857,-3.5638,-3.4649,-3.3959,-3.2841,-3.1498,-3.1481,-3.1257,-3.0827,-3.0208,-2.9935,-2.9848,-2.8438,-2.7667,-2.7424,-2.7076,-2.6152,-2.487,-2.5401,-2.5127,-2.4203,-2.4705,-2.461,-2.3961,-2.4296,-2.4317,-2.3955,-2.3947,-2.3976,-2.4006,-2.4036,-2.4788,-2.6265,-2.6811,-2.748,-2.8194,-2.7532,-2.697,-2.6599,0.0,0.0,0.0,0.0,0.0,0.0,0.0,0.0,0.0,0.0,0.0,-2.3928,-2.3996,-2.4164,-2.4538,-2.4276,-2.445,-2.5266,-2.4661,-2.4671,-2.5644,-2.5692,-2.5864,-2.6242,-2.6304,-2.663,-2.7416,-2.7213,-2.6957,-2.6947,-2.6632,-2.6542,-2.6912,-2.7006,-2.7196,-2.7523,-2.7288,-2.6878,-2.6428,-2.5948,-2.5675,-2.5634,-2.556,-2.5517,-2.556,-2.6413,-2.6858,-2.5998,-2.5812,-2.5243,-2.4337,-2.3677,-2.3213,-2.316,-2.3327,-2.3334,-2.2949,-2.3138,-2.2974,-2.1926,-2.1597,-2.139,-2.1082,-2.1148,-2.1428,-2.1671,-2.1973,-2.2207,-2.2293,-2.1827,-2.1123,-4.0028,-3.9774,-3.8464,-3.7838,-3.7601,-3.6191,-3.5115,-3.4273,0.0,0.0,0.0,-3.144,-3.1062,-3.0357,-3.0102,-2.9642,-2.8942,-2.8027,-2.7318,-2.6847,-2.6895,-2.5969,-2.4321,-2.4824,-2.4563,-2.3579,-2.3465,-2.3524,-2.3742,-2.3761,-2.3782,-2.3795,-2.3795,-2.3795,-2.3806,-2.3865,-2.4265,-2.5024,-2.59,-2.67,-2.7426,-2.7436,-2.7121,-2.647,-2.58,-2.5129,-2.4497,-2.3803,-2.3454,-2.3486,-2.2825,-2.2557,-2.276,-2.2762,-2.3152,-2.3973,-2.4091,-2.4411,-2.504,-2.5048,-2.495,-2.4776,-2.4268,-2.4439,-2.5585,-2.5397,-2.5552,-2.637,-2.6312,-2.6487,-2.7188,-2.6643,-2.5954,-2.5297,-2.4581,-2.446,-2.5117,-2.5234,-2.5506,-2.6085,-2.5653,-2.4987,-2.432,-2.3676,-2.3066,-2.3061,-2.3297,-2.2972,-2.3146,-2.4591,-2.5239,-2.4167,-2.4228,-2.4062,-2.2842,-2.2316,-2.2032,-2.2129,-2.1954,-2.1669,-2.1523,-2.1451,-2.1243,-2.0858,-2.0761,-2.0565,-2.0356,-2.0642,-2.1121,-2.1179,-2.1643,-2.2077,-2.2106,-2.1587,-2.0926,-3.9757,-3.9073,-3.8244,-3.7533,-3.6897,-3.5994,-3.4805,-3.3525,-3.2784,-3.2009,-3.123,-3.123,-3.1179,-3.0973,-2.9721,-2.9096,-2.8925,-2.7503,-2.6488,0.0,-2.5825,-2.5331,-2.4475,-2.4159,-2.3919,-2.3731,-2.3363,-2.3301,-2.3508,-2.3549,-2.3631,-2.3792,-2.3795,-2.3795,-2.3795,-2.3816,-2.3871,-2.4029,-2.4372,-2.4948,-2.5693,-2.5152,-2.4819,-2.4751,-2.4634,-2.445,-2.4346,-2.4312,-2.4282,-2.4238,-2.3484,-2.3408,-2.4123,-2.3658,-2.3748,-2.4596,-2.4835,-2.4987,-2.5057,-2.4428,-2.3722,-2.3136,-2.3013,-2.3737,-2.5371,-2.4241,-2.3738,-2.4532,-2.4071,-2.3585,-2.3701,-2.3723,-2.3674,-2.3499,-2.3316,-2.3295,-2.3512,-2.3506,-2.3611,-2.3809,-2.3553,-2.349,-2.3309,-2.3092,-2.2955,-2.3026,-2.2752,-2.2875,-2.2808,-2.3112,-2.3208,-2.2935,-2.2948,-2.2841,-2.2334,-2.2261,-2.2009,-2.2019,-2.1783,-2.1372,-2.0759,-2.0661,-2.0418,-1.9719,-1.954,-1.9468,-1.964,-1.9636,-2.0124,-2.0837,-2.1237,-2.1556,-2.2026,-2.1746,-2.1338,-3.991,-3.9469,-3.8379,-3.7702,-3.728,-3.569,-3.4387,-3.3355,-3.2594,-3.1887,-3.1224,-3.119,-3.0751,-2.9974,-2.9314,-2.8553,-2.7706,-2.7029,-2.6505,-2.6184,-2.5778,-2.522,-2.4489,-2.3879,-2.3442,-2.3198,-2.2998,-2.301,-2.3265,-2.3271,-2.3399,-2.3631,-2.3642,-2.3642,-2.3642,-2.3642,-2.3689,-2.3806,-2.4346,-2.4809,-2.5166,-2.5267,-2.5144,-2.4747,-2.4706,-2.4468,-2.404,-2.4088,-2.4107,-2.4079,-2.3823,-2.3868,-2.4246,-2.4093,-2.4179,-2.4551,-2.4305,-2.4183,-2.4183,-2.3506,-2.297,-2.2665,-2.2235,-2.2538,-2.391,-2.3363,-2.314,-2.3547,-2.3203,-2.3011,-2.3011,-2.3011,-2.2839,-2.2382,-2.2311,-2.2308,-2.2351,-2.2345,-2.2536,-2.2902,-2.2655,-2.2402,-2.2401,-2.2026,-2.1748,-2.1727,-2.1688,-2.164,-2.1568,-2.151,-2.1602,-2.1961,-2.2034,-2.1795,-2.1339,-2.1081,-2.0966,-2.0851,-2.0685,-2.0421,-1.996,-1.9877,-1.9698,-1.9382,-1.9176,-1.9143,-1.927,-1.9371,-1.9695,-1.9957,-2.0807,-2.1275,-2.1568,-2.1599,-2.1399,-3.9775,-3.9505,-3.8259,-3.7518,-3.7064,-3.5459,-3.4235,-3.3389,-3.2818,-3.2019,-3.1258,-3.119,-3.0482,-2.9279,-2.9094,-2.8265,-2.7046,-2.6776,-2.6708,-2.664,-2.6116,-2.5541,-2.4965,-2.4239,-2.3612,-2.3127,-2.2949,-2.292,-2.3003,-2.3022,-2.3145,-2.3383,-2.3424,-2.3424,-2.3406,-2.3424,-2.352,-2.3747,-2.4346,-2.4675,-2.4737,-2.5353,-2.5341,-2.4791,-2.473,-2.4447,-2.385,-2.3795,-2.3795,-2.3806,-2.3795,-2.3783,-2.3792,-2.3786,-2.3789,-2.3742,-2.3361,-2.303,-2.286,-2.247,-2.2138,-2.2008,-2.1406,-2.1343,-2.2,-2.2199,-2.2391,-2.2596,-2.2427,-2.2355,-2.2325,-2.2366,-2.2136,-2.1498,-2.1417,-2.141,-2.1403,-2.1409,-2.1636,-2.221,-2.1878,-2.1517,-2.1404,-2.0976,-2.0681,-2.0697,-2.0547,-2.0503,-2.0424,-2.0351,-2.0608,-2.0993,-2.1218,-2.1001,-2.0312,-2.0131,-2.0047,-1.986,-1.977,-1.9699,-1.9542,-1.9413,-1.9334,-1.9295,-1.9287,-1.9194,-1.9002,-1.9189,-1.9414,-1.9517,-2.0105,-2.0798,-2.1204,-2.1292,-2.1236,-3.8904,-3.8207,-3.7485,-3.6348,-3.5234,-3.5368,-3.467,-3.3474,-3.3322,-3.2493,-3.1241,-3.119,-3.0751,-2.9973,-2.9314,-2.8518,-2.7638,-2.7012,-2.6708,-2.6708,-2.664,-2.6539,-2.6302,-2.5676,-2.5015,-2.4282,-2.3636,-2.3116,-2.2807,-2.2751,-2.2889,-2.3103,-2.3128,-2.3145,-2.3145,-2.3145,-2.3277,-2.3508,-2.3609,-2.3728,-2.3911,-2.3976,-2.4005,-2.3933,-2.3922,-2.3878,-2.3795,-2.3795,-2.3795,-2.3759,-2.32,-2.2847,-2.2813,-2.2292,-2.1974,-2.1993,-2.2065,-2.1876,-2.1321,-2.1286,-2.1017,-2.0327,-2.0232,-2.0237,-2.0418,-2.0408,-2.0744,-2.1382,-2.1023,-2.0794,-2.0656,-2.0782,-2.0855,-2.0804,-2.0648,-2.0523,-2.0576,-2.0521,-2.0556,-2.0593,-2.0758,-2.0628,-2.0695,-2.0603,-2.0566,-2.0602,-2.0579,-2.0569,-2.0503,-2.043,-2.0376,-2.0434,-2.0384,-2.0353,-2.0199,-2.0093,-2.0002,-1.9957,-1.9761,-1.9643,-1.9576,-1.9475,-1.9375,-1.9341,-1.9308,-1.9222,-1.9094,-1.9066,-1.9154,-1.9258,-1.9577,-1.9929,-2.0807,-2.0974,-2.0739,-3.8493,-3.8117,-3.7032,-3.5875,-3.4916,-3.5045,-3.4471,-3.3419,-3.3389,-3.2577,-3.1292,-3.119,-3.0784,-3.0108,-2.9786,-2.8991,-2.7824,-2.7469,-2.7114,-2.6674,-2.6251,-2.6048,-2.5964,-2.5304,-2.4778,-2.4457,-2.3763,-2.3282,-2.3087,-2.2842,-2.2685,-2.2642,-2.2786,-2.2876,-2.2876,-2.2846,-2.2998,-2.3253,-2.3265,-2.3353,-2.3547,-2.3739,-2.3795,-2.3795,-2.3795,-2.3795,-2.3795,-2.3795,-2.3795,-2.3759,-2.3097,-2.2709,-2.2699,-2.1988,-2.1571,-2.1571,-2.127,-2.0819,-2.0159,-2.0227,-2.0181,-1.9836,-1.993,-2.001,-2.006,-2.0465,-2.0949,-2.1254,-2.1098,-2.1169,-2.1648,-2.1351,-2.1087,-2.1072,-2.0721,-2.0389,-2.0382,-2.0404,-2.039,-2.041,-2.0434,-2.0478,-2.05,-2.0542,-2.0566,-2.0603,-2.0601,-2.0577,-2.0519,-2.0483,-2.043,-2.0377,-2.0299,-2.0271,-2.0258,-2.0229,-2.0134,-2.005,-1.9946,-1.983,-1.9676,-1.9584,-1.9481,-1.9394,-1.9372,-1.9315,-1.9222,-1.906,-1.9049,-1.9084,-1.9185,-1.951,-2.0382,-2.0458,-2.0276,-3.8067,-3.7887,-3.6718,-3.5477,-3.4399,-3.4529,-3.4051,-3.324,-3.3177,-3.2374,-3.1083,-3.1015,-3.0709,-3.0241,-3.0152,-2.9244,-2.7925,-2.7789,-2.7401,-2.6691,-2.6133,-2.5897,-2.5845,-2.5371,-2.4982,-2.4711,-2.4085,-2.3494,-2.3139,-2.2943,-2.2722,-2.2567,-2.2722,-2.2819,-2.2798,-2.2644,-2.262,-2.2875,-2.2913,-2.3012,-2.323,-2.3421,-2.3566,-2.3639,-2.375,-2.375,-2.3667,-2.3732,-2.3782,-2.3753,-2.3066,-2.2532,-2.2335,-2.1575,-2.106,-2.0835,-2.0429,-1.9979,-1.9485,-1.956,-1.965,-1.9645,-1.9811,-2.0032,-2.0322,-2.0842,-2.1426,-2.1941,-2.1784,-2.1995,-2.2521,-2.1996,-2.1567,-2.1573,-2.0871,-2.0366,-2.0379,-2.0544,-2.0733,-2.0753,-2.1086,-2.1104,-2.114,-2.1101,-2.0996,-2.1015,-2.076,-2.0582,-2.0551,-2.0524,-2.0483,-2.0428,-2.0378,-2.032,-2.0307,-2.0285,-2.0237,-2.0176,-2.0079,-1.9967,-1.9797,-1.9701,-1.9605,-1.9513,-1.946,-1.9379,-1.9318,-1.9168,-1.9001,-1.8841,-1.888,-1.9138,-1.9728,-1.9811,-1.9824,-3.7431,-3.7297,-3.6527,-3.5027,-3.3329,-3.3786,-3.35,-3.2641,-3.2608,-3.1818,-3.0638,-3.0539,-3.0502,-3.0427,-3.0197,-2.9261,-2.7976,-2.7874,-2.7452,-2.6759,-2.664,-2.6623,-2.6657,-2.659,-2.6218,-2.5508,-2.4781,-2.3754,-2.2502,-2.2845,-2.3085,-2.3085,-2.3065,-2.3081,-2.2979,-2.2404,-2.2181,-2.2422,-2.2466,-2.2582,-2.2784,-2.2848,-2.3014,-2.3283,-2.356,-2.356,-2.3394,-2.3571,-2.37,-2.3711,-2.2951,-2.2206,-2.1508,-2.0706,-1.9957,-1.9385,-1.9342,-1.9363,-1.9312,-1.9434,-1.9492,-1.9513,-1.9631,-2.0045,-2.0752,-2.1098,-2.184,-2.3275,-2.2684,-2.2487,-2.2611,-2.1924,-2.1453,-2.1455,-2.0738,-2.0319,-2.0386,-2.0965,-2.1439,-2.1649,-2.214,-2.2488,-2.2726,-2.2216,-2.1808,-2.1601,-2.1113,-2.0625,-2.0584,-2.0537,-2.0506,-2.0471,-2.0443,-2.0388,-2.0308,-2.0288,-2.0289,-2.026,-2.0167,-2.0065,-1.9943,-1.9841,-1.9726,-1.9604,-1.9532,-1.9464,-1.9405,-1.9287,-1.9109,-1.8896,-1.8609,-1.8826,-1.9104,-1.9127,-1.917,-3.6333,-3.5492,-3.4726,-3.3932,-3.3209,-3.2962,-3.257,-3.2131,-3.1704,-3.0969,-3.0152,-3.0054,-3.0054,-3.0043,-2.9957,-2.9417,-2.8635,-2.8569,-2.791,-2.681,-2.6674,-2.6623,-2.6623,-2.6606,-2.6488,-2.6152,-2.5395,-2.4506,-2.362,-2.3707,-2.3808,-2.3707,-2.3322,-2.3103,-2.2986,-2.2367,-2.2053,-2.2139,-2.2136,-2.2261,-2.251,-2.2537,-2.2577,-2.2612,-2.2945,-2.3182,-2.3283,-2.3412,-2.3515,-2.3671,-2.2941,-2.215,-2.1316,-2.0074,-1.9273,-1.9028,-1.9016,-1.9049,-1.9074,-1.9204,-1.9297,-1.9312,-1.9438,-1.9876,-2.0656,-2.1276,-2.2051,-2.2882,-2.3082,-2.2973,-2.2782,-2.1982,-2.1306,-2.1268,-2.0691,-2.0225,-2.0396,-2.0949,-2.1457,-2.1683,-2.2372,-2.2963,-2.3055,-2.2744,-2.2387,-2.1902,-2.1554,-2.1168,-2.0723,-2.0584,-2.0542,-2.0513,-2.0499,-2.0456,-2.0381,-2.0326,-2.0292,-2.0292,-2.0233,-2.0167,-2.006,-1.9936,-1.9834,-1.9682,-1.9596,-1.9504,-1.9446,-1.9318,-1.9158,-1.894,-1.8641,-1.8545,-1.8478,-1.8667,-1.8687,-3.5431,-3.437,-3.3633,-3.3153,-3.2837,-3.2399,-3.1946,-3.1502,-3.1053,-3.0332,-2.9589,-2.9461,-2.9461,-2.9461,-2.9461,-2.921,-2.8816,-2.8829,-2.8137,-2.6871,-2.6751,-2.6668,-2.652,-2.6381,-2.6381,-2.6403,-2.5681,-2.4879,-2.4295,-2.4379,-2.4496,-2.4446,-2.3762,-2.3395,-2.3229,-2.2427,-2.1926,-2.1926,-2.194,-2.2013,-2.2203,-2.22,-2.2172,-2.2124,-2.2327,-2.2621,-2.2938,-2.3054,-2.323,-2.3387,-2.2981,-2.2232,-2.1195,-1.9749,-1.8869,-1.8807,-1.8869,-1.8886,-1.8895,-1.9016,-1.9092,-1.9137,-1.9494,-1.9955,-2.0541,-2.1297,-2.2033,-2.2474,-2.2377,-2.2312,-2.2097,-2.1274,-2.0831,-2.1029,-2.0546,-2.0232,-2.0508,-2.1244,-2.2034,-2.278,-2.3388,-2.3737,-2.3755,-2.3538,-2.3054,-2.2291,-2.1983,-2.1485,-2.0778,-2.0565,-2.0566,-2.0543,-2.054,-2.051,-2.0465,-2.0406,-2.0336,-2.0318,-2.0315,-2.023,-2.0161,-2.006,-1.9928,-1.9786,-1.9676,-1.9576,-1.9468,-1.9341,-1.9166,-1.8974,-1.8851,-1.8742,-1.8555,-1.8305,-1.8426,-3.482,-3.4147,-3.3475,-3.2831,-3.229,-3.2121,-3.1578,-3.0828,-3.0651,-2.9848,-2.8826,-2.8724,-2.8732,-2.8709,-2.8748,-2.8556,-2.8419,-2.8539,-2.807,-2.7071,-2.6907,-2.6726,-2.6445,-2.599,-2.5975,-2.6313,-2.5596,-2.4846,-2.4215,-2.4713,-2.4995,-2.4878,-2.4166,-2.3751,-2.3901,-2.254,-2.1796,-2.1811,-2.1811,-2.1811,-2.1796,-2.184,-2.184,-2.1825,-2.1869,-2.1998,-2.2234,-2.2523,-2.2816,-2.3077,-2.3067,-2.2388,-2.0958,-1.9571,-1.8771,-1.8651,-1.8762,-1.886,-1.8869,-1.8895,-1.8913,-1.9002,-1.9684,-2.0133,-2.0448,-2.1116,-2.1671,-2.1721,-2.1178,-2.0637,-2.0543,-2.0025,-1.9977,-2.0772,-2.0269,-2.021,-2.1009,-2.1919,-2.31,-2.4473,-2.4893,-2.5225,-2.5216,-2.4668,-2.3842,-2.2985,-2.2341,-2.1573,-2.0743,-2.0516,-2.0542,-2.0566,-2.0586,-2.0562,-2.0536,-2.0504,-2.0418,-2.0354,-2.0337,-2.0292,-2.0246,-2.0159,-2.005,-1.9896,-1.9744,-1.9637,-1.955,-1.9427,-1.9326,-1.9158,-1.9058,-1.8904,-1.868,-1.8469,-1.8378,-3.4668,-3.4014,-3.3344,-3.2675,-3.2035,-3.1594,-3.0902,-3.0184,-2.9766,-2.9046,-2.8327,-2.822,-2.8204,-2.822,-2.822,-2.817,-2.809,-2.8162,-2.7821,-2.7128,-2.6595,-2.6298,-2.6066,-2.5481,-2.5269,-2.5408,-2.5528,-2.5145,-2.4603,-2.4858,-2.4861,-2.4299,-2.3636,-2.3255,-2.3238,-2.2278,-2.1781,-2.1781,-2.1781,-2.1781,-2.1781,-2.1781,-2.1781,-2.1781,-2.1781,-2.184,-2.194,-2.2195,-2.2514,-2.2807,-2.282,-2.2139,-2.0628,-1.9161,-1.8351,-1.8303,-1.8489,-1.8622,-1.8641,-1.8743,-1.8825,-1.8887,-1.9138,-1.9543,-2.0028,-2.0408,-2.0815,-2.1149,-2.0708,-2.0291,-2.0164,-1.9674,-1.9549,-1.9957,-1.9869,-2.0126,-2.1117,-2.2356,-2.3638,-2.4651,-2.4993,-2.513,-2.5226,-2.4903,-2.4335,-2.3165,-2.2663,-2.2066,-2.0839,-2.048,-2.0513,-2.0538,-2.0564,-2.0605,-2.0565,-2.0539,-2.0482,-2.0422,-2.0383,-2.0347,-2.0299,-2.0253,-2.0139,-2.0012,-1.9855,-1.972,-1.9614,-1.9529,-1.9431,-1.93,-1.9164,-1.9016,-1.8825,-1.8707,-1.8623,-3.4485,-3.3834,-3.3168,-3.2517,-3.1912,-3.1442,-3.0734,-2.9863,-2.9411,-2.8701,-2.7991,-2.784,-2.7855,-2.784,-2.784,-2.7855,-2.7855,-2.784,-2.7527,-2.7043,-2.6747,-2.6346,-2.5934,-2.5219,-2.4803,-2.4779,-2.5173,-2.5234,-2.4906,-2.4845,-2.4709,-2.4315,-2.3404,-2.2924,-2.2824,-2.2178,-2.1781,-2.1781,-2.1781,-2.1781,-2.1781,-2.1781,-2.1781,-2.1781,-2.1781,-2.1781,-2.1812,-2.1969,-2.2195,-2.2367,-2.2138,-2.1199,-1.9934,-1.8775,-1.8058,-1.8033,-1.8191,-1.8358,-1.8361,-1.8545,-1.8677,-1.8722,-1.9027,-1.9288,-1.9627,-1.9752,-2.018,-2.0118,-1.9882,-1.9668,-1.9597,-1.9387,-1.9202,-1.9285,-1.9522,-2.0157,-2.1281,-2.2895,-2.4027,-2.465,-2.4835,-2.4942,-2.5049,-2.5119,-2.4519,-2.323,-2.2842,-2.2287,-2.0978,-2.0457,-2.0479,-2.0499,-2.0516,-2.0563,-2.0586,-2.0566,-2.0542,-2.0505,-2.0453,-2.0398,-2.0349,-2.0324,-2.0234,-2.0081,-1.9933,-1.9809,-1.9713,-1.9642,-1.955,-1.9416,-1.9315,-1.9196,-1.9064,-1.899,-1.8895,-3.433,-3.3623,-3.302,-3.2403,-3.1814,-3.1649,-3.09,-2.9828,-2.9502,-2.8809,-2.7895,-2.767,-2.7625,-2.7585,-2.765,-2.765,-2.7585,-2.761,-2.735,-2.7058,-2.7009,-2.6791,-2.5722,-2.4977,-2.4517,-2.4349,-2.4664,-2.4976,-2.4954,-2.4539,-2.4544,-2.4395,-2.3293,-2.278,-2.2602,-2.2086,-2.1794,-2.178,-2.1727,-2.1676,-2.1723,-2.1736,-2.1783,-2.1781,-2.1781,-2.1781,-2.1796,-2.1825,-2.1926,-2.1995,-2.1118,-2.0118,-1.9182,-1.8459,-1.8073,-1.7862,-1.8003,-1.8127,-1.8173,-1.832,-1.8458,-1.853,-1.9116,-1.9606,-1.8988,-1.9316,-1.9469,-1.9062,-1.893,-1.8859,-1.8914,-1.8941,-1.901,-1.9071,-1.9557,-2.0446,-2.1805,-2.3405,-2.4325,-2.4604,-2.4693,-2.4749,-2.4877,-2.5037,-2.426,-2.3155,-2.2712,-2.2022,-2.0914,-2.036,-2.0426,-2.0462,-2.0451,-2.0511,-2.0539,-2.0563,-2.0527,-2.0544,-2.0511,-2.0467,-2.0411,-2.0366,-2.0305,-2.0145,-2.0017,-1.9925,-1.9828,-1.9757,-1.9676,-1.9596,-1.9499,-1.9402,-1.9312,-1.9238,-1.9148,-3.461,-3.3561,-3.3366,-3.2646,-3.1597,-3.1072,-3.064,-3.0133,-2.925,-2.8727,-2.8289,-2.7809,-2.76,-2.76,-2.76,-2.7585,-2.7585,-2.7585,-2.7555,-2.7385,-2.7455,-2.6505,-2.5114,-2.4277,-2.39,-2.3873,-2.4214,-2.4228,-2.3799,-2.3531,-2.3126,-2.2589,-2.2354,-2.2031,-2.1933,-2.1823,-2.1741,-2.1661,-2.1263,-2.1214,-2.1418,-2.1433,-2.1572,-2.1783,-2.1781,-2.1781,-2.1781,-2.1781,-2.1811,-2.1782,-2.0568,-1.9742,-1.939,-1.8788,-1.8232,-1.7902,-1.826,-1.8433,-1.8063,-1.8093,-1.8191,-1.8184,-1.8537,-1.8502,-1.8328,-1.8467,-1.8583,-1.8497,-1.8573,-1.863,-1.8742,-1.8833,-1.8896,-1.9155,-2.0062,-2.1119,-2.1917,-2.3251,-2.4348,-2.4497,-2.4557,-2.461,-2.4716,-2.466,-2.4162,-2.2928,-2.2409,-2.2077,-2.0723,-2.0299,-2.0369,-2.0357,-2.0377,-2.0438,-2.0481,-2.0507,-2.0537,-2.0585,-2.0566,-2.0542,-2.0474,-2.042,-2.0329,-2.0196,-2.0133,-2.0041,-1.9941,-1.9862,-1.9806,-1.977,-1.9648,-1.9534,-1.9518,-1.9446,-1.9398,-3.4711,-3.3514,-3.3499,-3.2736,-3.1525,-3.1062,-3.0776,-3.0342,-2.9475,-2.9011,-2.8828,-2.8004,-2.7764,-2.7964,-2.7735,-2.76,-2.7585,-2.7585,-2.727,-2.6641,-2.6102,-2.5518,-2.4837,-2.4133,-2.3595,-2.3616,-2.3867,-2.3901,-2.3569,-2.2944,-2.2532,-2.251,-2.1724,-2.1596,-2.2134,-2.1533,-2.147,-2.1534,-2.1125,-2.0909,-2.1071,-2.1087,-2.1277,-2.1526,-2.1586,-2.1631,-2.1751,-2.1781,-2.1665,-2.1265,-2.0505,-1.9929,-1.9584,-1.9217,-1.877,-1.8414,-1.8643,-1.8516,-1.819,-1.8048,-1.7975,-1.799,-1.8044,-1.809,-1.8111,-1.8101,-1.8201,-1.83,-1.832,-1.8448,-1.863,-1.8751,-1.8824,-1.9085,-2.0408,-2.1452,-2.1705,-2.3143,-2.4035,-2.4312,-2.4375,-2.4446,-2.4569,-2.4379,-2.3603,-2.2664,-2.2043,-2.1295,-2.0346,-2.0303,-2.0288,-2.0276,-2.0302,-2.0361,-2.0429,-2.0465,-2.0499,-2.0537,-2.0583,-2.0566,-2.0538,-2.0458,-2.0388,-2.0292,-2.0222,-2.0157,-2.0078,-2.0006,-1.9941,-1.9885,-1.9769,-1.9694,-1.9661,-1.9592,-1.9553,-3.4756,-3.3589,-3.3529,-3.2781,-3.169,-3.1436,-3.1032,-3.0567,-2.9714,-2.943,-2.9262,-2.8169,-2.7884,-2.8442,-2.7794,-2.7585,-2.7585,-2.7585,-2.6956,-2.6078,-2.5211,-2.4822,-2.5345,-2.4163,-2.3655,-2.3595,-2.3595,-2.3815,-2.3691,-2.2841,-2.2867,-2.2994,-2.1873,-2.1784,-2.2347,-2.1641,-2.1272,-2.145,-2.0919,-2.0644,-2.0696,-2.0745,-2.0893,-2.1198,-2.134,-2.1464,-2.1631,-2.169,-2.1459,-2.0811,-2.074,-2.0356,-1.9813,-1.9717,-1.9601,-1.9498,-1.9098,-1.8862,-1.846,-1.8121,-1.785,-1.785,-1.8006,-1.8078,-1.8059,-1.8072,-1.8162,-1.8076,-1.8058,-1.8208,-1.8418,-1.862,-1.8732,-1.9001,-2.017,-2.1151,-2.1759,-2.2982,-2.4036,-2.4154,-2.4192,-2.4294,-2.4141,-2.3806,-2.3127,-2.1981,-2.1513,-2.0957,-2.0302,-2.0093,-2.0122,-2.0208,-2.0236,-2.0304,-2.0369,-2.0416,-2.0459,-2.0499,-2.0534,-2.0544,-2.0544,-2.05,-2.0437,-2.0378,-2.0308,-2.0248,-2.0219,-2.0159,-2.0087,-1.9997,-1.9885,-1.9822,-1.9788,-1.9674,-1.9608,-3.5026,-3.4264,-3.3709,-3.3036,-3.2168,-3.1195,-3.0956,-3.1122,-2.9535,-2.9235,-2.9232,-2.8199,-2.7764,-2.7854,-2.772,-2.7585,-2.7585,-2.757,-2.7375,-2.7151,-2.6363,-2.5749,-2.5435,-2.4223,-2.364,-2.3595,-2.3595,-2.3659,-2.3519,-2.313,-2.2943,-2.3364,-2.2737,-2.2632,-2.3016,-2.2093,-2.1542,-2.1496,-2.0579,-2.0212,-2.0371,-2.0405,-2.0591,-2.0924,-2.1151,-2.1309,-2.1371,-2.1419,-2.1337,-2.1138,-2.0862,-2.0584,-2.0505,-2.047,-2.0243,-1.9929,-2.0042,-1.9694,-1.8766,-1.839,-1.8111,-1.7664,-1.7962,-1.8179,-1.7689,-1.8102,-1.8152,-1.7963,-1.7861,-1.7971,-1.8166,-1.8368,-1.8485,-1.8853,-1.9997,-2.1069,-2.1442,-2.2715,-2.3746,-2.3998,-2.4097,-2.3971,-2.3436,-2.3363,-2.2571,-2.1451,-2.0903,-2.0583,-2.0263,-1.9898,-1.9952,-2.0069,-2.0163,-2.0207,-2.0276,-2.0351,-2.0422,-2.0453,-2.0498,-2.053,-2.0527,-2.0517,-2.0468,-2.0418,-2.0385,-2.0347,-2.0302,-2.0254,-2.0175,-2.0093,-1.9997,-1.9931,-1.9849,-1.9738,-1.9674,-3.51,-3.4444,-3.3769,-3.311,-3.2363,-3.1421,-3.1152,-3.1197,-3.0118,-2.9684,-2.9669,-2.8637,-2.8068,-2.8049,-2.775,-2.7585,-2.7495,-2.7255,-2.73,-2.7151,-2.6372,-2.563,-2.542,-2.4343,-2.3595,-2.361,-2.3595,-2.3595,-2.343,-2.3092,-2.3008,-2.3445,-2.2763,-2.2504,-2.3002,-2.2218,-2.152,-2.1175,-2.0602,-2.0279,-2.0412,-2.0448,-2.0612,-2.0869,-2.0985,-2.0974,-2.0958,-2.0942,-2.0926,-2.0879,-2.0749,-2.0861,-2.1158,-2.1185,-2.0957,-2.0747,-2.0482,-2.0169,-1.922,-1.8581,-1.8103,-1.7456,-1.777,-1.7873,-1.7786,-1.8,-1.8215,-1.8277,-1.8055,-1.7652,-1.7855,-1.8055,-1.8187,-1.8499,-1.9691,-2.0613,-2.0995,-2.2405,-2.3653,-2.3764,-2.385,-2.3551,-2.3189,-2.2746,-2.2099,-2.1005,-2.0324,-2.0023,-2.0018,-1.9738,-1.9792,-1.9899,-2.0031,-2.0124,-2.0184,-2.0276,-2.0366,-2.0415,-2.0477,-2.051,-2.051,-2.0508,-2.0471,-2.044,-2.0418,-2.0378,-2.0349,-2.0312,-2.0299,-2.0262,-2.0163,-2.005,-1.9938,-1.9877,-1.9804,-3.5011,-3.4429,-3.3664,-3.3021,-3.2452,-3.1765,-3.1466,-3.1406,-3.0791,-3.0283,-3.0148,-2.9086,-2.8412,-2.8278,-2.7839,-2.7615,-2.7465,-2.7195,-2.7255,-2.76,-2.6357,-2.5929,-2.5734,-2.5001,-2.4223,-2.3924,-2.3684,-2.3625,-2.346,-2.3161,-2.3295,-2.3505,-2.2832,-2.2966,-2.3032,-2.2269,-2.1739,-2.1335,-2.0692,-2.0498,-2.064,-2.0655,-2.0845,-2.1021,-2.0688,-2.0513,-2.0481,-2.0448,-2.0398,-2.0413,-2.0448,-2.0894,-2.1385,-2.1616,-2.1601,-2.1429,-2.0831,-2.0056,-1.9279,-1.8768,-1.8303,-1.7399,-1.7625,-1.7834,-1.808,-1.8126,-1.845,-1.8618,-1.8509,-1.7819,-1.7747,-1.8193,-1.8212,-1.8415,-1.9438,-2.0213,-2.0688,-2.2165,-2.3106,-2.3387,-2.3257,-2.2929,-2.2406,-2.1881,-2.1268,-2.0643,-1.9978,-1.9543,-1.956,-1.9628,-1.9676,-1.9744,-1.989,-2.005,-2.0124,-2.0179,-2.0272,-2.0358,-2.0437,-2.0496,-2.0511,-2.0492,-2.0469,-2.0479,-2.0458,-2.0427,-2.0387,-2.0366,-2.0352,-2.0392,-2.0325,-2.0167,-2.0093,-2.0036,-1.9941,-3.4608,-3.4399,-3.3185,-3.2602,-3.2422,-3.178,-3.1496,-3.1391,-3.0836,-3.0208,-2.9711,-2.8951,-2.8338,-2.7884,-2.7705,-2.7585,-2.7555,-2.7465,-2.7764,-2.8169,-2.7285,-2.7016,-2.6806,-2.6033,-2.5555,-2.5061,-2.4343,-2.3774,-2.3655,-2.352,-2.3655,-2.4186,-2.4036,-2.4223,-2.4029,-2.349,-2.2373,-2.1739,-2.0921,-2.0528,-2.0699,-2.0868,-2.0918,-2.1063,-2.0508,-2.0126,-2.0037,-2.0004,-2.0004,-2.0004,-2.0022,-2.0263,-2.0599,-2.0763,-2.0763,-2.0781,-2.0622,-2.0004,-1.9024,-1.9237,-1.8509,-1.7738,-1.8045,-1.8539,-1.8539,-1.865,-1.8874,-1.908,-1.9116,-1.8764,-1.8237,-1.8709,-1.8939,-1.9135,-1.9816,-2.0866,-2.1122,-2.1859,-2.2691,-2.2827,-2.2582,-2.2193,-2.1564,-2.1005,-2.0516,-2.0042,-1.9578,-1.9308,-1.932,-1.9423,-1.9562,-1.9637,-1.9744,-1.9912,-2.0074,-2.0116,-2.0179,-2.0269,-2.036,-2.0514,-2.0523,-2.0487,-2.0486,-2.0702,-2.0618,-2.0453,-2.0427,-2.0404,-2.0398,-2.0412,-2.0347,-2.0265,-2.0208,-2.0148,-2.0064,-3.4309,-3.3873,-3.2916,-3.2497,-3.2363,-3.178,-3.1496,-3.1451,-3.1137,-3.0492,-2.9729,-2.922,-2.8543,-2.7824,-2.7585,-2.7585,-2.766,-2.8004,-2.8278,-2.8427,-2.7944,-2.7585,-2.748,-2.6641,-2.6004,-2.551,-2.4926,-2.4403,-2.4096,-2.3729,-2.3879,-2.3954,-2.4088,-2.4133,-2.4044,-2.3482,-2.2577,-2.1874,-2.135,-2.1122,-2.1178,-2.1332,-2.1451,-2.1077,-2.049,-1.996,-1.9617,-1.9518,-1.9482,-1.95,-1.9555,-1.9645,-1.977,-1.9927,-2.0085,-2.0313,-2.0333,-1.9943,-1.9043,-1.9295,-1.8811,-1.7872,-1.8508,-1.8901,-1.8809,-1.8887,-1.9065,-1.9126,-1.9654,-1.952,-1.886,-1.9219,-1.9206,-1.9246,-2.0072,-2.0658,-2.0936,-2.1582,-2.1973,-2.2235,-2.1999,-2.1469,-2.0568,-2.0092,-1.9713,-1.9389,-1.9122,-1.9064,-1.9089,-1.9227,-1.9365,-1.9485,-1.9577,-1.9756,-1.9928,-2.0001,-2.0046,-2.0148,-2.0268,-2.0408,-2.0557,-2.0551,-2.0871,-2.1223,-2.1014,-2.052,-2.0486,-2.0457,-2.0453,-2.0445,-2.0391,-2.033,-2.0308,-2.0255,-2.0177,-3.3815,-3.323,-3.2557,-3.2288,-3.2213,-3.1735,-3.1496,-3.1481,-3.1316,-3.0627,-2.9696,-2.9382,-2.8678,-2.7839,-2.7615,-2.766,-2.7824,-2.8382,-2.8697,-2.8906,-2.8274,-2.7869,-2.7645,-2.6767,-2.6153,-2.6258,-2.5824,-2.5367,-2.4619,-2.4328,-2.4029,-2.4029,-2.3895,-2.3746,-2.3575,-2.3575,-2.2476,-2.2053,-2.1779,-2.2036,-2.191,-2.2013,-2.2069,-2.151,-2.0675,-1.9953,-1.9606,-1.9305,-1.9191,-1.9195,-1.9213,-1.9232,-1.9157,-1.9209,-1.9512,-1.9949,-2.0039,-1.9651,-1.9236,-1.9289,-1.8969,-1.7944,-1.8439,-1.8858,-1.909,-1.9108,-1.9061,-1.9092,-1.9592,-1.998,-1.94,-1.9489,-1.9515,-1.9603,-2.0074,-2.0578,-2.0798,-2.1163,-2.1427,-2.1521,-2.1355,-2.0892,-2.0158,-1.9282,-1.8945,-1.9037,-1.8771,-1.8851,-1.8895,-1.9007,-1.914,-1.9269,-1.9402,-1.9599,-1.9756,-1.9879,-1.9934,-1.9997,-2.0133,-2.0269,-2.0475,-2.0633,-2.0968,-2.1132,-2.0884,-2.0463,-2.0488,-2.0502,-2.0488,-2.0471,-2.0438,-2.0418,-2.039,-2.0378,-2.0322,-3.2691,-3.2557,-3.1899,-3.1615,-3.1572,-3.1453,-3.1467,-3.1363,-3.0841,-3.0253,-2.9384,-2.8981,-2.8312,-2.7733,-2.7609,-2.7923,-2.8356,-2.8648,-2.9044,-2.9394,-2.8791,-2.8576,-2.8939,-2.7989,-2.7176,-2.6956,-2.6637,-2.5779,-2.4984,-2.4999,-2.4843,-2.4462,-2.4708,-2.5103,-2.4407,-2.3896,-2.3362,-2.283,-2.202,-2.1777,-2.214,-2.2217,-2.2131,-2.1752,-2.0872,-2.0069,-1.9822,-1.9439,-1.9116,-1.9116,-1.9116,-1.912,-1.9116,-1.912,-1.9139,-1.9217,-1.9177,-1.8987,-1.8699,-1.9075,-1.9081,-1.8318,-1.8613,-1.9051,-1.9297,-1.9602,-1.9763,-2.0013,-2.0192,-2.0077,-1.9846,-2.0194,-2.0336,-2.0381,-2.0492,-2.0877,-2.1101,-2.094,-2.1161,-2.0907,-2.0794,-2.0501,-1.9965,-1.9007,-1.8229,-1.8378,-1.8508,-1.8576,-1.8678,-1.8771,-1.9164,-1.9374,-1.9277,-1.9412,-1.9579,-1.9701,-1.9792,-1.9849,-1.9981,-2.015,-2.0478,-2.0666,-2.0518,-2.0588,-2.0454,-2.0465,-2.0457,-2.0488,-2.0506,-2.0499,-2.0492,-2.0484,-2.0493,-2.0476,-2.0432,-3.1036,-3.1292,-3.064,-3.0359,-3.0359,-3.0359,-3.0359,-3.0319,-3.0046,-2.9389,-2.8622,-2.8257,-2.7895,-2.7674,-2.7645,-2.8012,-2.8559,-2.8899,-2.8823,-2.8942,-2.859,-2.8464,-2.8125,-2.7507,-2.71,-2.7293,-2.6929,-2.6136,-2.5419,-2.4902,-2.4706,-2.4534,-2.4667,-2.465,-2.4711,-2.4161,-2.3452,-2.2774,-2.2144,-2.2152,-2.2468,-2.2359,-2.209,-2.2032,-2.0796,-2.0239,-1.9943,-1.9478,-1.913,-1.9116,-1.9116,-1.9116,-1.9116,-1.9101,-1.9101,-1.9101,-1.912,-1.9004,-1.8848,-1.9156,-1.8917,-1.8815,-1.9044,-1.9451,-1.9544,-1.9695,-1.9909,-1.9894,-2.0087,-2.009,-1.999,-2.0274,-2.0311,-2.0411,-2.0589,-2.0636,-2.0812,-2.0958,-2.0895,-2.0555,-2.0255,-2.0043,-1.9694,-1.8792,-1.8065,-1.7992,-1.8142,-1.8232,-1.8355,-1.8487,-1.8999,-1.9615,-1.9403,-1.9219,-1.9369,-1.9511,-1.9612,-1.9695,-1.9796,-2.0069,-2.0556,-2.0694,-2.0457,-2.0457,-2.0559,-2.0538,-2.0462,-2.0467,-2.048,-2.0507,-2.0546,-2.0525,-2.0502,-2.0506,-2.0471,-2.9407,-2.9964,-2.9628,-2.9518,-2.9518,-2.9518,-2.9549,-2.9496,-2.9324,-2.8753,-2.8022,-2.774,-2.7622,-2.7566,-2.7567,-2.7797,-2.8455,-2.8941,-2.8603,-2.8199,-2.8034,-2.7954,-2.7584,-2.6955,-2.6788,-2.706,-2.6712,-2.5969,-2.5177,-2.462,-2.4225,-2.4329,-2.4608,-2.4385,-2.42,-2.4053,-2.3627,-2.2651,-2.2411,-2.2564,-2.2804,-2.2338,-2.2098,-2.1627,-2.0886,-2.0103,-2.0001,-1.9464,-1.913,-1.9116,-1.9116,-1.9116,-1.9116,-1.9116,-1.9116,-1.9116,-1.9116,-1.9101,-1.9043,-1.9124,-1.9116,-1.9195,-1.9306,-1.9441,-1.9471,-1.953,-1.9548,-1.9548,-1.9696,-1.9894,-2.0052,-2.0054,-2.0128,-2.0164,-2.0263,-2.0225,-2.0241,-2.0479,-2.0599,-2.035,-2.0067,-1.9838,-1.935,-1.8519,-1.7988,-1.7723,-1.7749,-1.7946,-1.8277,-1.8626,-1.9083,-1.9785,-1.961,-1.9291,-1.9152,-1.9282,-1.9412,-1.9501,-1.9613,-1.9806,-2.0215,-2.0367,-2.0226,-2.0348,-2.0539,-2.0486,-2.0329,-2.0398,-2.0474,-2.0478,-2.0494,-2.0502,-2.0507,-2.0505,-2.0497,-2.8039,-2.8707,-2.9237,-2.9456,-2.9425,-2.9518,-2.9473,-2.9275,-2.8797,-2.8446,-2.8005,-2.7611,-2.7133,-2.7287,-2.7227,-2.7472,-2.8066,-2.8091,-2.8136,-2.8274,-2.8298,-2.7568,-2.7002,-2.6616,-2.6409,-2.591,-2.5869,-2.5439,-2.4664,-2.4104,-2.3932,-2.4099,-2.4383,-2.435,-2.4054,-2.3623,-2.3432,-2.2749,-2.2626,-2.27,-2.2707,-2.2381,-2.2048,-2.1772,-2.0886,-2.0103,-2.0074,-1.9478,-1.9116,-1.9116,-1.9116,-1.9116,-1.9116,-1.9116,-1.9116,-1.9116,-1.9116,-1.9116,-1.9116,-1.9116,-1.9116,-1.9101,-1.9157,-1.9232,-1.925,-1.9176,-1.9157,-1.9199,-1.9365,-1.9457,-1.9621,-1.9732,-1.9821,-1.9892,-1.9927,-1.9912,-1.9947,-2.012,-2.0195,-2.0087,-1.9945,-1.9767,-1.956,-1.8847,-1.8466,-1.8223,-1.8247,-1.8452,-1.9041,-1.9412,-1.9579,-1.9883,-1.9784,-1.9454,-1.9003,-1.9073,-1.935,-1.934,-1.9339,-1.9472,-1.9692,-1.977,-1.9938,-2.0036,-2.0165,-2.0178,-2.0219,-2.0276,-2.0336,-2.0402,-2.0439,-2.0449,-2.0489,-2.0503,-2.0508,-2.7656,-2.7908,-2.8189,-2.8274,-2.8274,-2.8274,-2.8274,-2.8244,-2.8052,-2.7451,-2.6715,-2.5949,-2.5952,-2.656,-2.7053,-2.7395,-2.7939,-2.798,-2.7496,-2.7011,-2.6817,-2.6474,-2.5968,-2.5762,-2.5623,-2.5366,-2.5279,-2.4995,-2.4387,-2.3879,-2.3622,-2.3768,-2.3955,-2.3482,-2.3087,-2.277,-2.2503,-2.2591,-2.2523,-2.2578,-2.2757,-2.2359,-2.2178,-2.2432,-2.0872,-2.0436,-2.0436,-1.9609,-1.9261,-1.9082,-1.9064,-1.9064,-1.9064,-1.9064,-1.9064,-1.9064,-1.9064,-1.9064,-1.9097,-1.9097,-1.9116,-1.9116,-1.9116,-1.9116,-1.9097,-1.9082,-1.9101,-1.9116,-1.9097,-1.9213,-1.9269,-1.9328,-1.9384,-1.9493,-1.9551,-1.957,-1.9642,-1.9767,-1.9856,-1.9748,-1.9838,-1.9816,-1.9607,-1.9327,-1.9021,-1.8773,-1.8848,-1.9029,-1.9613,-2.0103,-2.0228,-2.0261,-2.0195,-1.9848,-1.9389,-1.9345,-1.9362,-1.9253,-1.9127,-1.9232,-1.9376,-1.9543,-1.9682,-1.9743,-1.9855,-1.9957,-2.0046,-2.0112,-2.0207,-2.0307,-2.0362,-2.0396,-2.045,-2.0494,-2.0489,-2.7503,-2.7503,-2.7469,-2.7436,-2.7469,-2.7436,-2.7403,-2.7358,-2.7399,-2.6849,-2.5739,-2.5161,-2.5266,-2.6143,-2.6686,-2.7059,-2.7321,-2.7196,-2.642,-2.6084,-2.5955,-2.5558,-2.5057,-2.4936,-2.5297,-2.5005,-2.4633,-2.4223,-2.3865,-2.3874,-2.3585,-2.3271,-2.3111,-2.2857,-2.234,-2.1757,-2.1599,-2.1874,-2.2184,-2.217,-2.2386,-2.2014,-2.1682,-2.193,-2.0727,-2.0114,-2.0022,-1.9438,-1.9002,-1.8831,-1.8765,-1.8898,-1.8898,-1.8931,-1.8917,-1.8917,-1.8931,-1.8917,-1.895,-1.9045,-1.9097,-1.9116,-1.9064,-1.9059,-1.9059,-1.9026,-1.8988,-1.9059,-1.9059,-1.9078,-1.9078,-1.912,-1.9134,-1.9246,-1.9161,-1.9161,-1.9217,-1.931,-1.9417,-1.9442,-1.9543,-1.9597,-1.9767,-1.9566,-1.9357,-1.9235,-1.9446,-1.969,-2.0179,-2.0565,-2.079,-2.0793,-2.0725,-2.0314,-1.9899,-1.9647,-1.9406,-1.933,-1.9201,-1.9051,-1.9159,-1.9306,-1.9465,-1.9606,-1.9707,-1.9775,-1.9838,-1.9922,-2.0071,-2.0239,-2.0292,-2.0352,-2.0376,-2.041,-2.0443,-2.7477,-2.749,-2.731,-2.7276,-2.7268,-2.7302,-2.7201,-2.7066,-2.6984,-2.6618,-2.6013,-2.5733,-2.5668,-2.5912,-2.6205,-2.6438,-2.643,-2.6059,-2.5567,-2.5486,-2.5507,-2.5227,-2.5075,-2.5033,-2.4957,-2.4224,-2.4102,-2.3966,-2.3228,-2.3594,-2.3381,-2.3195,-2.3149,-2.2775,-2.2221,-2.1656,-2.1396,-2.1489,-2.1874,-2.1789,-2.1665,-2.1457,-2.1268,-2.096,-2.047,-1.9879,-1.9475,-1.9174,-1.8693,-1.8236,-1.8364,-1.8461,-1.8495,-1.8495,-1.8514,-1.8514,-1.8514,-1.8514,-1.8519,-1.8874,-1.8969,-1.9026,-1.8988,-1.8941,-1.896,-1.8908,-1.8855,-1.8927,-1.8922,-1.8984,-1.9003,-1.9021,-1.8998,-1.8965,-1.8893,-1.8893,-1.895,-1.8988,-1.9101,-1.9176,-1.9195,-1.9258,-1.9624,-1.9782,-1.9622,-1.9654,-1.9974,-2.0311,-2.0623,-2.0869,-2.104,-2.1158,-2.1076,-2.0707,-2.0249,-1.9727,-1.9462,-1.9391,-1.9267,-1.9092,-1.8985,-1.904,-1.9214,-1.9422,-1.9485,-1.9499,-1.9593,-1.9713,-1.9887,-2.0058,-2.0212,-2.0292,-2.0307,-2.0327,-2.0386,-2.6845,-2.7142,-2.6747,-2.6699,-2.6892,-2.7045,-2.7045,-2.6913,-2.6467,-2.5963,-2.553,-2.5259,-2.5194,-2.525,-2.5388,-2.5611,-2.5749,-2.5335,-2.4996,-2.4619,-2.4895,-2.4695,-2.4607,-2.4732,-2.4707,-2.4305,-2.4205,-2.3916,-2.315,-2.3684,-2.3904,-2.3778,-2.3376,-2.2597,-2.1836,-2.1237,-2.0926,-2.0913,-2.108,-2.1188,-2.1342,-2.1322,-2.1199,-2.0945,-2.0275,-1.9702,-1.916,-1.885,-1.8256,-1.7794,-1.7968,-1.8028,-1.8028,-1.8028,-1.8028,-1.8028,-1.8028,-1.8022,-1.7968,-1.8114,-1.8408,-1.8655,-1.8741,-1.8659,-1.8884,-1.8539,-1.8577,-1.8649,-1.85,-1.8597,-1.8784,-1.8841,-1.8855,-1.8855,-1.8822,-1.8822,-1.886,-1.8874,-1.8912,-1.895,-1.8969,-1.9157,-1.9457,-1.953,-1.944,-1.9492,-1.9725,-2.0209,-2.0575,-2.0844,-2.1064,-2.1324,-2.1321,-2.101,-2.0621,-2.0075,-1.955,-1.9353,-1.9203,-1.9048,-1.8945,-1.8859,-1.8913,-1.9079,-1.9151,-1.9222,-1.9361,-1.9515,-1.9682,-1.9852,-2.0031,-2.0175,-2.0211,-2.0244,-2.032,-2.6429,-2.6652,-2.6081,-2.6059,-2.6456,-2.6752,-2.6875,-2.6693,-2.6109,-2.5595,-2.5272,-2.4965,-2.4845,-2.4845,-2.4858,-2.4933,-2.5259,-2.477,-2.4456,-2.4054,-2.4343,-2.4443,-2.4469,-2.4431,-2.4494,-2.428,-2.4073,-2.3785,-2.3509,-2.4349,-2.4669,-2.4481,-2.3935,-2.3218,-2.2257,-2.142,-2.0855,-2.0953,-2.1134,-2.1039,-2.1177,-2.1209,-2.1166,-2.0735,-2.0239,-1.9701,-1.9136,-1.8525,-1.791,-1.7621,-1.7496,-1.7578,-1.7578,-1.7544,-1.7544,-1.751,-1.7462,-1.7523,-1.7592,-1.7387,-1.776,-1.8316,-1.8133,-1.8127,-1.8299,-1.7954,-1.7994,-1.802,-1.7947,-1.808,-1.8291,-1.8389,-1.8461,-1.8461,-1.8553,-1.8553,-1.8481,-1.8475,-1.8683,-1.8721,-1.8784,-1.903,-1.9161,-1.918,-1.9145,-1.9269,-1.9441,-1.9914,-2.0378,-2.0598,-2.0812,-2.1007,-2.1228,-2.0981,-2.0698,-2.0379,-1.9882,-1.9372,-1.9156,-1.8984,-1.8797,-1.8688,-1.8715,-1.8734,-1.8886,-1.903,-1.918,-1.9328,-1.9508,-1.967,-1.9813,-1.9958,-2.0081,-2.0137,-2.0177,-2.614,-2.6089,-2.539,-2.5389,-2.5902,-2.6325,-2.651,-2.6471,-2.5921,-2.5644,-2.5485,-2.4958,-2.4738,-2.4745,-2.4732,-2.4687,-2.4713,-2.4268,-2.4029,-2.3966,-2.4067,-2.4293,-2.4418,-2.4356,-2.4406,-2.428,-2.4123,-2.4048,-2.4017,-2.4368,-2.4858,-2.5197,-2.4657,-2.3941,-2.2937,-2.1823,-2.1224,-2.1223,-2.113,-2.099,-2.0952,-2.1017,-2.0694,-2.0295,-1.9997,-1.9429,-1.8889,-1.8393,-1.7733,-1.7286,-1.6947,-1.7094,-1.7136,-1.7047,-1.6993,-1.693,-1.6858,-1.7034,-1.7146,-1.6888,-1.6951,-1.734,-1.7312,-1.7271,-1.7366,-1.7387,-1.74,-1.7449,-1.7415,-1.7456,-1.7558,-1.7693,-1.7828,-1.7962,-1.8082,-1.8042,-1.7962,-1.8082,-1.8352,-1.8489,-1.8572,-1.8674,-1.8702,-1.8721,-1.8803,-1.8917,-1.9035,-1.9188,-1.9627,-2.0067,-2.0243,-2.0364,-2.0582,-2.0812,-2.0607,-2.0336,-2.0119,-1.9573,-1.914,-1.8912,-1.8733,-1.8499,-1.8418,-1.8442,-1.8668,-1.8834,-1.8996,-1.9165,-1.9365,-1.9492,-1.9501,-1.9725,-1.9844,-1.9912,-1.9982,-2.5082,-2.5651,-2.4747,-2.4608,-2.5099,-2.5287,-2.5757,-2.6399,-2.6285,-2.5871,-2.5034,-2.4863,-2.4607,-2.423,-2.3785,-2.391,-2.4054,-2.4042,-2.3728,-2.369,-2.3866,-2.4054,-2.4243,-2.4406,-2.4406,-2.4456,-2.4406,-2.4136,-2.3647,-2.3985,-2.482,-2.5322,-2.4707,-2.4224,-2.354,-2.2284,-2.1769,-2.1373,-2.121,-2.0889,-2.0619,-2.0574,-2.0192,-1.9978,-1.9661,-1.9092,-1.8546,-1.8063,-1.7422,-1.6806,-1.6641,-1.6693,-1.6629,-1.6586,-1.6565,-1.6436,-1.6315,-1.6303,-1.6389,-1.6216,-1.6207,-1.6367,-1.6346,-1.6761,-1.693,-1.6972,-1.685,-1.6879,-1.6879,-1.69,-1.7068,-1.7214,-1.7256,-1.7318,-1.7496,-1.7578,-1.7516,-1.7598,-1.7875,-1.7942,-1.8028,-1.8167,-1.8195,-1.8333,-1.8431,-1.8523,-1.8639,-1.8726,-1.8993,-1.9442,-1.9699,-1.9841,-2.0,-2.0243,-2.0309,-2.0128,-2.0002,-1.9782,-1.9314,-1.8847,-1.8549,-1.8306,-1.8116,-1.812,-1.8304,-1.8548,-1.8816,-1.8981,-1.9111,-1.9031,-1.9064,-1.935,-1.958,-1.9651,-1.9744,-2.4368,-2.482,-2.4029,-2.3948,-2.4481,-2.472,-2.5247,-2.5762,-2.5812,-2.5385,-2.4813,-2.4537,-2.4318,-2.3979,-2.3459,-2.3346,-2.3653,-2.3916,-2.3841,-2.3791,-2.3816,-2.4142,-2.4381,-2.4393,-2.4243,-2.4368,-2.4431,-2.4268,-2.3697,-2.3973,-2.4795,-2.5096,-2.4368,-2.428,-2.3816,-2.2761,-2.197,-2.1568,-2.1219,-2.0817,-2.0528,-2.0327,-2.0112,-1.9773,-1.9422,-1.8945,-1.8279,-1.7802,-1.7325,-1.6629,-1.6491,-1.647,-1.6371,-1.634,-1.6188,-1.6078,-1.6001,-1.5979,-1.6001,-1.5901,-1.5836,-1.5814,-1.5814,-1.612,-1.6324,-1.638,-1.6402,-1.6445,-1.6349,-1.6328,-1.6586,-1.6778,-1.6701,-1.6637,-1.6871,-1.7094,-1.7136,-1.7136,-1.722,-1.7269,-1.7413,-1.7564,-1.772,-1.7902,-1.8055,-1.8135,-1.8254,-1.8392,-1.863,-1.9011,-1.9221,-1.9317,-1.9497,-1.9711,-1.9762,-1.9869,-1.9823,-1.9641,-1.9306,-1.8858,-1.8468,-1.8084,-1.7854,-1.7838,-1.7899,-1.8153,-1.8387,-1.8651,-1.878,-1.8697,-1.8678,-1.8903,-1.9162,-1.9342,-1.9441,-2.3966,-2.3991,-2.3358,-2.3434,-2.3966,-2.4374,-2.4612,-2.4662,-2.465,-2.4687,-2.4607,-2.423,-2.3991,-2.374,-2.3308,-2.312,-2.3409,-2.374,-2.3979,-2.3991,-2.3954,-2.4205,-2.4443,-2.4305,-2.4117,-2.4029,-2.4004,-2.4079,-2.4067,-2.4111,-2.4286,-2.4675,-2.4155,-2.3954,-2.3853,-2.2698,-2.1958,-2.1757,-2.1106,-2.0528,-2.0629,-2.0566,-2.039,-1.9899,-1.9623,-1.9309,-1.8505,-1.8003,-1.7666,-1.6892,-1.6436,-1.6426,-1.6262,-1.6132,-1.5969,-1.5903,-1.5859,-1.5836,-1.5836,-1.5814,-1.5814,-1.5814,-1.5814,-1.5891,-1.6001,-1.6044,-1.6088,-1.6088,-1.6022,-1.6013,-1.6197,-1.6328,-1.6306,-1.6306,-1.6457,-1.6543,-1.6543,-1.6607,-1.6693,-1.6786,-1.6955,-1.7102,-1.7206,-1.7372,-1.7652,-1.772,-1.7801,-1.7942,-1.824,-1.8572,-1.8726,-1.8846,-1.903,-1.9213,-1.9362,-1.9453,-1.9548,-1.9405,-1.9215,-1.8997,-1.8656,-1.8155,-1.7569,-1.7513,-1.7481,-1.767,-1.7896,-1.8104,-1.8265,-1.8353,-1.8363,-1.8508,-1.8708,-1.89,-1.9089,-2.3572,-2.3941,-2.3346,-2.3195,-2.3321,-2.3446,-2.3534,-2.3509,-2.3509,-2.3785,-2.4117,-2.4029,-2.374,-2.3346,-2.3221,-2.3095,-2.3233,-2.3672,-2.3941,-2.4042,-2.4054,-2.4356,-2.4644,-2.4343,-2.4042,-2.3991,-2.3941,-2.3753,-2.3609,-2.3634,-2.3747,-2.4067,-2.3602,-2.3358,-2.3703,-2.2485,-2.1769,-2.1719,-2.0865,-2.0415,-2.0541,-2.0239,-1.9886,-1.9798,-1.9685,-1.9196,-1.853,-1.8129,-1.7501,-1.6717,-1.6485,-1.6306,-1.6098,-1.5935,-1.5836,-1.5814,-1.5814,-1.5814,-1.577,-1.577,-1.5748,-1.577,-1.5792,-1.5792,-1.5814,-1.5814,-1.5814,-1.5814,-1.5814,-1.5814,-1.5836,-1.5925,-1.5991,-1.6013,-1.6022,-1.6022,-1.6013,-1.6088,-1.6197,-1.6349,-1.6522,-1.6629,-1.6714,-1.6905,-1.7178,-1.7303,-1.7331,-1.7475,-1.776,-1.8048,-1.824,-1.8378,-1.8581,-1.8755,-1.8927,-1.9082,-1.9195,-1.9402,-1.9349,-1.9125,-1.8812,-1.8068,-1.7345,-1.7109,-1.7048,-1.7251,-1.737,-1.741,-1.7573,-1.781,-1.7909,-1.7973,-1.8128,-1.8321,-1.8589,-2.3283,-2.3534,-2.3246,-2.3095,-2.3095,-2.3095,-2.3095,-2.3095,-2.3095,-2.3283,-2.3559,-2.3602,-2.3396,-2.3108,-2.3108,-2.3095,-2.3208,-2.3753,-2.4155,-2.4305,-2.4305,-2.4544,-2.4569,-2.4481,-2.3954,-2.3803,-2.3634,-2.3434,-2.3346,-2.292,-2.297,-2.3175,-2.2769,-2.2681,-2.3062,-2.2096,-2.1481,-2.1455,-2.0552,-2.0314,-2.039,-1.9987,-1.9798,-1.9798,-1.9472,-1.8982,-1.8455,-1.799,-1.7325,-1.6707,-1.6396,-1.6154,-1.5979,-1.5846,-1.5814,-1.5814,-1.5814,-1.5814,-1.5748,-1.5681,-1.5659,-1.5681,-1.5547,-1.548,-1.5792,-1.5814,-1.5814,-1.5814,-1.5814,-1.5814,-1.5814,-1.5881,-1.5881,-1.5903,-1.5903,-1.5903,-1.5903,-1.5925,-1.5991,-1.6035,-1.6132,-1.6154,-1.6219,-1.6241,-1.6543,-1.6842,-1.6871,-1.7081,-1.7352,-1.7544,-1.772,-1.7935,-1.8169,-1.842,-1.8659,-1.8793,-1.8855,-1.9101,-1.9347,-1.8797,-1.8253,-1.7653,-1.7124,-1.6733,-1.6604,-1.6837,-1.6942,-1.698,-1.7093,-1.7356,-1.7392,-1.7408,-1.7584,-1.776,-1.7967,-2.2995,-2.3007,-2.307,-2.3058,-2.302,-2.3083,-2.3095,-2.3095,-2.3095,-2.3095,-2.3158,-2.3158,-2.3095,-2.3095,-2.3095,-2.3095,-2.3221,-2.3521,-2.4048,-2.4469,-2.4537,-2.477,-2.4858,-2.4782,-2.4192,-2.3534,-2.3183,-2.3452,-2.364,-2.2849,-2.2209,-2.2159,-2.2033,-2.187,-2.2008,-2.182,-2.1481,-2.1292,-2.0779,-2.025,-2.0012,-1.9798,-1.9798,-1.9623,-1.9321,-1.8783,-1.8243,-1.7718,-1.7167,-1.6642,-1.6241,-1.6057,-1.5925,-1.5814,-1.5814,-1.5814,-1.5814,-1.5814,-1.5748,-1.5536,-1.5536,-1.5491,-1.5221,-1.5244,-1.5558,-1.558,-1.558,-1.5603,-1.5603,-1.577,-1.577,-1.5792,-1.5792,-1.577,-1.577,-1.577,-1.577,-1.5748,-1.5726,-1.5726,-1.5814,-1.5836,-1.5836,-1.5836,-1.6001,-1.6306,-1.6522,-1.6757,-1.6955,-1.7081,-1.7227,-1.7496,-1.7774,-1.8055,-1.8313,-1.8523,-1.86,-1.8779,-1.891,-1.8295,-1.7724,-1.7235,-1.6728,-1.6182,-1.615,-1.6423,-1.6583,-1.6633,-1.6789,-1.693,-1.6993,-1.7055,-1.7216,-1.7356,-1.7368,-2.2431,-2.2481,-2.2907,-2.2857,-2.2556,-2.292,-2.3095,-2.3095,-2.3095,-2.3095,-2.3095,-2.3095,-2.3095,-2.3095,-2.3095,-2.3095,-2.3133,-2.3346,-2.3665,-2.4067,-2.4368,-2.4795,-2.4958,-2.4669,-2.4381,-2.3778,-2.3083,-2.2857,-2.3263,-2.2385,-2.1857,-2.2121,-2.2221,-2.2121,-2.2096,-2.1845,-2.1518,-2.1292,-2.0727,-2.01,-1.991,-1.9798,-1.9798,-1.9684,-1.9582,-1.8884,-1.8274,-1.7856,-1.7165,-1.6542,-1.6088,-1.5925,-1.5792,-1.5703,-1.5703,-1.5726,-1.5726,-1.5748,-1.5625,-1.5446,-1.5424,-1.5153,-1.4926,-1.48,-1.4915,-1.4766,-1.4812,-1.4903,-1.504,-1.5536,-1.5625,-1.5669,-1.5691,-1.5637,-1.5614,-1.5637,-1.5637,-1.5503,-1.5413,-1.557,-1.577,-1.5792,-1.5814,-1.5814,-1.5836,-1.6022,-1.6044,-1.6284,-1.6543,-1.6659,-1.6765,-1.7018,-1.731,-1.7618,-1.7861,-1.8228,-1.8386,-1.8562,-1.8503,-1.7967,-1.7424,-1.6933,-1.6395,-1.5832,-1.5784,-1.6011,-1.6151,-1.6274,-1.6436,-1.6554,-1.6646,-1.6738,-1.6879,-1.6968,-1.6993]},{"header":{"parameterUnit":"m.s-1","parameterCategory":1,"la1":31.0,"la2":29.5877,"lo1":-88.7671,"lo2":-86.6584,"dy":0.0162,"dx":0.0185,"nx":115,"ny":88,"refTime":"2023-04-16T18:00:00:Z","depth":0,"parameterNumber":3,"parameterNumberName":"V-component_of_WINDS"},"data":[0.0,0.0,0.0,0.0,0.0,0.0,0.0,0.0,0.0,0.0,0.0,0.0,0.0,0.0,0.0,0.0,0.0,0.0,0.0,0.0,0.0,0.0,0.0,0.0,0.0,0.0,0.0,0.0,0.0,0.0,0.0,0.0,0.0,0.0,0.0,0.0,0.0,0.0,0.0,0.0,0.0,0.0,0.0,0.0,0.0,0.0,0.0,0.0,0.0,0.0,0.0,0.0,0.0,0.0,0.0,0.0,0.0,0.0,0.0,0.0,0.0,0.0,0.0,0.0,0.0,0.0,0.0,0.0,0.0,0.0,0.0,0.0,0.0,0.0,0.0,0.0,0.0,0.0,0.0,0.0,0.0,0.0,0.0,0.0,0.0,0.0,0.0,0.0,0.0,0.0,0.0,0.0,0.0,0.0,0.0,0.0,0.0,0.0,0.0,0.0,0.0,0.0,0.0,0.0,0.0,0.0,0.0,0.0,0.0,0.0,0.0,0.0,0.0,0.0,0.0,0.0,0.0,0.0,0.0,0.0,0.0,0.0,0.0,0.0,0.0,0.0,0.0,0.0,0.0,0.0,0.0,0.0,0.0,0.0,0.0,0.0,0.0,0.0,0.0,0.0,0.0,0.0,0.0,0.0,0.0,0.0,0.0,0.0,0.0,0.0,0.0,0.0,0.0,0.0,0.0,0.0,0.0,0.0,0.0,0.0,0.0,0.0,0.0,0.0,0.0,0.0,0.0,0.0,0.0,0.0,0.0,0.0,0.0,0.0,0.0,0.0,0.0,0.0,0.0,0.0,0.0,0.0,0.0,0.0,0.0,0.0,0.0,0.0,0.0,0.0,0.0,0.0,0.0,0.0,0.0,0.0,0.0,0.0,0.0,0.0,0.0,0.0,0.0,0.0,0.0,0.0,0.0,0.0,0.0,0.0,0.0,0.0,0.0,0.0,0.0,0.0,0.0,0.0,0.0,0.0,0.0,0.0,0.0,0.0,0.0,0.0,0.0,0.0,0.0,0.0,0.0,0.0,0.0,0.0,0.0,0.0,0.0,0.0,0.0,0.0,0.0,0.0,0.0,0.0,0.0,0.0,0.0,0.0,0.0,0.0,0.0,0.0,0.0,0.0,0.0,0.0,0.0,0.0,0.0,0.0,0.0,0.0,0.0,0.0,0.0,0.0,0.0,0.0,0.0,0.0,0.0,0.0,0.0,0.0,0.0,0.0,0.0,0.0,0.0,0.0,0.0,0.0,0.0,0.0,0.0,0.0,0.0,0.0,0.0,0.0,0.0,0.0,0.0,0.0,0.0,0.0,0.0,0.0,0.0,0.0,0.0,0.0,0.0,0.0,0.0,0.0,0.0,0.0,0.0,0.0,0.0,0.0,0.0,0.0,0.0,0.0,0.0,0.0,0.0,0.0,0.0,0.0,0.0,0.0,0.0,0.0,0.0,0.0,0.0,0.0,0.0,0.0,0.0,0.0,0.0,0.0,0.0,0.0,0.0,0.0,0.0,0.0,0.0,0.0,0.0,0.0,0.0,0.0,0.0,0.0,0.0,0.0,0.0,0.0,0.0,0.0,0.0,0.0,0.0,0.0,0.0,0.0,0.0,0.0,0.0,0.0,0.0,0.0,0.0,0.0,0.0,0.0,0.0,0.0,0.0,0.0,0.0,0.0,0.0,0.0,0.0,0.0,0.0,0.0,0.0,0.0,0.0,0.0,0.0,0.0,0.0,0.0,0.0,0.0,0.0,0.0,0.0,0.0,0.0,0.0,0.0,0.0,0.0,0.0,0.0,0.0,0.0,0.0,0.0,0.0,0.0,0.0,0.0,0.0,0.0,0.0,0.0,0.0,0.0,0.0,0.0,0.0,0.0,0.0,0.0,0.0,0.0,0.0,0.0,0.0,0.0,0.0,0.0,0.0,0.0,0.0,0.0,0.0,0.0,0.0,0.0,0.0,0.0,0.0,0.0,0.0,0.0,0.0,0.0,0.0,0.0,0.0,0.0,0.0,0.0,0.0,0.0,0.0,0.0,0.0,0.0,0.0,0.0,0.0,0.0,0.0,0.0,0.0,0.0,0.0,0.0,0.0,0.0,0.0,0.0,0.0,0.0,0.0,0.0,0.0,0.0,0.0,0.0,0.0,0.0,0.0,0.0,0.0,0.0,0.0,0.0,0.0,0.0,0.0,0.0,0.0,0.0,0.0,0.0,0.0,0.0,0.0,0.0,0.0,0.0,0.0,0.0,0.0,0.0,0.0,0.0,0.0,0.0,0.0,0.0,0.0,0.0,0.0,0.0,0.0,0.0,0.0,0.0,0.0,0.0,0.0,0.0,0.0,0.0,0.0,0.0,0.0,0.0,0.0,0.0,0.0,0.0,0.0,0.0,0.0,0.0,0.0,0.0,0.0,0.0,0.0,0.0,0.0,0.0,0.0,0.0,0.0,0.0,0.0,0.0,0.0,0.0,0.0,0.0,0.0,0.0,0.0,0.0,0.0,0.0,0.0,0.0,0.0,0.0,0.0,0.0,0.0,0.0,0.0,0.0,0.0,0.0,0.0,0.0,0.0,0.0,0.0,0.0,0.0,0.0,0.0,0.0,0.0,0.0,0.0,0.0,0.0,0.0,0.0,0.0,0.0,0.0,0.0,0.0,0.0,0.0,0.0,0.0,0.0,0.0,0.0,0.0,0.0,0.0,0.0,0.0,0.0,0.0,0.0,0.0,0.0,0.0,0.0,0.0,0.0,0.0,0.0,0.0,0.0,0.0,0.0,0.0,0.0,0.0,0.0,0.0,0.0,0.0,0.0,0.0,0.0,0.0,0.0,0.0,0.0,0.0,0.0,0.0,0.0,0.0,0.0,0.0,0.0,0.0,0.0,0.0,0.0,0.0,0.0,0.0,0.0,0.0,0.0,0.0,0.0,0.0,0.0,0.0,0.0,0.0,0.0,0.0,0.0,0.0,0.0,0.0,0.0,0.0,0.0,0.0,0.0,0.0,0.0,0.0,0.0,0.0,0.0,0.0,0.0,0.0,0.0,0.0,0.0,0.0,0.0,0.0,0.0,0.0,0.0,0.0,0.0,0.0,0.0,0.0,0.0,0.0,0.0,0.0,0.0,0.0,0.0,0.0,0.0,0.0,0.0,0.0,0.0,0.0,0.0,0.0,0.0,0.0,0.0,0.0,0.0,0.0,0.0,0.0,0.0,0.0,0.0,0.0,0.0,0.0,0.0,0.0,0.0,0.0,0.0,0.0,0.0,0.0,0.0,0.0,0.0,0.0,0.0,0.0,0.0,0.0,0.0,0.0,0.0,0.0,0.0,0.0,0.0,0.0,0.0,0.0,0.0,0.0,0.0,0.0,0.0,0.0,0.0,0.0,0.0,0.0,0.0,0.0,0.0,0.0,0.0,0.0,0.0,0.0,0.0,0.0,0.0,0.0,0.0,0.0,0.0,0.0,0.0,0.0,0.0,0.0,0.0,0.0,0.0,0.0,0.0,0.0,0.0,0.0,0.0,0.0,0.0,0.0,0.0,0.0,0.0,0.0,0.0,0.0,0.0,0.0,0.0,0.0,0.0,0.0,0.0,0.0,0.0,0.0,0.0,0.0,0.0,0.0,0.0,0.0,0.0,0.0,0.0,0.0,0.0,0.0,0.0,0.0,0.0,0.0,0.0,0.0,0.0,0.0,0.0,0.0,0.0,0.0,0.0,0.0,0.0,0.0,0.0,0.0,0.0,0.0,0.0,0.0,0.0,0.0,0.0,0.0,0.0,0.0,0.0,0.0,0.0,0.0,0.0,0.0,0.0,0.0,0.0,0.0,0.0,0.0,0.0,0.0,0.0,0.0,0.0,0.0,0.0,0.0,0.0,0.0,0.0,0.0,0.0,0.0,0.0,0.0,0.0,0.0,0.0,0.0,0.0,0.0,0.0,0.0,0.0,0.0,0.0,0.0,0.0,0.0,0.0,0.0,0.0,0.0,0.0,0.0,0.0,0.0,0.0,0.0,0.0,0.0,0.0,0.0,0.0,0.0,0.0,0.0,0.0,0.0,0.0,0.0,0.0,0.0,0.0,0.0,0.0,0.0,0.0,0.0,0.0,0.0,0.0,0.0,0.0,0.0,0.0,0.0,0.0,0.0,0.0,0.0,0.0,0.0,0.0,0.0,0.0,0.0,0.0,0.0,0.0,0.0,0.0,0.0,0.0,0.0,0.0,0.0,0.0,0.0,0.0,0.0,0.0,0.0,0.0,0.0,0.0,0.0,0.0,0.0,0.0,-0.4262,0.0,0.0,0.0,0.0,0.0,0.0,0.0,0.0,0.0,0.0,0.0,0.0,0.0,0.0,0.0,0.0,0.0,0.0,0.0,0.0,0.0,0.0,0.0,0.0,0.0,0.0,0.0,0.0,0.0,0.0,0.0,0.0,0.0,0.0,0.0,0.0,0.0,0.0,0.0,0.0,0.0,0.0,0.0,0.0,0.0,0.0,0.0,0.0,0.0,0.0,0.0,0.0,0.0,0.0,0.0,0.0,0.0,0.0,0.0,0.0,0.0,0.0,0.0,0.0,0.0,0.0,0.0,0.0,0.0,0.0,0.0,0.0,0.0,0.0,0.0,0.0,0.0,0.0,0.0,0.0,0.0,0.0,0.0,0.0,0.0,0.0,0.0,0.0,0.0,0.0,0.0,0.0,0.0,0.0,0.0,0.0,0.0,0.0,0.0,0.0,0.0,0.0,0.0,0.0,0.0,0.0,0.0,0.0,0.0,0.0,-0.3668,-0.3879,-0.4198,-0.4356,-0.4311,0.0,0.0,0.0,0.0,0.0,0.0,0.0,0.0,0.0,0.0,0.0,0.0,0.0,0.0,0.0,0.0,0.0,0.0,0.0,0.0,0.0,0.0,0.0,0.0,0.0,0.0,0.0,0.0,0.0,0.0,0.0,0.0,0.0,0.0,0.0,0.0,0.0,0.0,0.0,0.0,0.0,0.0,0.0,0.0,0.0,0.0,0.0,0.0,0.0,0.0,0.0,0.0,0.0,0.0,0.0,0.0,0.0,0.0,0.0,0.0,0.0,0.0,0.0,0.0,0.0,0.0,0.0,0.0,0.0,0.0,0.0,0.0,0.0,0.0,0.0,0.0,0.0,0.0,0.0,0.0,0.0,0.0,0.0,0.0,0.0,0.0,0.0,0.0,0.0,0.0,0.0,0.0,0.0,0.0,0.0,0.0,0.0,0.0,0.0,0.0,0.0,0.0,0.0,0.0,0.0,0.0,0.0,0.0,0.0,0.0,0.0,0.0,-0.436,-0.4572,-0.47,0.0,0.0,0.0,0.0,0.0,0.0,0.0,0.0,0.0,0.0,0.0,0.0,0.0,0.0,0.0,0.0,0.0,0.0,0.0,0.0,0.0,0.0,0.0,0.0,0.0,0.0,0.0,0.0,0.0,0.0,0.0,0.0,0.0,0.0,0.0,0.0,0.0,0.0,0.0,0.0,0.0,0.0,0.0,0.0,0.0,0.0,0.0,0.0,0.0,0.0,0.0,0.0,0.0,0.0,0.0,0.0,0.0,0.0,0.0,0.0,0.0,0.0,0.0,0.0,0.0,0.0,0.0,0.0,0.0,0.0,0.0,0.0,0.0,0.0,0.0,0.0,0.0,0.0,0.0,0.0,0.0,0.0,0.0,0.0,0.0,0.0,0.0,0.0,0.0,0.0,0.0,0.0,0.0,0.0,0.0,0.0,0.0,0.0,0.0,0.0,0.0,0.0,0.0,0.0,0.0,0.0,0.0,0.0,0.0,0.0,-0.3974,-0.4591,-0.4885,0.0,-0.5483,0.0,0.0,0.0,0.0,0.0,0.0,0.0,0.0,0.0,0.0,0.0,0.0,0.0,0.0,0.0,0.0,0.0,0.0,0.0,0.0,0.0,0.0,0.0,0.0,0.0,0.0,0.0,0.0,0.0,0.0,0.0,0.0,0.0,0.0,0.0,0.0,0.0,0.0,0.0,0.0,0.0,0.0,0.0,0.0,0.0,0.0,0.0,0.0,0.0,0.0,0.0,0.0,0.0,0.0,0.0,0.0,0.0,0.0,0.0,0.0,0.0,0.0,0.0,0.0,0.0,0.0,0.0,0.0,0.0,0.0,0.0,0.0,0.0,0.0,0.0,0.0,0.0,0.0,0.0,0.0,0.0,0.0,0.0,0.0,0.0,0.0,0.0,0.0,0.0,0.0,0.0,0.0,0.0,0.0,0.0,0.0,0.0,0.0,0.0,0.0,0.0,0.0,0.0,0.0,0.0,0.0,0.0,0.0,0.0,0.0,-0.3975,-0.4677,-0.4968,-0.5206,0.0,0.0,0.0,0.0,0.0,0.0,0.0,0.0,0.0,0.0,0.0,0.0,0.0,0.0,0.0,0.0,0.0,0.0,0.0,0.0,0.0,0.0,0.0,0.0,0.0,0.0,0.0,0.0,0.0,0.0,0.0,0.0,0.0,0.0,0.0,0.0,0.0,0.0,0.0,0.0,0.0,0.0,0.0,0.0,0.0,0.0,0.0,0.0,0.0,0.0,0.0,0.0,0.0,0.0,0.0,0.0,0.0,0.0,0.0,0.0,0.0,0.0,0.0,0.0,0.0,0.0,0.0,0.0,0.0,0.0,0.0,0.0,0.0,0.0,0.0,0.0,0.0,0.0,0.0,0.0,0.0,0.0,0.0,0.0,0.0,0.0,0.0,0.0,0.0,0.0,0.0,0.0,0.0,0.0,0.0,0.0,0.0,0.0,0.0,0.0,0.0,0.0,0.0,0.0,0.0,0.0,0.0,0.0,0.0,0.0,-0.3851,-0.414,-0.4893,-0.5077,-0.5272,-0.5483,0.0,0.0,0.0,0.0,0.0,0.0,0.0,0.0,0.0,0.0,0.0,0.0,0.0,0.0,0.0,0.0,0.0,0.0,0.0,0.0,0.0,0.0,0.0,0.0,0.0,0.0,0.0,0.0,0.0,0.0,0.0,0.0,0.0,0.0,0.0,0.0,0.0,0.0,0.0,0.0,0.0,0.0,0.0,0.0,0.0,0.0,0.0,0.0,0.0,0.0,0.0,0.0,0.0,0.0,0.0,0.0,0.0,0.0,0.0,0.0,0.0,0.0,0.0,0.0,0.0,0.0,0.0,0.0,0.0,0.0,0.0,0.0,0.0,0.0,0.0,0.0,0.0,0.0,0.0,0.0,0.0,0.0,0.0,0.0,0.0,0.0,0.0,0.0,0.0,0.0,0.0,0.0,0.0,0.0,0.0,0.0,0.0,0.0,0.0,0.0,0.0,0.0,0.0,0.0,0.0,0.0,0.0,0.0,-0.4478,-0.425,-0.4545,-0.5484,-0.5384,-0.5469,0.0,0.0,0.0,0.0,0.0,0.0,0.0,0.0,0.0,0.0,0.0,0.0,0.0,0.0,0.0,0.0,0.0,0.0,0.0,0.0,0.0,0.0,0.0,0.0,0.0,0.0,0.0,0.0,0.0,0.0,0.0,0.0,0.0,0.0,0.0,0.0,0.0,0.0,0.0,0.0,0.0,0.0,0.0,0.0,0.0,0.0,0.0,0.0,0.0,0.0,0.0,0.0,0.0,0.0,0.0,0.0,0.0,0.0,0.0,0.0,0.0,0.0,0.0,0.0,0.0,0.0,0.0,0.0,0.0,0.0,0.0,0.0,0.0,0.0,0.0,0.0,0.0,0.0,0.0,0.0,0.0,0.0,0.0,0.0,0.0,0.0,0.0,0.0,0.0,0.0,0.0,0.0,0.0,0.0,0.0,0.0,0.0,0.0,0.0,0.0,0.0,0.0,0.0,0.0,0.0,0.0,0.0,0.0,0.0,-0.3822,-0.4287,-0.4819,-0.5402,-0.5386,-0.5477,0.0,0.0,0.0,0.0,0.0,0.0,0.0,0.0,0.0,0.0,0.0,0.0,0.0,0.0,0.0,0.0,0.0,0.0,0.0,0.0,0.0,0.0,0.0,0.0,0.0,0.0,0.0,0.0,0.0,0.0,0.0,0.0,0.0,0.0,0.0,0.0,0.0,0.0,0.0,0.0,0.0,0.0,0.0,0.0,0.0,0.0,0.0,0.0,0.0,0.0,0.0,0.0,0.0,0.0,0.0,0.0,0.0,0.0,0.0,0.0,0.0,0.0,0.0,0.0,0.0,0.0,0.0,0.0,0.0,0.0,0.0,0.0,0.0,0.0,0.0,0.0,0.0,0.0,0.0,0.0,0.0,0.0,0.0,0.0,0.0,0.0,0.0,0.0,0.0,0.0,0.0,0.0,0.0,0.0,0.0,0.0,0.0,0.0,0.0,0.0,0.0,0.0,0.0,0.0,0.0,0.0,0.0,0.0,0.0,-0.3656,0.0,-0.5015,-0.531,-0.5315,-0.5369,0.0,0.0,0.0,0.0,0.0,0.0,0.0,0.0,0.0,0.0,0.0,0.0,0.0,0.0,0.0,0.0,0.0,0.0,0.0,0.0,0.0,0.0,0.0,0.0,0.0,0.0,0.0,0.0,0.0,0.0,0.0,0.0,0.0,0.0,0.0,0.0,0.0,0.0,0.0,0.0,0.0,0.0,0.0,0.0,0.0,0.0,0.0,0.0,0.0,0.0,0.0,0.0,0.0,0.0,0.0,0.0,0.0,0.0,0.0,0.0,0.0,0.0,0.0,0.0,0.0,0.0,0.0,0.0,0.0,0.0,0.0,0.0,0.0,0.0,0.0,0.0,0.0,0.0,0.0,0.0,0.0,0.0,0.0,0.0,0.0,0.0,0.0,0.0,0.0,0.0,0.0,0.0,0.0,0.0,0.0,0.0,0.0,0.0,0.0,0.0,0.0,0.0,0.0,0.0,0.0,0.0,0.0,0.0,-0.2873,-0.4128,-0.4701,-0.5055,-0.5306,-0.5252,-0.518,0.0,0.0,0.0,0.0,0.0,0.0,0.0,0.0,0.0,0.0,0.0,0.0,0.0,0.0,0.0,0.0,0.0,0.0,0.0,0.0,0.0,0.0,0.0,0.0,0.0,0.0,0.0,0.0,0.0,0.0,0.0,0.0,0.0,0.0,0.0,0.0,0.0,0.0,0.0,0.0,0.0,0.0,0.0,0.0,0.0,0.0,0.0,0.0,0.0,0.0,0.0,0.0,0.0,0.0,0.0,0.0,0.0,0.0,0.0,0.0,0.0,0.0,0.0,0.0,0.0,0.0,0.0,0.0,0.0,0.0,0.0,0.0,0.0,0.0,0.0,0.0,0.0,0.0,0.0,0.0,0.0,0.0,0.0,0.0,0.0,0.0,0.0,0.0,0.0,0.0,0.0,0.0,0.0,0.0,0.0,0.0,0.0,0.0,0.0,0.0,0.0,0.0,0.0,0.0,0.0,0.0,0.0,0.0,0.0,-0.3828,-0.4302,-0.4788,-0.5342,-0.5159,-0.5161,0.0,0.0,0.0,0.0,0.0,0.0,0.0,0.0,0.0,0.0,0.0,0.0,0.0,0.0,0.0,0.0,0.0,0.0,0.0,0.0,0.0,0.0,0.0,0.0,0.0,0.0,0.0,0.0,0.0,0.0,0.0,0.0,0.0,0.0,0.0,0.0,0.0,0.0,0.0,0.0,0.0,0.0,0.0,0.0,0.0,0.0,0.0,0.0,0.0,0.0,0.0,0.0,0.0,0.0,0.0,0.0,0.0,0.0,0.0,0.0,0.0,0.0,0.0,0.0,0.0,0.0,0.0,0.0,0.0,0.0,0.0,0.0,0.0,0.0,0.0,0.0,0.0,0.0,0.0,0.0,0.0,0.0,0.0,0.0,0.0,0.0,0.0,0.0,0.0,0.0,0.0,0.0,0.0,0.0,0.0,0.0,0.0,0.0,0.0,0.0,0.0,0.0,0.0,0.0,0.0,0.0,0.0,0.0,0.0,-0.4123,-0.4541,-0.5013,-0.5616,-0.5497,-0.537,-0.5224,0.0,0.0,0.0,0.0,0.0,0.0,0.0,0.0,0.0,0.0,0.0,0.0,0.0,0.0,0.0,0.0,0.0,0.0,0.0,0.0,0.0,0.0,0.0,0.0,0.0,0.0,0.0,0.0,0.0,0.0,0.0,0.0,0.0,0.0,0.0,0.0,0.0,0.0,0.0,0.0,0.0,0.0,0.0,0.0,0.0,0.0,0.0,0.0,0.0,0.0,0.0,0.0,0.0,0.0,0.0,0.0,0.0,0.0,0.0,0.0,0.0,0.0,0.0,0.0,0.0,0.0,0.0,0.0,0.0,0.0,0.0,0.0,0.0,0.0,0.0,0.0,0.0,0.0,0.0,0.0,0.0,0.0,0.0,0.0,0.0,0.0,0.0,0.0,0.0,0.0,0.0,0.0,0.0,0.0,0.0,0.0,0.0,0.0,0.0,0.0,0.0,0.0,0.0,0.0,0.0,0.0,0.0,0.0,-0.4923,-0.5388,-0.5777,-0.6102,-0.6103,-0.5719,0.0,0.0,0.0,0.0,0.0,0.0,0.0,0.0,0.0,0.0,0.0,0.0,0.0,0.0,0.0,0.0,0.0,0.0,0.0,0.0,0.0,0.0,0.0,0.0,0.0,0.0,0.0,0.0,0.0,0.0,0.0,0.0,0.0,0.0,0.0,0.0,0.0,0.0,0.0,0.0,0.0,0.0,0.0,0.0,0.0,0.0,0.0,0.0,0.0,0.0,0.0,0.0,0.0,0.0,0.0,0.0,0.0,0.0,0.0,0.0,0.0,0.0,0.0,0.0,0.0,0.0,0.0,0.0,0.0,0.0,0.0,0.0,0.0,0.0,0.0,0.0,0.0,0.0,0.0,0.0,0.0,0.0,0.0,0.0,0.0,0.0,0.0,0.0,0.0,0.0,0.0,0.0,0.0,0.0,0.0,0.0,0.0,0.0,0.0,0.0,0.0,0.0,0.0,0.0,0.0,0.0,0.0,0.0,0.0,-0.5115,-0.6285,-0.7001,-0.7177,-0.659,-0.6056,0.0,0.0,0.0,0.0,0.0,0.0,0.0,0.0,0.0,0.0,0.0,0.0,0.0,0.0,0.0,0.0,0.0,0.0,0.0,0.0,0.0,0.0,0.0,0.0,0.0,0.0,0.0,0.0,0.0,0.0,0.0,0.0,0.0,0.0,0.0,0.0,0.0,0.0,0.0,0.0,0.0,0.0,0.0,0.0,0.0,0.0,0.0,0.0,0.0,0.0,0.0,0.0,0.0,0.0,0.0,0.0,0.0,0.0,0.0,0.0,0.0,0.0,0.0,0.0,0.0,0.0,0.0,0.0,0.0,0.0,0.0,0.0,0.0,0.0,0.0,0.0,0.0,0.0,0.0,0.0,0.0,0.0,0.0,0.0,0.0,0.0,0.0,0.0,0.0,0.0,0.0,0.0,0.0,0.0,0.0,0.0,0.0,0.0,0.0,0.0,0.0,0.0,0.0,0.0,0.0,0.0,0.0,0.0,-0.3877,-0.521,-0.6473,-0.743,-0.8145,-0.7446,-0.6612,0.0,0.0,0.0,0.0,0.0,0.0,0.0,0.0,0.0,0.0,0.0,0.0,0.0,0.0,0.0,0.0,0.0,0.0,0.0,0.0,0.0,0.0,0.0,0.0,0.0,0.0,0.0,0.0,0.0,0.0,0.0,0.0,0.0,0.0,0.0,0.0,0.0,0.0,0.0,0.0,0.0,0.0,0.0,0.0,0.0,0.0,0.0,0.0,0.0,0.0,0.0,0.0,0.0,0.0,0.0,0.0,0.0,0.0,0.0,0.0,0.0,0.0,0.0,0.0,0.0,0.0,0.0,0.0,0.0,0.0,0.0,0.0,0.0,0.0,0.0,0.0,0.0,0.0,0.0,0.0,0.0,0.0,0.0,0.0,0.0,0.0,0.0,0.0,0.0,0.0,0.0,0.0,0.0,0.0,0.0,0.0,0.0,0.0,0.0,0.0,0.0,0.0,0.0,0.0,0.0,0.0,0.0,0.0,-0.3474,-0.514,-0.6127,-0.7333,-0.8778,-0.8286,-0.7312,0.0,0.0,0.0,0.0,0.0,0.0,0.0,0.0,0.0,0.0,0.0,0.0,0.0,0.0,0.0,0.0,0.0,0.0,0.0,0.0,0.0,0.0,0.0,0.0,0.0,0.0,0.0,0.0,0.0,0.0,0.0,0.0,0.0,0.0,0.0,0.0,0.0,0.0,0.0,0.0,0.0,0.0,0.0,0.0,0.0,0.0,0.0,0.0,0.0,0.0,0.0,0.0,0.0,0.0,0.0,0.0,0.0,0.0,0.0,0.0,0.0,0.0,0.0,0.0,0.0,0.0,0.0,0.0,0.0,0.0,0.0,0.0,0.0,0.0,0.0,0.0,0.0,0.0,0.0,0.0,0.0,0.0,0.0,0.0,0.0,0.0,0.0,0.0,0.0,0.0,0.0,0.0,0.0,0.0,0.0,0.0,0.0,0.0,0.0,0.0,0.0,0.0,0.0,0.0,0.0,0.0,0.0,0.0,-0.3328,-0.451,-0.5673,-0.698,-0.8451,-0.8082,-0.7394,0.0,0.0,0.0,0.0,0.0,0.0,0.0,0.0,0.0,0.0,0.0,0.0,0.0,0.0,0.0,0.0,0.0,0.0,0.0,0.0,0.0,0.0,0.0,0.0,0.0,0.0,0.0,0.0,0.0,0.0,0.0,0.0,0.0,0.0,0.0,0.0,0.0,0.0,0.0,0.0,0.0,0.0,0.0,0.0,0.0,0.0,0.0,0.0,-0.9984,0.0,0.0,0.0,0.0,0.0,0.0,0.0,0.0,0.0,0.0,0.0,0.0,0.0,0.0,0.0,0.0,0.0,0.0,0.0,0.0,0.0,0.0,0.0,0.0,0.0,0.0,0.0,0.0,0.0,0.0,0.0,0.0,0.0,0.0,0.0,0.0,0.0,0.0,0.0,0.0,0.0,0.0,0.0,0.0,0.0,0.0,0.0,0.0,0.0,0.0,0.0,0.0,0.0,0.0,0.0,0.0,0.0,0.0,0.0,-0.2534,-0.4085,-0.4842,-0.6137,-0.7897,-0.7843,-0.7393,0.0,0.0,0.0,0.0,0.0,0.0,0.0,0.0,0.0,0.0,0.0,0.0,0.0,0.0,0.0,0.0,0.0,0.0,0.0,0.0,0.0,0.0,0.0,0.0,0.0,0.0,0.0,0.0,0.0,0.0,0.0,0.0,0.0,0.0,0.0,0.0,0.0,0.0,0.0,0.0,0.0,0.0,0.0,0.0,0.0,0.0,0.0,0.0,0.0,0.0,0.0,0.0,0.0,0.0,0.0,0.0,0.0,0.0,0.0,0.0,0.0,0.0,0.0,0.0,0.0,0.0,0.0,0.0,0.0,0.0,0.0,0.0,0.0,0.0,0.0,0.0,0.0,0.0,0.0,0.0,0.0,0.0,0.0,0.0,0.0,0.0,0.0,0.0,0.0,0.0,0.0,0.0,0.0,0.0,0.0,0.0,0.0,0.0,0.0,0.0,0.0,0.0,0.0,0.0,0.0,0.0,0.0,-0.069,-0.1549,-0.3507,-0.3898,-0.5101,-0.7205,-0.7361,-0.7209,-0.6794,0.0,0.0,0.0,0.0,0.0,0.0,0.0,0.0,0.0,0.0,0.0,0.0,0.0,0.0,0.0,0.0,0.0,0.0,0.0,0.0,0.0,0.0,0.0,0.0,0.0,0.0,0.0,0.0,0.0,0.0,0.0,0.0,0.0,0.0,0.0,0.0,0.0,0.0,-0.5393,-0.5693,0.0,0.0,0.0,0.0,0.0,0.0,0.0,0.0,-1.0132,0.0,0.0,0.0,0.0,0.0,0.0,0.0,0.0,0.0,0.0,0.0,0.0,0.0,0.0,0.0,0.0,0.0,0.0,0.0,0.0,0.0,0.0,0.0,0.0,0.0,0.0,0.0,0.0,0.0,0.0,0.0,0.0,0.0,0.0,0.0,0.0,0.0,0.0,0.0,0.0,0.0,0.0,0.0,0.0,0.0,0.0,0.0,0.0,0.0,0.0,0.0,0.0,0.0,0.0,0.0,0.0,-0.0482,-0.0482,-0.1066,-0.2118,-0.3071,-0.4283,-0.5873,-0.6189,-0.6371,-0.6383,0.0,0.0,0.0,0.0,0.0,0.0,0.0,0.0,0.0,0.0,0.0,0.0,0.0,0.0,0.0,0.0,0.0,0.0,0.0,0.0,0.0,0.0,0.0,0.0,0.0,0.0,0.0,0.0,0.0,0.0,0.0,0.0,0.0,0.0,0.0,0.0,0.0,0.0,0.0,-0.5648,-0.6101,0.0,0.0,0.0,0.0,0.0,0.0,0.0,0.0,-1.0525,0.0,0.0,0.0,0.0,0.0,0.0,0.0,0.0,0.0,0.0,0.0,0.0,0.0,0.0,0.0,0.0,0.0,0.0,0.0,0.0,0.0,0.0,0.0,0.0,0.0,0.0,0.0,0.0,0.0,0.0,0.0,0.0,0.0,0.0,0.0,0.0,0.0,0.0,0.0,0.0,0.0,0.0,0.0,0.0,0.0,0.0,0.0,0.0,0.0,0.0,0.0,0.0,0.0,0.0,0.0,-0.0381,-0.0353,-0.0798,-0.1681,-0.2287,-0.3391,-0.5107,-0.5136,-0.5343,0.0,0.0,0.0,0.0,0.0,0.0,0.0,0.0,0.0,0.0,0.0,0.0,0.0,0.0,0.0,0.0,0.0,0.0,0.0,0.0,0.0,0.0,0.0,0.0,0.0,0.0,0.0,0.0,0.0,0.0,0.0,0.0,0.0,0.0,0.0,0.0,0.0,0.0,0.0,0.0,-0.5992,-0.6608,-0.6818,0.0,0.0,0.0,0.0,0.0,0.0,-1.0482,-1.083,0.0,0.0,0.0,0.0,0.0,0.0,0.0,0.0,0.0,0.0,0.0,0.0,0.0,0.0,0.0,0.0,0.0,0.0,0.0,0.0,0.0,0.0,0.0,0.0,0.0,0.0,0.0,0.0,0.0,0.0,0.0,0.0,0.0,0.0,0.0,0.0,0.0,0.0,0.0,0.0,0.0,0.0,0.0,0.0,0.0,0.0,0.0,0.0,0.0,0.0,0.0,0.0,0.0,0.0,0.0,-0.0244,-0.0264,-0.0614,-0.1257,-0.1586,-0.2498,-0.4083,-0.4029,-0.4336,0.0,0.0,0.0,0.0,0.0,0.0,0.0,0.0,0.0,0.0,0.0,0.0,0.0,0.0,0.0,0.0,0.0,0.0,0.0,0.0,0.0,0.0,0.0,0.0,0.0,0.0,0.0,0.0,0.0,0.0,0.0,0.0,0.0,0.0,0.0,0.0,0.0,0.0,0.0,0.0,0.0,-0.7231,-0.7126,-0.8224,0.0,0.0,0.0,0.0,-1.0138,-1.0659,0.0,0.0,0.0,0.0,0.0,0.0,0.0,0.0,0.0,0.0,0.0,0.0,0.0,0.0,0.0,0.0,0.0,0.0,0.0,0.0,0.0,0.0,0.0,0.0,0.0,0.0,0.0,0.0,0.0,0.0,0.0,0.0,0.0,0.0,0.0,0.0,0.0,0.0,0.0,0.0,0.0,0.0,0.0,0.0,0.0,0.0,0.0,0.0,0.0,0.0,0.0,0.0,0.0,0.0,0.0,0.0,-0.0041,-0.0214,-0.0276,-0.0251,-0.1112,-0.174,-0.1966,-0.2794,-0.3354,0.0,0.0,0.0,0.0,0.0,0.0,0.0,0.0,0.0,0.0,0.0,0.0,0.0,0.0,0.0,0.0,0.0,0.0,0.0,0.0,0.0,0.0,0.0,0.0,0.0,0.0,0.0,0.0,0.0,0.0,0.0,0.0,0.0,0.0,0.0,0.0,0.0,0.0,0.0,0.0,0.0,-0.7816,-0.785,-0.86,-0.9225,0.0,0.0,0.0,-1.0043,-1.0958,0.0,0.0,0.0,0.0,0.0,0.0,0.0,0.0,0.0,0.0,0.0,0.0,0.0,0.0,0.0,0.0,0.0,0.0,0.0,0.0,0.0,0.0,0.0,0.0,0.0,0.0,0.0,0.0,0.0,0.0,0.0,0.0,0.0,0.0,0.0,0.0,0.0,0.0,0.0,0.0,0.0,0.0,0.0,0.0,0.0,0.0,0.0,0.0,0.0,0.0,0.0,0.0,0.0,0.0,0.0,0.0142,0.0117,0.0043,0.0046,0.0,-0.044,-0.0959,-0.1474,-0.1712,-0.2202,0.0,0.0,0.0,0.0,0.0,0.0,0.0,0.0,0.0,0.0,0.0,0.0,0.0,0.0,0.0,0.0,0.0,0.0,0.0,0.0,0.0,0.0,0.0,0.0,0.0,0.0,0.0,0.0,0.0,0.0,0.0,0.0,0.0,0.0,0.0,0.0,0.0,0.0,0.0,0.0,0.0,0.0,-0.8264,-0.9166,0.0,0.0,0.0,-1.041,-1.0367,0.0,0.0,0.0,0.0,0.0,0.0,0.0,0.0,0.0,0.0,0.0,0.0,0.0,0.0,0.0,0.0,0.0,0.0,0.0,0.0,0.0,0.0,0.0,0.0,0.0,0.0,0.0,0.0,0.0,0.0,0.0,0.0,0.0,0.0,0.0,0.0,0.0,0.0,0.0,0.0,0.0,0.0,0.0,0.0,0.0,0.0,0.0,0.0,0.0,0.0,0.0,0.0,0.0,0.0,0.0,0.0,0.0,0.03,0.0333,0.027,0.0094,0.0094,-0.0276,-0.1016,-0.0861,0.0,0.0,0.0,0.0,0.0,0.0,0.0,0.0,0.0,0.0,0.0,0.0,0.0,0.0,0.0,0.0,0.0,0.0,0.0,0.0,0.0,0.0,0.0,0.0,0.0,0.0,0.0,0.0,0.0,0.0,0.0,0.0,0.0,0.0,0.0,0.0,0.0,0.0,0.0,0.0,0.0,0.0,-0.8956,-0.8673,-0.9689,-1.0415,0.0,0.0,-1.0494,-1.0488,-1.1478,-1.2153,0.0,0.0,0.0,0.0,0.0,0.0,0.0,0.0,0.0,0.0,0.0,0.0,0.0,0.0,0.0,0.0,0.0,0.0,0.0,0.0,0.0,0.0,0.0,0.0,0.0,0.0,0.0,0.0,0.0,0.0,0.0,0.0,0.0,0.0,0.0,0.0,0.0,0.0,0.0,0.0,0.0,0.0,0.0,0.0,0.0,0.0,0.0,0.0,0.0,0.0,0.0,0.0,0.0,0.0,0.0,0.0475,0.0552,0.047,0.0277,0.0273,0.0133,-0.0085,-0.0403,-0.0668,0.0,0.0,0.0,0.0,0.0,0.0,0.0,0.0,0.0,0.0,0.0,0.0,0.0,0.0,0.0,0.0,0.0,0.0,0.0,0.0,0.0,0.0,0.0,0.0,0.0,0.0,0.0,0.0,0.0,0.0,0.0,0.0,0.0,0.0,0.0,0.0,0.0,0.0,0.0,0.0,0.0,-0.9348,-0.9244,-1.0094,-1.061,0.0,0.0,-1.0582,-1.0265,-1.1636,-1.2458,-1.1637,0.0,0.0,0.0,0.0,0.0,0.0,0.0,0.0,0.0,0.0,0.0,0.0,0.0,0.0,0.0,0.0,0.0,0.0,0.0,0.0,0.0,0.0,0.0,0.0,0.0,0.0,0.0,0.0,0.0,0.0,0.0,0.0,0.0,0.0,0.0,0.0,0.0,0.0,0.0,0.0,0.0,0.0,0.0,0.0,0.0,0.0,0.0,0.0,0.0,0.0,0.0,0.0,0.0,0.0968,0.0818,0.0806,0.0657,0.0479,0.0477,0.0381,0.0202,-0.0078,-0.0292,0.0,0.0,0.0,0.0,0.0,0.0,0.0,0.0,0.0,0.0,0.0,0.0,0.0,0.0,0.0,0.0,0.0,0.0,0.0,0.0,0.0,0.0,0.0,0.0,0.0,0.0,0.0,0.0,-0.3771,-0.3915,-0.4246,0.0,0.0,0.0,0.0,0.0,0.0,0.0,0.0,0.0,0.0,-0.8911,-0.8709,-0.9511,0.0,0.0,-1.0265,-1.0449,-1.0674,-1.1511,-1.2135,-1.1957,-1.2832,0.0,0.0,0.0,0.0,0.0,0.0,0.0,0.0,0.0,0.0,0.0,0.0,0.0,0.0,0.0,0.0,0.0,0.0,0.0,0.0,0.0,0.0,0.0,0.0,0.0,0.0,0.0,0.0,0.0,0.0,0.0,0.0,0.0,0.0,0.0,0.0,0.0,0.0,0.0,0.0,0.0,0.0,0.0,0.0,0.0,0.0,0.0,0.0,0.0,0.0,0.0,0.0,0.1644,0.1505,0.1341,0.1224,0.1081,0.0828,0.0607,0.0389,0.0265,0.0107,0.0,0.0,0.0,0.0,0.0,0.0,0.0,0.0,0.0,0.0,0.0,0.0,0.0,0.0,0.0,0.0,0.0,0.0,0.0,0.0,0.0,0.0,0.0,0.0,0.0,0.0,0.0,0.0,-0.3913,-0.4091,-0.4399,0.0,0.0,0.0,0.0,0.0,0.0,0.0,0.0,0.0,0.0,-0.8436,-0.8413,-0.9161,-0.9841,-1.0106,-1.0143,-1.0348,-1.0837,-1.1503,-1.1943,-1.2027,0.0,0.0,0.0,0.0,0.0,0.0,0.0,0.0,0.0,0.0,0.0,0.0,0.0,0.0,0.0,0.0,0.0,0.0,0.0,0.0,0.0,0.0,0.0,0.0,0.0,0.0,0.0,0.0,0.0,0.0,0.0,0.0,0.0,0.0,0.0,0.0,0.0,0.0,0.0,0.0,0.0,0.0,0.0,0.0,0.0,0.0,0.0,0.0,0.0,0.0,0.0,0.0,0.0,0.0,0.255,0.2303,0.2154,0.2141,0.1351,0.0855,0.0644,0.0591,0.0492,0.0291,0.0,0.0,0.0,0.0,0.0,0.0,0.0,0.0,0.0,0.0,0.0,0.0,0.0,0.0,0.0,0.0,0.0,0.0,0.0,0.0,0.0,0.0,0.0,0.0,0.0,0.0,-0.4243,-0.4295,-0.4249,0.0,0.0,0.0,0.0,0.0,0.0,0.0,0.0,0.0,0.0,-0.7628,-0.8103,-0.8604,-0.9152,-0.9804,-1.0533,-1.0319,-1.0248,-1.0724,-1.1575,-1.2059,0.0,0.0,0.0,0.0,0.0,0.0,0.0,0.0,0.0,0.0,0.0,0.0,0.0,0.0,0.0,0.0,0.0,0.0,0.0,0.0,0.0,0.0,0.0,0.0,0.0,0.0,0.0,0.0,0.8394,0.0,0.0,0.0,0.0,0.0,0.0,0.0,0.0,0.0,0.0,0.0,0.7898,0.811,0.0,0.0,0.0,0.0,0.0,0.0,0.0,0.0,0.0,0.0,0.0,0.0,0.2902,0.2882,0.2996,0.3045,0.3051,0.2803,0.2531,0.2322,0.176,0.1127,0.044,0.0,0.0,0.0,0.0,0.0,0.0,0.0,0.0,0.0,0.0,0.0,0.0,0.0,0.0,0.0,0.0,0.0,0.0,0.0,0.0,0.0,0.0,0.0,0.0,0.0,-0.3762,0.0,0.0,0.0,0.0,0.0,0.0,0.0,0.0,0.0,0.0,0.0,-0.6957,-0.7357,-0.7845,-0.8234,-0.8345,-0.9072,-0.9597,0.0,0.0,0.0,0.0,0.0,0.0,0.0,0.0,0.0,0.0,0.0,0.0,0.0,0.0,-1.5526,-1.6306,-1.655,-1.6657,-1.6712,0.0,0.0,0.0,0.0,0.0,0.0,0.0,0.0,0.0,0.0,0.0,0.0,0.0,0.0,0.0,0.0,0.9273,0.0,0.0,0.0,0.0,0.0,0.0,0.0,0.0,0.901,0.9287,0.9251,0.945,0.9373,0.0,0.7975,0.7028,0.0,0.0,0.0,0.0,0.0,0.0,0.0,0.0,0.3484,0.3561,0.3719,0.381,0.3869,0.3577,0.3351,0.3228,0.2689,0.2031,0.1391,0.1028,0.0704,0.0,0.0,0.0,0.0,0.0,0.0,0.0,0.0,0.0,0.0,0.0,0.0,0.0,0.0,0.0,0.0,0.0,0.0,0.0,0.0,0.0,0.0,0.0,-0.3718,0.0,0.0,0.0,0.0,0.0,0.0,0.0,0.0,0.0,-0.6827,-0.6886,-0.7036,-0.7366,-0.7587,-0.787,-0.824,0.0,0.0,0.0,0.0,0.0,0.0,0.0,-1.1283,-1.1933,-1.2274,-1.249,-1.2621,-1.292,-1.345,-1.4478,0.0,0.0,-1.6306,-1.6648,-1.6807,-1.6864,-1.754,-1.8131,-1.817,-1.8422,-1.8675,0.0,0.0,0.0,0.0,0.0,0.0,0.0,0.0,1.1183,1.1036,0.0,1.0206,0.0,0.0,0.0,0.0,0.0,0.0,0.0,0.0,1.0777,1.1181,1.081,1.0684,1.0644,1.0533,0.9278,0.8631,0.8446,0.652,0.0,0.0,0.0,0.0,0.0,0.0,0.437,0.461,0.4475,0.4456,0.4604,0.3844,0.3369,0.335,0.3264,0.3136,0.2966,0.2216,0.1675,0.1346,0.0672,0.0,0.0,0.0,0.0,0.0,0.0,0.0,0.0,0.0,0.0,0.0,0.0,0.0,0.0,0.0,0.0,0.0,0.0,0.0,0.0,-0.347,0.0,0.0,0.0,0.0,0.0,0.0,0.0,0.0,0.0,0.0,-0.6753,-0.6869,-0.6984,-0.7208,0.0,0.0,0.0,0.0,-0.8447,-0.958,-0.9862,-1.0117,-1.0649,-1.1028,-1.1317,-1.1591,0.0,0.0,-1.2236,-1.2552,-1.3125,-1.4261,-1.4597,-1.5089,-1.6332,-1.6666,-1.6807,-1.6927,-1.7556,-1.8066,-1.817,-1.8815,-1.9384,1.6275,0.0,0.0,0.0,0.0,1.3704,1.394,1.4214,1.3646,1.3181,1.2852,1.2211,0.0,0.0,0.0,0.0,0.0,0.0,0.9937,1.0438,1.102,1.1393,1.1588,1.1731,1.1499,1.0877,1.0199,0.9557,0.8934,0.8049,0.6951,0.5629,0.0,0.0,0.0,0.0,0.5009,0.517,0.545,0.5534,0.5466,0.5218,0.4737,0.4035,0.4005,0.3686,0.3024,0.2768,0.2481,0.2158,0.1955,0.0,0.0,0.0,0.0,0.0,0.0,0.0,0.0,0.0,0.0,0.0,0.0,0.0,0.0,0.0,0.0,0.0,0.0,0.0,-0.2584,-0.2613,-0.287,0.0,0.0,0.0,0.0,0.0,0.0,0.0,0.0,0.0,-0.6436,-0.6659,-0.6952,0.0,0.0,-0.8009,-0.863,-0.8635,-0.8641,-0.8844,0.0,0.0,0.0,-1.0059,-1.0566,-1.1584,-1.1771,-1.1864,-1.212,-1.2243,-1.2666,-1.3726,-1.4174,-1.4746,-1.596,-1.6392,-1.6506,-1.6648,-1.739,-1.8192,-1.8612,-1.92,-1.9794,1.8913,1.703,1.5928,1.5483,1.5519,1.5563,1.5744,1.6001,1.5521,1.5103,1.4683,1.3645,1.2443,1.1135,1.0375,0.0,0.0,0.0,1.0405,1.1241,1.1266,1.1486,1.1899,1.1931,1.1683,1.1149,1.0541,1.0104,0.9857,0.8911,0.8036,0.717,0.0,0.0,0.5394,0.532,0.5355,0.5523,0.5837,0.5936,0.5868,0.583,0.5517,0.4843,0.4801,0.4518,0.3871,0.362,0.3358,0.3102,0.2871,0.2444,0.0,0.0,0.0,0.0,0.0,0.0,0.0,0.0,0.0,0.0,0.0,-0.0055,0.0,0.0,0.0,0.0,-0.0851,-0.1572,-0.217,-0.2243,0.0,0.0,0.0,0.0,0.0,0.0,0.0,-0.499,-0.4895,-0.5085,-0.5903,-0.6152,-0.6552,-0.7268,-0.7503,-0.7782,-0.8279,0.0,-0.8177,-0.8301,-0.8236,-0.849,-0.9358,-0.9678,-1.0218,-1.1397,-1.1685,-1.1747,-1.1872,-1.1903,-1.229,-1.3342,-1.3846,-1.4412,-1.57,-1.6095,-1.6306,-1.6402,-1.7329,-1.8169,-1.8534,-1.9221,-1.9861,2.0986,2.0415,1.7802,1.6844,1.704,1.704,1.7224,1.7515,1.6899,1.6673,1.6549,1.4664,1.3477,1.2762,1.0769,0.0,0.0,1.0574,1.0916,1.1921,1.1598,1.1598,1.1846,1.1557,1.139,1.1275,1.0455,1.0343,1.0744,0.9306,0.8709,0.8998,0.7567,0.674,0.6521,0.5875,0.5616,0.5769,0.5889,0.5943,0.5921,0.5873,0.5795,0.5611,0.5592,0.544,0.5111,0.4564,0.4206,0.4073,0.3533,0.3185,0.3004,0.0,0.0,0.0,0.0,0.0,0.0,0.0,0.0,0.0,0.0,0.0,0.0,0.0,0.0,0.0,-0.0374,0.0,-0.1586,-0.2052,0.0,0.0,0.0,-0.2864,-0.2863,-0.2938,-0.3157,-0.3692,0.0,0.0,0.0,0.0,-0.5815,-0.6609,-0.6741,-0.697,-0.7596,-0.74,-0.7363,-0.7852,-0.7982,-0.8355,-0.9171,-0.9623,-1.0164,-1.1036,-1.1408,-1.1533,-1.1578,-1.1615,-1.2097,-1.3201,-1.3562,-1.4034,-1.5361,-1.5761,-1.604,-1.619,-1.7197,-1.8,-1.8074,-1.8867,-1.9445,2.1891,2.1855,2.0745,1.9825,1.9167,1.9149,1.8882,1.8403,1.7914,1.7406,1.6808,1.6033,1.512,1.4115,1.2355,1.1948,1.2662,1.1508,1.1471,1.222,1.1937,1.1765,1.1737,1.1662,1.1175,1.0481,1.0646,1.037,0.9648,0.9691,0.9579,0.9358,0.8438,0.7654,0.6972,0.6577,0.6409,0.6392,0.632,0.6218,0.6141,0.5826,0.5644,0.5603,0.5488,0.5333,0.51,0.4973,0.4816,0.4684,0.4536,0.425,0.3746,0.3416,0.0,0.0,0.0,0.0,0.0,0.0,0.0,0.0,0.0,0.0584,0.0112,0.0,0.0084,0.0,0.0452,0.0343,-0.0263,-0.0502,0.0,0.0,-0.2049,-0.2511,-0.2638,-0.2607,-0.2751,-0.3284,-0.3119,-0.3222,-0.3887,-0.4456,-0.4954,-0.5282,-0.6338,-0.7199,-0.7493,-0.7204,-0.7077,-0.7302,-0.7092,-0.727,-0.8425,-0.9465,-1.0226,-1.0558,-1.0854,-1.1104,-1.1194,-1.143,-1.1912,-1.2835,-1.3053,-1.3529,-1.4504,-1.4762,-1.4908,-1.5198,-1.6385,-1.7439,-1.7505,-1.8041,-1.8484,2.2309,2.2359,2.1866,2.1184,2.0471,2.0294,1.9919,1.9376,1.8747,1.8101,1.7368,1.648,1.5583,1.4731,1.3597,1.3502,1.4042,1.2983,1.255,1.2684,1.2337,1.1803,1.1159,1.1198,1.0804,1.0118,1.0431,1.0248,0.9649,0.9935,0.998,0.9737,0.9224,0.8667,0.8028,0.7307,0.686,0.6797,0.6577,0.6585,0.6756,0.6169,0.5853,0.5837,0.5585,0.5414,0.5329,0.5167,0.5054,0.4904,0.4828,0.4565,0.4144,0.3793,0.3321,0.0,0.0,0.0,0.0,0.0,0.0,0.0,0.0,0.0,0.0,0.0,0.048,0.0,0.0783,0.0,0.021,0.012,-0.012,-0.0724,-0.1196,-0.1589,-0.186,-0.1815,-0.1946,-0.2436,-0.2306,-0.2427,-0.3011,-0.3551,-0.4035,-0.4478,-0.5403,-0.6229,-0.6759,-0.6705,-0.6647,-0.6793,-0.6479,-0.6616,-0.7898,-0.9172,-1.0084,-1.0207,-1.045,-1.0689,-1.077,-1.0974,-1.1479,-1.2434,-1.2677,-1.3012,-1.4038,-1.4347,-1.4463,-1.47,-1.5423,-1.6277,-1.688,-1.7433,-1.7861,2.2485,2.2448,2.204,2.166,2.1364,2.0847,2.0479,2.0136,1.9302,1.8601,1.7926,1.6599,1.5719,1.5199,1.4724,1.4793,1.5215,1.4363,1.3696,1.3121,1.2715,1.1879,1.0706,1.0676,1.0491,1.0165,1.0107,1.0057,0.9988,1.0023,1.0029,0.9945,0.9722,0.9453,0.9116,0.7988,0.7313,0.7111,0.6802,0.6926,0.7474,0.6655,0.6186,0.6083,0.5814,0.5648,0.5654,0.5358,0.5113,0.4996,0.479,0.4607,0.4443,0.4052,0.3714,0.0,0.3074,0.0,0.0,0.0,0.0,0.0,0.0,0.0,0.0,0.1234,0.088,0.0467,0.0899,0.0975,0.0459,0.0397,0.0243,-0.0148,-0.0356,-0.0599,-0.0863,-0.0981,-0.1123,-0.1506,-0.1505,-0.1743,-0.2291,-0.2615,-0.3136,-0.3822,-0.4348,-0.4954,-0.5732,-0.6042,-0.6196,-0.6294,-0.6129,-0.649,-0.7578,-0.8782,-0.9611,-0.9774,-1.0044,-1.0258,-1.0257,-1.0421,-1.0846,-1.1765,-1.2034,-1.2475,-1.3597,-1.392,-1.409,-1.4162,-1.4427,-1.4976,-1.6051,-1.6781,-1.723,2.2794,2.2931,2.2351,2.2173,2.2198,2.143,2.0475,1.9467,1.8986,1.8316,1.7602,1.732,1.7107,1.6913,1.5646,1.534,1.5749,1.4124,1.3347,1.3246,1.2942,1.2418,1.1716,1.1282,1.0859,1.0427,1.0201,0.9848,0.9366,0.9645,0.9576,0.9213,0.9151,0.9044,0.0,0.0,0.0,0.0,0.718,0.709,0.737,0.6777,0.6339,0.6125,0.6099,0.0,0.5923,0.5665,0.5544,0.5594,0.5234,0.0,0.0,0.0,0.0,0.0,0.0,0.0,0.0,0.0,0.0,0.0,0.2345,0.1876,0.1117,0.0869,0.0871,0.1076,0.1111,0.1242,0.1538,0.1188,0.0928,0.0883,0.0153,-0.0368,-0.0432,-0.0776,-0.1028,-0.109,-0.1121,-0.118,-0.1355,-0.185,-0.2303,-0.2595,-0.359,-0.4375,-0.4627,-0.5326,-0.5792,-0.5839,-0.6079,-0.6587,-0.7312,-0.7905,-0.8541,-0.9005,-0.9453,-0.959,-0.9544,-0.9787,-0.9985,-1.0375,-1.0648,-1.1191,-1.1965,-1.2383,-1.2822,-1.3263,-1.3392,-1.3758,-1.4895,-1.568,-1.6103,2.3013,0.0,2.2333,2.2123,0.0,2.1279,2.0421,1.9553,1.9067,1.8345,1.7505,1.7495,1.7415,1.7264,1.6487,1.6211,1.629,1.516,1.4403,1.3936,1.3759,1.3075,1.1963,1.1845,1.1319,1.0461,1.0328,0.9943,0.9408,0.9571,0.9517,0.9316,0.9283,0.9263,0.9185,0.9106,0.893,0.8598,0.8101,0.8042,0.8385,0.7862,0.748,0.7283,0.0,0.0,0.0,0.0,0.0,0.0,0.0,0.0,0.0,0.0,0.0,0.4543,0.4393,0.4342,0.4354,0.4035,0.3818,0.3776,0.3165,0.2376,0.1428,0.1262,0.1327,0.1576,0.1522,0.1629,0.1887,0.1694,0.1383,0.1177,0.0668,0.0174,-0.0294,-0.056,-0.0772,-0.0931,-0.0953,-0.0939,-0.0952,-0.1218,-0.157,-0.1877,-0.2517,-0.3246,-0.3791,-0.4746,-0.5434,-0.5349,-0.5841,-0.6294,-0.6521,-0.7126,-0.7626,-0.8088,-0.849,-0.8753,-0.8723,-0.894,-0.9195,-0.9477,-0.9786,-1.0231,-1.1063,-1.1602,-1.2062,-1.2543,-1.2878,-1.3212,-1.3896,-1.4688,-1.5453,2.3052,2.2906,2.2207,2.1846,2.1709,2.0948,2.0273,1.9738,0.0,0.0,0.0,1.7608,1.7484,1.7263,1.7118,1.6899,1.6668,1.6182,1.5495,1.4653,1.4565,1.3772,1.2325,1.2411,1.1881,1.0808,1.0632,1.0259,0.9744,0.9751,0.9699,0.9614,0.9614,0.9614,0.9588,0.9491,0.9436,0.9419,0.895,0.8901,0.9377,0.8914,0.8551,0.8409,0.8196,0.7984,0.7783,0.7448,0.7255,0.7152,0.6491,0.607,0.5913,0.5334,0.5027,0.5014,0.4929,0.5022,0.5351,0.4925,0.4709,0.4788,0.3844,0.2893,0.2014,0.1915,0.1927,0.1989,0.1984,0.1997,0.205,0.2009,0.1786,0.1326,0.1181,0.0774,0.0027,-0.0193,-0.0334,-0.0655,-0.0756,-0.0818,-0.0876,-0.0853,-0.0957,-0.1436,-0.1706,-0.2086,-0.315,-0.4281,-0.4963,-0.4944,-0.5316,-0.5694,-0.5828,-0.6425,-0.7026,-0.7297,-0.7747,-0.8021,-0.802,-0.81,-0.8368,-0.8746,-0.8973,-0.9508,-1.0428,-1.0976,-1.1528,-1.2105,-1.259,-1.2972,-1.3152,-1.3952,-1.4858,2.2896,2.2559,2.208,2.167,2.1249,2.0781,2.0145,1.9355,1.888,1.8387,1.794,1.794,1.791,1.7837,1.7116,1.6714,1.6658,1.5839,1.5216,0.0,1.476,1.4405,1.3777,1.3015,1.2551,1.232,1.149,1.0804,1.0344,1.03,1.0061,0.9673,0.9614,0.9614,0.9614,0.9562,0.9584,0.9556,0.8931,0.8773,0.9067,0.8661,0.8304,0.8012,0.8242,0.824,0.8057,0.7782,0.7685,0.7759,0.7292,0.7073,0.7203,0.6561,0.6225,0.6304,0.5905,0.5683,0.5727,0.5499,0.5069,0.4419,0.3774,0.3151,0.2639,0.2361,0.2286,0.2389,0.2291,0.2245,0.2256,0.2232,0.2123,0.1875,0.1707,0.145,0.1052,0.0667,0.0335,0.0,-0.0257,-0.0513,-0.0712,-0.0781,-0.0802,-0.098,-0.1367,-0.2077,-0.3028,-0.3894,-0.4354,-0.4536,-0.4669,-0.4985,-0.5362,-0.6043,-0.6571,-0.7128,-0.7527,-0.7752,-0.7607,-0.7648,-0.7685,-0.7545,-0.7944,-0.8566,-0.9499,-1.0032,-1.0785,-1.1759,-1.22,-1.2508,-1.2942,-1.3555,-1.4224,2.2984,2.273,2.2158,2.1768,2.1523,2.0605,1.9853,1.9258,1.8818,1.8364,1.8027,1.8008,1.7754,1.7262,1.6882,1.6443,1.5996,1.5566,1.5303,1.5117,1.4921,1.4561,1.4068,1.3441,1.2861,1.2367,1.1908,1.141,1.088,1.0821,1.0541,1.0061,1.0035,1.0035,1.0035,1.0035,0.9873,0.9588,0.9498,0.9492,0.9597,0.9604,0.9432,0.9099,0.9268,0.9179,0.8928,0.8797,0.8745,0.8823,0.832,0.8131,0.8171,0.7568,0.722,0.7272,0.6712,0.6339,0.6339,0.5833,0.5303,0.4688,0.4347,0.3999,0.36,0.2998,0.256,0.2423,0.2336,0.2292,0.2292,0.2292,0.2249,0.2106,0.2026,0.1829,0.1514,0.1293,0.1009,0.0625,0.0272,-0.0024,-0.0195,-0.0457,-0.0641,-0.0688,-0.116,-0.1846,-0.2553,-0.3143,-0.3688,-0.412,-0.4258,-0.436,-0.4633,-0.5061,-0.5593,-0.6078,-0.6621,-0.6982,-0.7117,-0.7235,-0.7267,-0.7222,-0.7433,-0.7832,-0.858,-0.9292,-1.0089,-1.0807,-1.1772,-1.2252,-1.2641,-1.3236,-1.4097,2.3371,2.3212,2.248,2.2045,2.1778,2.0575,1.9766,1.9277,1.89,1.8486,1.8047,1.8008,1.7555,1.6904,1.6755,1.6278,1.5615,1.5459,1.542,1.5381,1.5078,1.4746,1.4377,1.3994,1.3359,1.2622,1.246,1.2059,1.1469,1.1385,1.1133,1.0625,1.0582,1.0582,1.0574,1.0582,1.0318,0.9836,1.0022,1.0095,0.9994,1.0243,1.0271,1.0016,0.996,0.9877,0.9636,0.9614,0.9614,0.9588,0.9134,0.8892,0.8866,0.8248,0.7873,0.7829,0.7226,0.6767,0.6582,0.5942,0.534,0.4955,0.4868,0.4707,0.4326,0.3665,0.3047,0.2674,0.2605,0.2547,0.247,0.2449,0.24,0.2307,0.2322,0.2203,0.1872,0.1802,0.1655,0.1261,0.086,0.054,0.0304,-0.0046,-0.0316,-0.0519,-0.0897,-0.1344,-0.1854,-0.2364,-0.2965,-0.3537,-0.3837,-0.394,-0.3902,-0.4302,-0.4767,-0.5113,-0.5739,-0.6306,-0.6657,-0.6851,-0.7013,-0.7118,-0.7139,-0.744,-0.7919,-0.8569,-0.9338,-1.0052,-1.0944,-1.1707,-1.218,-1.2952,-1.3989,2.4133,2.3701,2.3197,2.2548,2.175,2.0885,2.0067,1.9326,1.9238,1.876,1.8037,1.8008,1.7754,1.7305,1.6882,1.6465,1.5997,1.5596,1.542,1.5381,1.5381,1.5322,1.5186,1.4824,1.4406,1.3879,1.3475,1.2846,1.2063,1.2002,1.1694,1.1175,1.1124,1.1133,1.1133,1.1133,1.0854,1.0344,1.0358,1.0133,0.9691,0.9687,0.9668,0.9639,0.9665,0.9617,0.9614,0.9614,0.9614,0.9599,0.9315,0.9144,0.9073,0.8307,0.7808,0.7815,0.7303,0.674,0.6139,0.5604,0.524,0.5021,0.4997,0.4812,0.4456,0.4315,0.4032,0.3578,0.3353,0.3177,0.2903,0.2851,0.2746,0.2531,0.2673,0.2725,0.2458,0.2429,0.2297,0.1938,0.1611,0.1217,0.0587,0.0315,0.0067,-0.0382,-0.0516,-0.0831,-0.1344,-0.1787,-0.2322,-0.294,-0.3388,-0.3681,-0.3766,-0.4202,-0.4526,-0.4722,-0.5411,-0.5959,-0.6243,-0.6611,-0.6956,-0.6992,-0.7027,-0.7259,-0.7642,-0.8069,-0.8553,-0.9523,-1.0191,-1.0652,-1.1772,-1.2571,-1.35,2.5177,2.4931,2.4164,2.3076,2.1818,2.1423,2.0559,1.9343,1.9277,1.8809,1.8066,1.8008,1.7773,1.7383,1.7197,1.6738,1.6105,1.5899,1.5654,1.54,1.5156,1.5039,1.499,1.4609,1.427,1.4085,1.3685,1.3307,1.2897,1.237,1.2126,1.2166,1.1893,1.1719,1.1719,1.1735,1.1435,1.0905,1.088,1.0643,1.0208,0.9803,0.9614,0.9614,0.9614,0.9614,0.9614,0.9614,0.9614,0.9599,0.9361,0.9175,0.92,0.8661,0.8334,0.828,0.7689,0.6966,0.6211,0.5776,0.5502,0.5431,0.5154,0.4919,0.4793,0.4866,0.4764,0.4372,0.4053,0.378,0.3526,0.3406,0.3199,0.2891,0.2866,0.2843,0.2751,0.2732,0.2684,0.2529,0.2148,0.1679,0.1052,0.0426,-0.0022,-0.0337,-0.0405,-0.0606,-0.1075,-0.1343,-0.1787,-0.2479,-0.2921,-0.3233,-0.3549,-0.3818,-0.4096,-0.4399,-0.4766,-0.5151,-0.5852,-0.6151,-0.6471,-0.6844,-0.6907,-0.7006,-0.7259,-0.7725,-0.8209,-0.9077,-1.0013,-1.0648,-1.1532,-1.1871,-1.2517,2.6163,2.5978,2.4883,2.3649,2.2446,2.2209,2.1174,1.9726,1.964,1.9118,1.8309,1.8269,1.8134,1.7813,1.754,1.6926,1.6163,1.6125,1.586,1.541,1.5088,1.4989,1.4922,1.4611,1.4387,1.4231,1.387,1.3564,1.3359,1.2915,1.279,1.3062,1.279,1.2616,1.2572,1.2487,1.2123,1.1592,1.1518,1.1317,1.0863,1.0397,1.0064,0.9943,0.9777,0.9777,0.9925,0.9769,0.9699,0.9718,0.9437,0.9247,0.9109,0.8799,0.8562,0.8391,0.7765,0.7124,0.652,0.6097,0.5867,0.5819,0.5448,0.5227,0.5279,0.5293,0.5293,0.5242,0.4879,0.455,0.4098,0.3928,0.3657,0.3248,0.3189,0.3135,0.2909,0.3002,0.3052,0.2917,0.2636,0.2125,0.1478,0.0714,0.0092,-0.0206,-0.0294,-0.0382,-0.0785,-0.0963,-0.1343,-0.2012,-0.2299,-0.2765,-0.3376,-0.3622,-0.3774,-0.399,-0.4268,-0.4679,-0.5351,-0.5626,-0.6017,-0.6435,-0.6653,-0.6886,-0.7055,-0.7454,-0.787,-0.8487,-0.9362,-1.0391,-1.102,-1.1152,-1.1445,2.7133,2.685,2.5163,2.4242,2.3938,2.322,2.1964,2.0446,2.0425,1.9882,1.9006,1.8944,1.8967,1.8829,1.7965,1.6936,1.6193,1.6134,1.5889,1.541,1.5381,1.5371,1.5352,1.5352,1.5137,1.4764,1.4343,1.3818,1.3288,1.3591,1.3837,1.3837,1.3756,1.3766,1.3671,1.3263,1.2871,1.2365,1.2325,1.207,1.1641,1.1516,1.1225,1.0795,1.0275,1.0275,1.06,1.0249,0.9999,0.9973,0.9713,0.9369,0.8964,0.8603,0.8216,0.7808,0.7328,0.7047,0.6958,0.655,0.631,0.6246,0.5932,0.5771,0.5926,0.5703,0.5725,0.6182,0.5972,0.5477,0.4755,0.4411,0.4073,0.3735,0.375,0.3537,0.3001,0.3344,0.3348,0.3139,0.3013,0.2587,0.1739,0.1164,0.0619,0.0189,0.0,-0.009,-0.0292,-0.0627,-0.094,-0.123,-0.1631,-0.221,-0.3126,-0.3372,-0.3486,-0.3755,-0.4034,-0.4334,-0.4696,-0.5108,-0.561,-0.6087,-0.6441,-0.6702,-0.6872,-0.7139,-0.7551,-0.8118,-0.8802,-0.9644,-1.0454,-1.0575,-1.0818,2.7628,2.6928,2.5931,2.4937,2.4072,2.3512,2.2437,2.1167,2.0786,2.0304,1.9768,1.9704,1.9704,1.965,1.9315,1.8159,1.6574,1.6494,1.6073,1.5478,1.5517,1.5604,1.5604,1.5672,1.5603,1.5366,1.5034,1.458,1.4122,1.428,1.434,1.428,1.4048,1.3882,1.3811,1.3439,1.3088,1.2943,1.2909,1.2691,1.2286,1.2236,1.2163,1.2055,1.1409,1.0964,1.0795,1.0608,1.0377,1.0017,0.9738,0.9402,0.8966,0.8443,0.8082,0.7906,0.7731,0.7648,0.7586,0.7252,0.7,0.6958,0.6598,0.6458,0.6711,0.6759,0.69,0.7187,0.7002,0.6615,0.6211,0.5404,0.4602,0.4206,0.3999,0.384,0.3665,0.3788,0.3832,0.3434,0.3045,0.2566,0.2245,0.1765,0.1247,0.0717,0.0588,0.0393,0.0023,-0.0247,-0.0426,-0.0761,-0.1074,-0.1453,-0.2097,-0.2721,-0.3101,-0.3464,-0.3796,-0.4034,-0.4355,-0.4809,-0.5291,-0.576,-0.6179,-0.6526,-0.6696,-0.7055,-0.7426,-0.7966,-0.8643,-0.907,-0.9929,-1.003,-1.0199,2.7806,2.6974,2.6395,2.5612,2.4576,2.4249,2.3317,2.2058,2.1643,2.114,2.067,2.0581,2.0581,2.0581,2.0581,1.9564,1.7832,1.7623,1.7032,1.6106,1.6153,1.6064,1.5856,1.6048,1.6048,1.5747,1.5469,1.5097,1.4742,1.4867,1.4938,1.4907,1.449,1.4267,1.4165,1.3642,1.3338,1.3338,1.3314,1.3194,1.2949,1.2914,1.2963,1.2967,1.2536,1.1996,1.1468,1.1276,1.0956,1.0474,1.0232,0.9898,0.9298,0.8459,0.8082,0.8177,0.8082,0.7992,0.7972,0.7731,0.7593,0.7587,0.7313,0.7189,0.735,0.7437,0.764,0.7739,0.7541,0.7303,0.7206,0.6302,0.5339,0.4855,0.4602,0.4393,0.4312,0.4516,0.4458,0.4094,0.3652,0.3151,0.268,0.2318,0.1814,0.1217,0.1128,0.0891,0.0363,0.0202,0.0067,-0.0381,-0.0515,-0.0851,-0.1319,-0.183,-0.2497,-0.2923,-0.3445,-0.3704,-0.3965,-0.4447,-0.4923,-0.5394,-0.5852,-0.6243,-0.6632,-0.6992,-0.7405,-0.7884,-0.8124,-0.8467,-0.905,-0.9504,-0.9694,2.7697,2.7162,2.6627,2.6056,2.5512,2.5379,2.4616,2.3283,2.3097,2.2441,2.1624,2.1596,2.1553,2.1585,2.1565,2.0938,1.9992,1.9614,1.8668,1.7413,1.7307,1.6863,1.6206,1.6637,1.6588,1.6085,1.5647,1.5263,1.4985,1.5368,1.558,1.5546,1.5064,1.4769,1.4935,1.4016,1.3586,1.3563,1.3563,1.3563,1.3586,1.3515,1.3515,1.3539,1.3467,1.3218,1.274,1.2261,1.1751,1.1318,1.125,1.0859,0.9912,0.8816,0.8259,0.8574,0.828,0.8054,0.8034,0.8021,0.7979,0.7968,0.7903,0.7829,0.7772,0.7712,0.7727,0.7879,0.7656,0.7486,0.763,0.6993,0.6203,0.5639,0.5478,0.5321,0.519,0.5414,0.5519,0.5007,0.4698,0.4165,0.3292,0.2947,0.2611,0.1935,0.166,0.1438,0.0883,0.0672,0.0448,0.0157,-0.0112,-0.0426,-0.0672,-0.0985,-0.1697,-0.2342,-0.2926,-0.335,-0.3502,-0.3873,-0.4399,-0.4891,-0.5545,-0.598,-0.6447,-0.6808,-0.7034,-0.7426,-0.7627,-0.7951,-0.8464,-0.8958,-0.9188,2.7886,2.736,2.6821,2.6283,2.5769,2.5414,2.4746,2.3956,2.3571,2.3001,2.2431,2.2347,2.2334,2.2347,2.2347,2.2157,2.1848,2.1658,2.0586,1.8907,1.8407,1.8116,1.7831,1.7718,1.7611,1.7341,1.6776,1.629,1.5977,1.5798,1.5573,1.5183,1.4769,1.4531,1.4485,1.3921,1.361,1.361,1.361,1.361,1.361,1.361,1.361,1.361,1.361,1.3515,1.3314,1.2846,1.232,1.181,1.1785,1.1402,1.0539,0.9632,0.9199,0.925,0.8918,0.8683,0.8643,0.8419,0.8283,0.8286,0.8247,0.8346,0.8501,0.8453,0.8542,0.8706,0.8393,0.8121,0.807,0.7552,0.6875,0.6268,0.5886,0.5771,0.5782,0.5912,0.5948,0.5918,0.5655,0.5113,0.4505,0.4195,0.3664,0.269,0.2432,0.2125,0.1571,0.1073,0.0761,0.0605,0.0314,0.0,-0.0269,-0.056,-0.1029,-0.1652,-0.2255,-0.286,-0.3056,-0.3344,-0.3869,-0.4482,-0.5135,-0.5701,-0.6184,-0.6511,-0.6738,-0.7048,-0.7356,-0.7731,-0.8136,-0.8403,-0.8635,2.8113,2.7582,2.7039,2.6508,2.6015,2.5632,2.511,2.4508,2.4137,2.3554,2.2972,2.2848,2.286,2.2848,2.2848,2.286,2.286,2.2848,2.1994,2.0517,1.9837,1.9362,1.8799,1.8322,1.8228,1.8294,1.7749,1.7181,1.676,1.625,1.5741,1.5268,1.4624,1.4324,1.4262,1.3859,1.361,1.361,1.361,1.361,1.361,1.361,1.361,1.361,1.361,1.361,1.3597,1.3266,1.2846,1.2303,1.1864,1.1301,1.0767,1.0036,0.9678,0.9766,0.9469,0.9228,0.9179,0.8846,0.861,0.8606,0.8596,0.8588,0.8738,0.8794,0.8985,0.8931,0.8645,0.8399,0.8318,0.7907,0.7419,0.7091,0.6532,0.6283,0.6481,0.6673,0.6691,0.6634,0.6394,0.5959,0.5496,0.4968,0.4572,0.3653,0.321,0.2786,0.2205,0.17,0.141,0.1074,0.0672,0.0359,0.009,-0.0179,-0.0448,-0.0962,-0.1497,-0.2121,-0.2544,-0.2879,-0.3341,-0.4063,-0.4739,-0.5308,-0.5793,-0.6029,-0.6258,-0.6662,-0.7006,-0.7273,-0.7558,-0.7793,-0.8021,2.8363,2.7778,2.728,2.677,2.6226,2.6089,2.5585,2.4918,2.47,2.4067,2.3303,2.3115,2.3078,2.3095,2.3047,2.3047,2.3095,2.3065,2.2797,2.2108,2.1484,2.0558,1.9252,1.8651,1.8643,1.8895,1.8417,1.7857,1.7311,1.6708,1.6245,1.5616,1.4911,1.4443,1.4468,1.3969,1.3918,1.3976,1.3842,1.3776,1.3739,1.3681,1.3644,1.361,1.361,1.361,1.3586,1.3539,1.3338,1.2763,1.1736,1.1123,1.0797,1.0127,1.0018,1.0312,0.9902,0.9715,0.9587,0.9259,0.9027,0.9013,0.8965,0.8832,0.8729,0.8905,0.8898,0.8662,0.8527,0.8446,0.8372,0.8113,0.7899,0.7802,0.7312,0.709,0.7217,0.7605,0.7611,0.723,0.6993,0.6718,0.6145,0.555,0.5074,0.4527,0.403,0.3414,0.2893,0.2455,0.2034,0.1633,0.1228,0.0806,0.056,0.0381,0.0112,-0.0359,-0.0828,-0.1297,-0.1988,-0.241,-0.3012,-0.3734,-0.4278,-0.4853,-0.5313,-0.5572,-0.5852,-0.6179,-0.6477,-0.6704,-0.6958,-0.7217,-0.7398,2.8913,2.8036,2.7873,2.7272,2.6396,2.5958,2.5653,2.5285,2.4544,2.4104,2.3684,2.3283,2.3108,2.3108,2.3108,2.3095,2.3095,2.3095,2.307,2.2877,2.2733,2.1704,2.0382,1.9615,1.9397,1.9462,1.9004,1.8507,1.7975,1.7057,1.6381,1.5854,1.5543,1.5426,1.5429,1.528,1.5294,1.5238,1.4854,1.4478,1.421,1.4186,1.3975,1.3644,1.361,1.361,1.361,1.361,1.3563,1.3348,1.245,1.1892,1.1795,1.1317,1.0955,1.0783,1.0676,1.0455,1.0116,0.9696,0.9469,0.9441,0.9394,0.9376,0.9288,0.9359,0.9215,0.8947,0.8834,0.8712,0.8467,0.8311,0.8167,0.7959,0.7903,0.7817,0.7734,0.8063,0.8235,0.7783,0.7655,0.7348,0.6912,0.6521,0.6108,0.5399,0.4763,0.4241,0.3724,0.3056,0.2546,0.2319,0.194,0.1429,0.1051,0.0918,0.0627,0.0202,-0.0157,-0.0426,-0.1185,-0.1899,-0.2699,-0.3561,-0.38,-0.426,-0.4787,-0.5183,-0.5469,-0.5669,-0.6077,-0.6371,-0.6483,-0.6696,-0.6774,2.9126,2.8122,2.8109,2.7469,2.6512,2.6122,2.5824,2.546,2.4732,2.4343,2.4136,2.3446,2.3246,2.3464,2.3221,2.3108,2.3095,2.3095,2.2832,2.2305,2.1854,2.1365,2.084,2.025,1.9798,1.9773,1.95,1.9054,1.8497,1.7486,1.6864,1.6467,1.5856,1.5799,1.6155,1.5752,1.5706,1.5717,1.5383,1.4949,1.472,1.4697,1.4419,1.4046,1.3918,1.3847,1.3658,1.361,1.3538,1.3256,1.2813,1.2483,1.2297,1.2037,1.1757,1.1479,1.1369,1.1126,1.0795,1.0263,0.9913,0.9844,0.9746,0.9619,0.9579,0.9599,0.945,0.9299,0.9259,0.9047,0.8712,0.8496,0.8332,0.8224,0.8505,0.8531,0.8034,0.8481,0.86,0.8342,0.8156,0.8002,0.7482,0.7164,0.6685,0.6046,0.5318,0.4916,0.4511,0.374,0.3123,0.294,0.2605,0.2095,0.1563,0.1319,0.1074,0.065,0.0314,0.0112,-0.0605,-0.1431,-0.221,-0.2965,-0.3293,-0.3668,-0.4176,-0.4596,-0.4787,-0.5096,-0.5599,-0.5927,-0.6034,-0.6319,-0.6377,2.9164,2.8185,2.8134,2.7507,2.665,2.6436,2.6097,2.5649,2.4933,2.4695,2.4499,2.3584,2.3346,2.3866,2.3271,2.3095,2.3095,2.3095,2.2569,2.1882,2.1154,2.0828,2.1267,2.0275,1.9849,1.9798,1.9798,1.9501,1.8972,1.8128,1.7746,1.7485,1.6408,1.6267,1.6916,1.6197,1.5777,1.6127,1.5728,1.5345,1.521,1.5142,1.4937,1.4535,1.4326,1.414,1.3847,1.3718,1.3572,1.3099,1.2991,1.272,1.2411,1.238,1.2307,1.2214,1.1934,1.1758,1.1479,1.0835,1.041,1.0332,1.0058,0.9765,0.9882,0.994,0.9938,0.9687,0.9678,0.9478,0.9108,0.8732,0.8537,0.8559,0.9007,0.9005,0.8709,0.8908,0.9106,0.8732,0.8626,0.8395,0.7931,0.7307,0.6714,0.6459,0.5815,0.5396,0.5038,0.4478,0.3957,0.3609,0.3205,0.2741,0.2208,0.1719,0.1408,0.1074,0.0739,0.0359,-0.0314,-0.1052,-0.1698,-0.2299,-0.2854,-0.3252,-0.3542,-0.3873,-0.4132,-0.4548,-0.5096,-0.5334,-0.5534,-0.5992,-0.6206,2.939,2.8687,2.8285,2.772,2.7052,2.6176,2.5975,2.6172,2.4782,2.4531,2.4474,2.3609,2.3246,2.3321,2.3208,2.3095,2.3095,2.3083,2.292,2.2732,2.2121,2.1606,2.1343,2.0326,1.9836,1.9798,1.9798,1.9721,1.9431,1.8982,1.8871,1.9004,1.8289,1.845,1.8721,1.7811,1.7561,1.7524,1.6702,1.6005,1.5738,1.5693,1.5481,1.5028,1.4639,1.4373,1.428,1.4244,1.419,1.3925,1.3419,1.3019,1.2813,1.276,1.268,1.2483,1.2523,1.2306,1.1727,1.1408,1.1153,1.0798,1.0873,1.1004,1.0681,1.0904,1.0745,1.0371,1.0157,0.9961,0.9558,0.9208,0.9016,0.9018,0.9245,0.9436,0.9268,0.9467,0.9474,0.9152,0.883,0.8489,0.8184,0.7732,0.7198,0.6789,0.6316,0.5878,0.5501,0.5123,0.4744,0.4312,0.3851,0.3382,0.294,0.2364,0.1876,0.1497,0.1097,0.0829,0.0134,-0.0649,-0.1274,-0.1921,-0.2571,-0.286,-0.3034,-0.3458,-0.3785,-0.4202,-0.4548,-0.4831,-0.5156,-0.5637,-0.5992,2.9453,2.8838,2.8335,2.7783,2.7216,2.6424,2.6197,2.6235,2.5272,2.4908,2.4895,2.4029,2.3552,2.3484,2.3233,2.3095,2.302,2.2819,2.2857,2.2732,2.208,2.1506,2.133,2.0426,1.9798,1.9811,1.9798,1.9798,1.966,1.9334,1.9221,1.9673,1.9058,1.8758,1.9259,1.8643,1.8017,1.7729,1.7287,1.6791,1.6566,1.6522,1.6286,1.5762,1.5211,1.4823,1.4812,1.4869,1.4858,1.4721,1.4327,1.3742,1.3317,1.3238,1.3159,1.309,1.2923,1.2725,1.2215,1.1837,1.1533,1.1094,1.1293,1.1386,1.1304,1.144,1.1465,1.1255,1.0983,1.0554,1.0128,0.9726,0.9518,0.9553,0.9925,1.0221,1.024,1.0181,1.001,0.9692,0.9425,0.8952,0.8526,0.8027,0.7448,0.6901,0.653,0.6122,0.6001,0.5637,0.5373,0.4961,0.4487,0.4049,0.3627,0.3075,0.241,0.1943,0.1432,0.1232,0.0851,0.0,-0.0849,-0.1407,-0.1921,-0.2299,-0.2544,-0.2968,-0.3306,-0.3527,-0.3851,-0.4308,-0.4718,-0.5048,-0.5399,2.9377,2.8825,2.8247,2.7708,2.7231,2.6713,2.6461,2.6411,2.5837,2.541,2.5297,2.4406,2.3841,2.3728,2.3308,2.312,2.2995,2.2769,2.2819,2.3108,2.2067,2.1757,2.1594,2.0978,2.0326,2.0075,1.9874,1.9823,1.9685,1.9434,1.9547,1.9723,1.9158,1.9271,1.9284,1.8644,1.8242,1.7903,1.7363,1.72,1.7242,1.7255,1.6994,1.6461,1.5838,1.5423,1.5433,1.5444,1.5511,1.5522,1.5444,1.4869,1.4188,1.3871,1.3894,1.4016,1.3788,1.3401,1.2912,1.2481,1.2086,1.1435,1.1446,1.1554,1.1713,1.1715,1.1896,1.2033,1.1877,1.1325,1.0849,1.0636,1.033,1.0287,1.0858,1.1233,1.1262,1.096,1.0805,1.0474,0.9992,0.941,0.8826,0.829,0.7636,0.7058,0.6709,0.6468,0.6355,0.6142,0.5852,0.5545,0.5075,0.4491,0.4049,0.3763,0.3098,0.2477,0.1923,0.1703,0.1502,0.0805,0.0022,-0.0626,-0.1117,-0.1585,-0.203,-0.241,-0.2679,-0.2821,-0.3265,-0.3829,-0.4202,-0.4465,-0.4787,2.8976,2.88,2.7846,2.7356,2.7205,2.6725,2.6487,2.6399,2.5875,2.5347,2.4876,2.4293,2.3778,2.3346,2.3195,2.3095,2.307,2.2995,2.3246,2.3584,2.2844,2.2619,2.2443,2.1845,2.1443,2.1029,2.0426,1.9949,1.9849,1.9736,1.9849,2.0339,2.0214,2.0326,2.0162,1.971,1.8732,1.8242,1.7516,1.7225,1.7446,1.7549,1.7397,1.6942,1.6386,1.6081,1.5974,1.5983,1.5983,1.5983,1.5962,1.5654,1.5242,1.5051,1.5051,1.496,1.488,1.4434,1.379,1.3627,1.293,1.2191,1.2086,1.2155,1.2155,1.2198,1.2463,1.2539,1.2592,1.2273,1.1759,1.1634,1.1521,1.1384,1.1498,1.1866,1.1889,1.193,1.1907,1.16,1.0771,0.9794,0.9181,0.8594,0.803,0.7518,0.7198,0.7027,0.6937,0.6641,0.6285,0.598,0.5615,0.4988,0.4381,0.4184,0.3763,0.312,0.2613,0.2315,0.2044,0.1567,0.0939,0.0248,-0.054,-0.1206,-0.1585,-0.1852,-0.2121,-0.2348,-0.286,-0.3391,-0.3609,-0.3825,-0.4242,2.8725,2.8423,2.762,2.7329,2.7216,2.6725,2.6487,2.6449,2.6185,2.5586,2.4946,2.4519,2.3898,2.3296,2.3095,2.3095,2.3158,2.3446,2.3728,2.3853,2.3396,2.3095,2.3007,2.2305,2.182,2.1405,2.0916,2.0476,2.0264,1.9911,2.0037,2.01,2.0213,2.025,2.0175,1.966,1.8945,1.8355,1.7915,1.7762,1.7968,1.8179,1.816,1.7725,1.7269,1.6898,1.6607,1.6633,1.6676,1.6655,1.6591,1.6484,1.6333,1.6173,1.5976,1.5622,1.5531,1.5269,1.4678,1.454,1.4079,1.3345,1.3202,1.3358,1.3386,1.341,1.3226,1.3206,1.3194,1.3043,1.2483,1.2541,1.2383,1.232,1.2512,1.2753,1.2861,1.3,1.2878,1.258,1.1544,1.0471,0.9455,0.8893,0.8393,0.8006,0.7677,0.7558,0.7495,0.7189,0.681,0.652,0.6173,0.5502,0.4923,0.4618,0.4421,0.3825,0.3255,0.2982,0.2615,0.216,0.1666,0.1066,0.0252,-0.0537,-0.0939,-0.1139,-0.1497,-0.1834,-0.2188,-0.2541,-0.2854,-0.3208,-0.3558,2.8311,2.7883,2.7379,2.7153,2.709,2.6688,2.6487,2.6474,2.6336,2.5699,2.4863,2.46,2.401,2.3308,2.312,2.3158,2.3296,2.3816,2.4079,2.4255,2.3672,2.3333,2.3145,2.246,2.1945,2.2033,2.1669,2.1333,2.0704,2.0413,2.0162,2.0253,2.0139,2.0013,1.9913,1.9913,1.8943,1.8628,1.8437,1.8738,1.8796,1.9094,1.9269,1.878,1.8251,1.7653,1.7308,1.7117,1.7128,1.7094,1.7073,1.7052,1.7136,1.7107,1.6701,1.6083,1.594,1.5737,1.5473,1.5377,1.5089,1.4338,1.4149,1.4437,1.4648,1.4399,1.4169,1.4127,1.4137,1.3893,1.3427,1.3332,1.3225,1.3129,1.3445,1.3815,1.3766,1.3744,1.3585,1.3027,1.2113,1.1255,1.0299,0.9431,0.896,0.8575,0.8259,0.8124,0.8021,0.7752,0.7419,0.7133,0.6704,0.6039,0.5502,0.5118,0.4901,0.4548,0.4005,0.3597,0.3197,0.2785,0.2296,0.1826,0.1186,0.0469,0.0045,-0.0492,-0.0895,-0.123,-0.1429,-0.1697,-0.2008,-0.2299,-0.2608,2.7431,2.7379,2.6826,2.6587,2.6669,2.6627,2.6521,2.6492,2.6051,2.5385,2.493,2.4318,2.3809,2.3374,2.3218,2.3482,2.3847,2.4198,2.4697,2.516,2.4482,2.4192,2.4337,2.3434,2.2854,2.272,2.2401,2.1631,2.115,2.1163,2.0985,2.08,2.0963,2.1251,2.0984,2.0409,1.9953,1.9672,1.9057,1.8889,1.9246,1.9484,1.9494,1.9244,1.8588,1.7991,1.777,1.7465,1.7212,1.7212,1.7212,1.7178,1.7212,1.7178,1.7157,1.7039,1.6967,1.6798,1.6327,1.622,1.594,1.5269,1.4972,1.4985,1.5178,1.5453,1.5406,1.5531,1.5459,1.506,1.4452,1.4571,1.4339,1.4139,1.415,1.4348,1.4367,1.4325,1.4173,1.3707,1.2868,1.2106,1.1238,1.0347,0.9565,0.9188,0.8878,0.8736,0.8561,0.8308,0.8036,0.773,0.7279,0.6613,0.6103,0.5696,0.5373,0.5156,0.4705,0.4214,0.3865,0.3481,0.3044,0.2528,0.1947,0.1319,0.0692,0.0156,-0.0291,-0.0604,-0.0805,-0.0984,-0.1186,-0.1454,-0.1765,2.7762,2.7443,2.7589,2.7637,2.7637,2.7637,2.7637,2.7419,2.6641,2.6116,2.5715,2.489,2.4356,2.4163,2.4137,2.4458,2.499,2.5344,2.5782,2.6117,2.5574,2.5128,2.4774,2.4176,2.3662,2.3259,2.3204,2.3073,2.2292,2.1457,2.1055,2.1046,2.1161,2.124,2.1528,2.091,2.0297,1.9797,1.942,1.947,1.9791,1.9825,1.9716,1.9664,1.8643,1.8183,1.7957,1.7539,1.7225,1.7212,1.7212,1.7212,1.7212,1.7199,1.7199,1.7199,1.7178,1.7073,1.6896,1.6873,1.6553,1.6284,1.6015,1.5892,1.5932,1.6056,1.6194,1.6182,1.5942,1.559,1.5304,1.5382,1.5236,1.5069,1.4925,1.4993,1.5017,1.4846,1.4665,1.4127,1.363,1.2923,1.2157,1.1236,1.043,0.9922,0.9646,0.9516,0.9277,0.8967,0.8658,0.8326,0.7815,0.721,0.674,0.6316,0.5926,0.5647,0.5281,0.4841,0.4557,0.4187,0.3768,0.3309,0.2752,0.2091,0.1364,0.0938,0.0581,0.0201,-0.0202,-0.0313,-0.047,-0.094,-0.123,2.8648,2.8065,2.8363,2.8505,2.8505,2.8505,2.8473,2.836,2.7405,2.693,2.6708,2.5925,2.5478,2.5481,2.5538,2.5864,2.6419,2.687,2.7202,2.7172,2.6837,2.6297,2.5835,2.5191,2.4654,2.3679,2.4477,2.4216,2.3375,2.251,2.1812,2.143,2.1438,2.1338,2.1223,2.1094,2.072,1.9996,1.9915,2.0095,2.0354,2.0025,1.9854,1.9473,1.8806,1.81,1.8009,1.7525,1.7225,1.7212,1.7212,1.7212,1.7212,1.7212,1.7212,1.7212,1.7212,1.7199,1.7146,1.7144,1.7212,1.7094,1.6968,1.6604,1.6629,1.668,1.6659,1.6659,1.6454,1.6182,1.5986,1.5952,1.5796,1.5718,1.5654,1.5766,1.5778,1.5467,1.5242,1.4955,1.4446,1.3858,1.3051,1.2113,1.135,1.0702,1.0429,1.0283,1.0053,0.9774,0.9437,0.9147,0.868,0.8089,0.7496,0.7042,0.6613,0.6219,0.5856,0.5539,0.5299,0.4937,0.4507,0.4024,0.3529,0.2993,0.2384,0.1919,0.1477,0.1096,0.076,0.047,0.0179,-0.0313,-0.0671,3.0068,2.9404,2.8794,2.857,2.8602,2.8505,2.8524,2.8643,2.7931,2.7591,2.74,2.7133,2.6838,2.6932,2.7049,2.7412,2.8005,2.8091,2.8321,2.846,2.8298,2.7508,2.6943,2.65,2.6237,2.5296,2.5533,2.5273,2.4557,2.379,2.3212,2.2869,2.2392,2.1877,2.1564,2.1458,2.1145,2.0619,2.0552,2.0529,2.0491,2.0152,1.9852,1.9603,1.8806,1.81,1.8074,1.7539,1.7212,1.7212,1.7212,1.7212,1.7212,1.7212,1.7212,1.7212,1.7212,1.7212,1.7212,1.7212,1.7212,1.7199,1.7136,1.7052,1.7031,1.7115,1.7136,1.706,1.6871,1.6765,1.6573,1.6411,1.6303,1.6216,1.6173,1.616,1.6117,1.5932,1.5742,1.5658,1.5235,1.4593,1.4081,1.3197,1.2194,1.1526,1.1155,1.1005,1.0966,1.0705,1.0355,1.0022,0.9649,0.9071,0.8362,0.79,0.7525,0.7111,0.6706,0.6374,0.6067,0.5669,0.5203,0.481,0.4332,0.3877,0.3429,0.294,0.2497,0.2077,0.1676,0.1273,0.0872,0.0447,0.0067,3.0447,3.019,2.9901,2.9794,2.9794,2.9794,2.9794,2.9633,2.8733,2.7873,2.7364,2.7584,2.7769,2.7866,2.826,2.8743,2.9249,2.9292,2.9293,2.9157,2.8884,2.8082,2.7485,2.7088,2.6708,2.5869,2.6063,2.6282,2.5755,2.4944,2.4784,2.4345,2.3747,2.2975,2.254,2.1941,2.1542,2.1251,2.1095,2.1008,2.0581,2.0177,1.9969,2.0242,1.8793,1.8401,1.8401,1.7656,1.7342,1.722,1.724,1.724,1.724,1.724,1.724,1.724,1.724,1.724,1.7233,1.7233,1.7212,1.7212,1.7212,1.7212,1.7233,1.722,1.7199,1.7212,1.7233,1.7073,1.701,1.6913,1.685,1.6723,1.6625,1.6603,1.6518,1.6367,1.6259,1.6207,1.5815,1.5274,1.4808,1.4334,1.3288,1.2367,1.2036,1.1747,1.1727,1.1665,1.1328,1.0943,1.0569,1.0004,0.93,0.8841,0.8419,0.7975,0.7558,0.7119,0.6719,0.6279,0.583,0.5475,0.5135,0.4722,0.4329,0.3909,0.3382,0.2719,0.2275,0.1941,0.1542,0.1164,0.0872,3.0612,3.0612,3.0642,3.0672,3.0642,3.0672,3.0702,3.0585,2.9836,2.8855,2.7966,2.8565,2.8811,2.8971,2.9508,2.9987,3.0277,3.0205,2.9928,2.9808,2.9531,2.8761,2.8136,2.7877,2.7972,2.6756,2.6648,2.7021,2.6739,2.594,2.5965,2.5959,2.5499,2.4565,2.2982,2.2432,2.1931,2.1684,2.1423,2.141,2.1013,2.0439,2.0307,2.0585,1.9413,1.8839,1.8794,1.8246,1.7797,1.7637,1.7537,1.7393,1.7393,1.7385,1.7372,1.7372,1.7385,1.7372,1.7365,1.7261,1.7233,1.7212,1.724,1.7274,1.7274,1.7282,1.7323,1.7274,1.7274,1.7253,1.7253,1.7178,1.7191,1.7065,1.7102,1.7102,1.7039,1.6934,1.6842,1.6752,1.6362,1.6083,1.5653,1.515,1.4096,1.322,1.2871,1.2604,1.2487,1.2418,1.2308,1.1914,1.1518,1.0886,1.0248,0.9795,0.9308,0.8733,0.825,0.7697,0.7259,0.686,0.6395,0.5947,0.5674,0.5507,0.52,0.4783,0.4015,0.3183,0.2829,0.2521,0.2142,0.1786,0.1631,3.0583,3.0598,3.0732,3.0762,3.0821,3.0791,3.0881,3.0999,3.0837,3.0353,2.9662,2.9931,2.9987,3.0138,3.0479,3.0819,3.0877,3.0578,3.0201,3.0039,2.9997,2.9799,2.962,2.9374,2.9028,2.8677,2.8345,2.7999,2.7499,2.7443,2.7497,2.7399,2.6925,2.5799,2.3314,2.2475,2.2156,2.2011,2.1684,2.1742,2.1618,2.0994,2.0992,2.0914,2.016,1.9535,1.9305,1.8719,1.829,1.8196,1.7928,1.7828,1.7821,1.7821,1.7801,1.7801,1.7801,1.7801,1.7767,1.7447,1.7344,1.7282,1.7323,1.7432,1.7412,1.744,1.7468,1.7419,1.7453,1.7357,1.7337,1.7316,1.737,1.7378,1.7427,1.7427,1.7365,1.7323,1.7199,1.7115,1.7094,1.6964,1.6539,1.5948,1.4853,1.4084,1.3696,1.3476,1.3393,1.3263,1.3211,1.2871,1.2477,1.1985,1.1369,1.0739,1.0158,0.9563,0.901,0.85,0.801,0.762,0.7112,0.6522,0.6331,0.6289,0.599,0.5653,0.4843,0.4081,0.3473,0.3101,0.2719,0.2406,0.2233,3.0544,3.0881,3.0499,3.0646,3.1073,3.1043,3.1043,3.1028,3.0717,3.0198,2.9694,2.9771,2.9826,2.9958,3.0123,3.0522,3.0687,3.0193,2.9789,2.934,2.9669,2.943,2.9325,2.9475,2.9445,2.8966,2.8846,2.8502,2.759,2.8289,2.8487,2.8338,2.7859,2.6574,2.5064,2.4057,2.3497,2.2772,2.2457,2.2328,2.21,2.1792,2.1667,2.1831,2.0767,2.018,1.9971,1.9265,1.8781,1.8629,1.8324,1.8266,1.8266,1.8266,1.8266,1.8266,1.8266,1.8299,1.8324,1.8153,1.7854,1.7625,1.7591,1.7706,1.7494,1.7747,1.7707,1.7659,1.7787,1.7686,1.7516,1.7455,1.7468,1.7468,1.7475,1.7475,1.7434,1.7447,1.7406,1.7365,1.7344,1.7136,1.6765,1.668,1.5812,1.5435,1.5136,1.4717,1.4541,1.4292,1.4141,1.3782,1.3388,1.3001,1.2513,1.1943,1.1373,1.0811,1.0103,0.9419,0.896,0.8446,0.7979,0.7467,0.728,0.7091,0.6643,0.6176,0.569,0.5065,0.4395,0.3785,0.3359,0.3025,0.2765,3.0336,3.066,3.0069,3.0243,3.0907,3.1116,3.119,3.1115,3.0638,3.0101,2.9786,2.9687,2.9609,2.9609,2.9624,2.9714,3.0103,2.952,2.9146,2.8667,2.9011,2.9131,2.916,2.9116,2.919,2.8936,2.8753,2.8408,2.8079,2.9082,2.94,2.9175,2.8588,2.7609,2.635,2.5191,2.4364,2.3787,2.3626,2.3213,2.306,2.2844,2.2698,2.2431,2.1799,2.1126,2.0611,1.9953,1.9164,1.8979,1.8803,1.8726,1.8726,1.8731,1.8731,1.8736,1.8808,1.875,1.866,1.885,1.8472,1.7921,1.8133,1.8167,1.8022,1.8311,1.8271,1.8218,1.8263,1.8159,1.7974,1.7874,1.7828,1.7828,1.776,1.776,1.7808,1.7841,1.7652,1.7611,1.7516,1.7248,1.7102,1.7081,1.6826,1.6714,1.6604,1.6126,1.5601,1.5276,1.4983,1.4675,1.4352,1.3986,1.3635,1.3266,1.2666,1.2047,1.1312,1.055,0.9785,0.9267,0.8852,0.839,0.7992,0.7592,0.7147,0.6679,0.6198,0.5733,0.5216,0.4631,0.4063,0.3778,0.3558,3.007,3.0011,2.9531,2.9661,3.0327,3.089,3.1246,3.1407,3.0823,3.0494,3.0372,2.9744,2.9547,2.949,2.9475,2.9487,2.9517,2.8921,2.8637,2.8562,2.8682,2.8951,2.9101,2.9026,2.9086,2.8936,2.8813,2.8723,2.8622,2.9041,2.9624,3.0028,2.9385,2.8532,2.7335,2.595,2.5126,2.4794,2.4307,2.404,2.3944,2.3808,2.3494,2.3143,2.2702,2.2058,2.1492,2.0836,2.022,1.9755,1.9325,1.9195,1.9157,1.9184,1.9207,1.9262,1.935,1.9169,1.9043,1.9299,1.9244,1.8841,1.8893,1.893,1.8869,1.885,1.8865,1.8793,1.8798,1.876,1.8664,1.8563,1.8461,1.8358,1.824,1.8279,1.8358,1.824,1.7996,1.7855,1.774,1.7605,1.7632,1.7611,1.7496,1.7372,1.7214,1.7013,1.6505,1.5998,1.5744,1.5555,1.5265,1.4983,1.4665,1.4372,1.3795,1.314,1.2519,1.1789,1.0952,1.0175,0.9793,0.9321,0.8631,0.8116,0.7675,0.7189,0.6691,0.631,0.6219,0.554,0.5017,0.4826,0.4613,2.9563,3.0233,2.9232,2.9197,2.9779,3.0003,3.0629,3.1391,3.1256,3.0763,2.9834,2.9696,2.9325,2.8876,2.8408,2.8558,2.8667,2.8652,2.8278,2.8233,2.8442,2.8667,2.8891,2.9086,2.9086,2.9146,2.9086,2.8828,2.8244,2.8648,2.9579,3.0178,2.9445,2.8933,2.8053,2.6557,2.5944,2.5359,2.4779,2.4566,2.441,2.4089,2.3799,2.3494,2.3122,2.2453,2.1763,2.1149,2.0489,1.9808,1.9614,1.9545,1.9599,1.9636,1.9654,1.9762,1.9836,1.9821,1.9749,1.9892,1.9925,1.9767,1.9785,1.9409,1.9262,1.9225,1.9384,1.9332,1.9332,1.9314,1.9165,1.9035,1.8997,1.894,1.8803,1.8726,1.8784,1.8707,1.847,1.8378,1.8266,1.8127,1.8155,1.8016,1.7915,1.7848,1.7727,1.7578,1.7289,1.6752,1.642,1.6247,1.6051,1.5744,1.569,1.5445,1.4834,1.4208,1.3618,1.2923,1.196,1.1246,1.0805,1.0174,0.9377,0.8748,0.8206,0.7765,0.7384,0.7641,0.7558,0.6734,0.6033,0.5798,0.5545,2.9041,2.9579,2.8637,2.8603,2.9175,2.946,3.0088,3.0702,3.0761,3.0253,2.9636,2.9307,2.8981,2.8577,2.8019,2.7884,2.8188,2.8502,2.8412,2.8353,2.8382,2.8771,2.9056,2.9071,2.8891,2.9041,2.9116,2.8921,2.8304,2.8633,2.9549,2.9909,2.9041,2.8936,2.8382,2.7126,2.6183,2.5704,2.5232,2.4754,2.441,2.4171,2.3969,2.3565,2.3146,2.2577,2.1784,2.1216,2.0647,1.9906,1.9741,1.9759,1.9815,1.9866,1.999,2.0078,2.0115,2.0133,2.0115,2.017,2.027,2.0287,2.0287,1.9995,1.9803,1.9782,1.9764,1.9729,1.9833,1.9851,1.9636,1.9472,1.9512,1.9566,1.9365,1.9195,1.9157,1.9157,1.9082,1.9011,1.8879,1.8712,1.8592,1.8417,1.8293,1.8214,1.8095,1.7955,1.7679,1.7269,1.7005,1.6866,1.6689,1.6466,1.6436,1.6306,1.5803,1.5277,1.4848,1.4082,1.3022,1.2169,1.1595,1.0851,1.005,0.95,0.8993,0.8574,0.8288,0.8521,0.8561,0.7902,0.7141,0.6637,0.634,2.8562,2.8592,2.7899,2.7989,2.8562,2.9112,2.9397,2.9457,2.9442,2.9487,2.9325,2.8876,2.8592,2.8293,2.7839,2.7615,2.7959,2.8293,2.8577,2.8592,2.8547,2.8846,2.9131,2.8966,2.8742,2.8637,2.8607,2.8697,2.8682,2.8798,2.9007,2.9472,2.8786,2.8547,2.8427,2.7051,2.6168,2.5929,2.5098,2.441,2.453,2.4455,2.4246,2.3714,2.3385,2.3011,2.2054,2.1455,2.11,2.022,1.9762,1.9795,1.9904,2.001,2.0166,2.0218,2.0252,2.027,2.027,2.0287,2.0287,2.0287,2.0287,2.0202,2.0115,2.008,2.0045,2.0045,2.0098,2.0131,1.9957,1.9851,1.9869,1.9869,1.9744,1.9672,1.9672,1.9617,1.9545,1.9439,1.9291,1.9161,1.9068,1.8917,1.8683,1.8592,1.8514,1.8378,1.8082,1.774,1.7578,1.7421,1.7248,1.7073,1.6905,1.6799,1.6659,1.6283,1.584,1.5179,1.4122,1.3191,1.2331,1.151,1.0686,1.0331,0.9894,0.955,0.9282,0.9151,0.913,0.8878,0.8354,0.7756,0.728,2.8154,2.8532,2.7884,2.7705,2.7854,2.8004,2.8109,2.8079,2.8079,2.8408,2.8742,2.8637,2.8293,2.7884,2.7735,2.7585,2.775,2.8274,2.8532,2.8652,2.8667,2.9026,2.937,2.9011,2.8652,2.8592,2.8532,2.8308,2.8199,2.8229,2.8364,2.8682,2.8128,2.7899,2.8248,2.6797,2.5944,2.5884,2.4866,2.4276,2.4425,2.4066,2.3699,2.3595,2.346,2.2877,2.2084,2.1605,2.0857,2.001,1.9822,1.9869,2.0013,2.0168,2.027,2.0287,2.0287,2.0287,2.0321,2.0321,2.0339,2.0321,2.0304,2.0304,2.0287,2.0287,2.0287,2.0287,2.0287,2.0287,2.027,2.02,2.0148,2.0131,2.0098,2.0098,2.0131,2.0045,1.9957,1.9833,1.969,1.9599,1.9527,1.9362,1.912,1.9007,1.8955,1.8822,1.8553,1.8246,1.8082,1.7942,1.7788,1.7604,1.7419,1.722,1.7094,1.6829,1.638,1.5765,1.5098,1.3927,1.2776,1.2035,1.1364,1.1017,1.0828,1.08,1.0533,1.0128,0.9952,0.9835,0.9588,0.9084,0.8521,2.7809,2.8109,2.7764,2.7585,2.7585,2.7585,2.7585,2.7585,2.7585,2.7809,2.8139,2.8128,2.7944,2.76,2.76,2.7585,2.772,2.8308,2.8786,2.8966,2.8966,2.925,2.928,2.9175,2.8547,2.8368,2.8229,2.7989,2.7884,2.7375,2.7435,2.7619,2.7195,2.7091,2.7485,2.6333,2.56,2.557,2.4492,2.4156,2.4246,2.3819,2.3595,2.3595,2.3206,2.2622,2.1994,2.144,2.0647,2.0044,1.9845,1.9993,2.0133,2.0237,2.0287,2.0287,2.0287,2.0287,2.0339,2.039,2.0407,2.039,2.0492,2.0543,2.0304,2.0287,2.0287,2.0287,2.0287,2.0287,2.0287,2.0235,2.0235,2.0218,2.0218,2.0218,2.0218,2.02,2.0148,2.0113,2.001,1.9993,1.994,1.9922,1.9672,1.9417,1.9365,1.918,1.8936,1.8731,1.8592,1.8411,1.8208,1.7983,1.7706,1.7563,1.7468,1.7199,1.6892,1.6125,1.5316,1.4232,1.3199,1.2552,1.2036,1.1708,1.159,1.1534,1.1367,1.0924,1.0867,1.0878,1.0592,1.0254,0.9806,2.7465,2.748,2.7555,2.754,2.7495,2.757,2.7585,2.7585,2.7585,2.7585,2.766,2.766,2.7585,2.7585,2.7585,2.7585,2.7735,2.8094,2.8723,2.916,2.9307,2.952,2.9624,2.9535,2.8831,2.8109,2.769,2.7949,2.8173,2.723,2.6467,2.6408,2.6258,2.6063,2.6228,2.6004,2.56,2.5375,2.4709,2.4133,2.3849,2.3595,2.3595,2.3385,2.3077,2.2484,2.1789,2.121,2.055,2.0098,1.9922,2.0096,2.02,2.0287,2.0287,2.0287,2.0287,2.0287,2.0339,2.0477,2.0477,2.051,2.0712,2.0695,2.046,2.0443,2.0443,2.0426,2.0426,2.0321,2.0321,2.0304,2.0304,2.0321,2.0321,2.0321,2.0321,2.0339,2.0356,2.0356,2.0287,2.027,2.027,2.027,2.0115,1.9869,1.969,1.949,1.9291,1.918,1.9049,1.8803,1.8567,1.8293,1.8036,1.7848,1.7767,1.755,1.7177,1.6401,1.5544,1.4494,1.3667,1.3163,1.2703,1.2347,1.2131,1.2029,1.1811,1.1608,1.1516,1.1423,1.118,1.0924,1.0905,2.6791,2.6851,2.736,2.73,2.6941,2.7375,2.7585,2.7585,2.7585,2.7585,2.7585,2.7585,2.7585,2.7585,2.7585,2.7585,2.763,2.7884,2.8203,2.8682,2.9041,2.9549,2.9744,2.94,2.9056,2.8338,2.757,2.73,2.7724,2.6677,2.6048,2.6363,2.6482,2.6363,2.6333,2.6033,2.5644,2.5375,2.4702,2.3954,2.3781,2.3595,2.3595,2.3563,2.3597,2.2806,2.2119,2.1806,2.1008,2.0382,2.0045,2.02,2.0304,2.0373,2.0373,2.0356,2.0356,2.0339,2.0409,2.0544,2.0561,2.0761,2.0925,2.099,2.0909,2.0991,2.0958,2.0893,2.0795,2.0477,2.0409,2.0375,2.0357,2.0424,2.0441,2.0424,2.0424,2.0526,2.0594,2.0475,2.0321,2.0304,2.0287,2.0287,2.027,2.0098,2.008,1.9887,1.9672,1.9548,1.9457,1.9236,1.8974,1.8688,1.8456,1.8149,1.7989,1.7808,1.7444,1.6645,1.5792,1.4817,1.4065,1.3522,1.3215,1.2908,1.2733,1.2544,1.233,1.2138,1.2011,1.1884,1.1682,1.1553,1.1516]}]]